Darstellungsparameter: Aktuell verwendete Einstellungen:
Skalierung der Graphiken ... ?
xyx+y,   Skalierungsfaktor:      Skalierung: Modus: x, Faktor: 1
Darstellungszeitraum ... ?
Vom - - bis: - -   Zeitraum: 11.04.2020 - 24.04.2020
Min/Max/Avg-Anzeige ... ?
Zeige MMA aktuell
Zeige MMA Monat
Zeige MMA alles
Zeige --A aktuell
Zeige --A Monat
Zeige --A alles
Keine MMA-Anzeige
MMA:
Keine MMA-Graphiken
MMA-Basis: 11.04.2020 - 24.04.2020
Quicknavigation für Darstellung... ?
Tage:      1T, 2T, 3T, 5T -1T -2T -3T -5T +1T +2T +3T +5T
Wochen: 1W, 2W, 3W -1W -2W -3W +1W +2W +3W
Monate: 1M, 3M, 6M -1M -3M -6M +1M +3M +6M
Jahre:    1J, 3J, 5J, 10J -1J -3J -5J -10J +1J +3J +5J +10J
Nutze für die Darstellung ... ?
Originaldaten oder Mittelwerte auf ...
Stundenbasis Tagesbasis Wochenbasis
Monatsbasis Jahresbasis      Datenbasis: Original-Daten
Darstellen als:
Statistik (Auto) Statistik J:M      Darstellung:
Zur Graphik,    zurück zur Übersicht aller Sensoren.
 
Tabellarische Datenbersicht: ?
 
Sensor: Nr:Datum:Temp:Feuchte:Taupunkt:
Aussen-T/F 1 11-04-2020 00:00:00 11.8 C 70 % 6.51 C
2 11-04-2020 00:05:00 11.7 C 70 % 6.42 C
3 11-04-2020 00:10:00 11.5 C 71 % 6.43 C
4 11-04-2020 00:15:00 11.4 C 71 % 6.34 C
5 11-04-2020 00:20:00 11.3 C 71 % 6.24 C
6 11-04-2020 00:25:00 11.2 C 72 % 6.35 C
7 11-04-2020 00:30:00 11.1 C 72 % 6.25 C
8 11-04-2020 00:35:00 11 C 72 % 6.15 C
9 11-04-2020 00:40:00 10.8 C 73 % 6.16 C
10 11-04-2020 00:45:00 10.8 C 72 % 5.96 C
11 11-04-2020 00:50:00 10.7 C 73 % 6.07 C
12 11-04-2020 00:55:00 10.7 C 72 % 5.87 C
13 11-04-2020 01:00:00 10.6 C 72 % 5.77 C
14 11-04-2020 01:05:00 10.5 C 72 % 5.67 C
15 11-04-2020 01:10:00 10.4 C 72 % 5.58 C
16 11-04-2020 01:15:00 10.3 C 73 % 5.68 C
17 11-04-2020 01:20:00 10.2 C 73 % 5.58 C
18 11-04-2020 01:25:00 10 C 73 % 5.39 C
19 11-04-2020 01:30:00 9.9 C 74 % 5.49 C
20 11-04-2020 01:35:00 9.8 C 74 % 5.39 C
21 11-04-2020 01:40:00 9.7 C 73 % 5.1 C
22 11-04-2020 01:45:00 9.6 C 73 % 5.01 C
23 11-04-2020 01:50:00 9.6 C 74 % 5.2 C
24 11-04-2020 01:55:00 9.4 C 74 % 5.01 C
25 11-04-2020 02:00:00 9.3 C 74 % 4.91 C
Sensor: Nr:Datum:Temp:Feuchte:Taupunkt:
Aussen-T/F 26 11-04-2020 02:05:00 9.2 C 74 % 4.81 C
27 11-04-2020 02:10:00 9.1 C 74 % 4.72 C
28 11-04-2020 02:15:00 9.1 C 75 % 4.91 C
29 11-04-2020 02:20:00 9 C 74 % 4.62 C
30 11-04-2020 02:25:00 8.9 C 74 % 4.53 C
31 11-04-2020 02:30:00 8.9 C 74 % 4.53 C
32 11-04-2020 02:35:00 8.9 C 74 % 4.53 C
33 11-04-2020 02:40:00 8.9 C 74 % 4.53 C
34 11-04-2020 02:45:00 8.9 C 74 % 4.53 C
35 11-04-2020 02:50:00 8.8 C 74 % 4.43 C
36 11-04-2020 02:55:00 8.7 C 74 % 4.33 C
37 11-04-2020 03:00:00 8.7 C 74 % 4.33 C
38 11-04-2020 03:05:00 8.6 C 73 % 4.04 C
39 11-04-2020 03:10:00 8.6 C 73 % 4.04 C
40 11-04-2020 03:15:00 8.6 C 71 % 3.65 C
41 11-04-2020 03:20:00 8.6 C 70 % 3.45 C
42 11-04-2020 03:25:00 8.6 C 70 % 3.45 C
43 11-04-2020 03:30:00 8.6 C 70 % 3.45 C
44 11-04-2020 03:35:00 8.5 C 70 % 3.35 C
45 11-04-2020 03:40:00 8.4 C 72 % 3.65 C
46 11-04-2020 03:45:00 8.3 C 71 % 3.36 C
47 11-04-2020 03:50:00 8.3 C 71 % 3.36 C
48 11-04-2020 03:55:00 8.2 C 70 % 3.06 C
49 11-04-2020 04:00:00 8.2 C 71 % 3.26 C
50 11-04-2020 04:05:00 8.1 C 71 % 3.17 C
Sensor: Nr:Datum:Temp:Feuchte:Taupunkt:
Aussen-T/F 51 11-04-2020 04:10:00 8.1 C 71 % 3.17 C
52 11-04-2020 04:15:00 8 C 70 % 2.87 C
53 11-04-2020 04:20:00 7.9 C 69 % 2.57 C
54 11-04-2020 04:25:00 7.9 C 70 % 2.78 C
55 11-04-2020 04:30:00 7.8 C 69 % 2.48 C
56 11-04-2020 04:35:00 7.8 C 70 % 2.68 C
57 11-04-2020 04:40:00 7.7 C 70 % 2.58 C
58 11-04-2020 04:45:00 7.7 C 70 % 2.58 C
59 11-04-2020 04:50:00 7.6 C 69 % 2.29 C
60 11-04-2020 04:55:00 7.6 C 68 % 2.08 C
61 11-04-2020 05:00:00 7.5 C 68 % 1.99 C
62 11-04-2020 05:05:00 7.5 C 69 % 2.19 C
63 11-04-2020 05:10:00 7.4 C 69 % 2.1 C
64 11-04-2020 05:15:00 7.3 C 68 % 1.8 C
65 11-04-2020 05:20:00 7.3 C 70 % 2.2 C
66 11-04-2020 05:25:00 7.2 C 69 % 1.9 C
67 11-04-2020 05:30:00 7.1 C 70 % 2.01 C
68 11-04-2020 05:35:00 6.9 C 70 % 1.82 C
69 11-04-2020 05:40:00 6.8 C 72 % 2.12 C
70 11-04-2020 05:45:00 6.7 C 73 % 2.21 C
71 11-04-2020 05:50:00 6.6 C 72 % 1.92 C
72 11-04-2020 05:55:00 6.5 C 73 % 2.02 C
73 11-04-2020 06:00:00 6.4 C 73 % 1.92 C
74 11-04-2020 06:05:00 6.3 C 74 % 2.02 C
75 11-04-2020 06:10:00 6.2 C 75 % 2.11 C
Sensor: Nr:Datum:Temp:Feuchte:Taupunkt:
Aussen-T/F 76 11-04-2020 06:15:00 6 C 76 % 2.1 C
77 11-04-2020 06:20:00 5.8 C 76 % 1.91 C
78 11-04-2020 06:25:00 5.7 C 76 % 1.81 C
79 11-04-2020 06:30:00 5.7 C 76 % 1.81 C
80 11-04-2020 06:35:00 5.7 C 76 % 1.81 C
81 11-04-2020 06:40:00 5.6 C 76 % 1.71 C
82 11-04-2020 06:45:00 5.5 C 77 % 1.8 C
83 11-04-2020 06:50:00 5.4 C 77 % 1.7 C
84 11-04-2020 06:55:00 5.4 C 77 % 1.7 C
85 11-04-2020 07:00:00 5.3 C 77 % 1.6 C
86 11-04-2020 07:05:00 5.2 C 78 % 1.69 C
87 11-04-2020 07:10:00 5.2 C 78 % 1.69 C
88 11-04-2020 07:15:00 5.2 C 78 % 1.69 C
89 11-04-2020 07:20:00 5.2 C 79 % 1.86 C
90 11-04-2020 07:25:00 5.2 C 79 % 1.86 C
91 11-04-2020 07:30:00 5.1 C 79 % 1.77 C
92 11-04-2020 07:35:00 5.2 C 79 % 1.86 C
93 11-04-2020 07:40:00 5.2 C 79 % 1.86 C
94 11-04-2020 07:45:00 5.2 C 78 % 1.69 C
95 11-04-2020 07:50:00 5.3 C 78 % 1.78 C
96 11-04-2020 07:55:00 5.4 C 78 % 1.88 C
97 11-04-2020 08:00:00 5.4 C 78 % 1.88 C
98 11-04-2020 08:05:00 5.5 C 78 % 1.98 C
99 11-04-2020 08:10:00 5.6 C 78 % 2.07 C
100 11-04-2020 08:15:00 5.6 C 78 % 2.07 C
Sensor: Nr:Datum:Temp:Feuchte:Taupunkt:
Aussen-T/F 101 11-04-2020 08:20:00 5.7 C 78 % 2.17 C
102 11-04-2020 08:25:00 5.7 C 78 % 2.17 C
103 11-04-2020 08:30:00 5.8 C 78 % 2.27 C
104 11-04-2020 08:35:00 5.8 C 76 % 1.91 C
105 11-04-2020 08:40:00 5.9 C 76 % 2 C
106 11-04-2020 08:45:00 6.1 C 77 % 2.38 C
107 11-04-2020 08:50:00 6.2 C 76 % 2.29 C
108 11-04-2020 08:55:00 6.3 C 77 % 2.57 C
109 11-04-2020 09:00:00 6.4 C 75 % 2.3 C
110 11-04-2020 09:05:00 6.6 C 74 % 2.31 C
111 11-04-2020 09:10:00 6.7 C 74 % 2.4 C
112 11-04-2020 09:15:00 6.9 C 74 % 2.6 C
113 11-04-2020 09:20:00 7 C 74 % 2.69 C
114 11-04-2020 09:25:00 7.2 C 74 % 2.89 C
115 11-04-2020 09:30:00 7.3 C 74 % 2.98 C
116 11-04-2020 09:35:00 7.5 C 74 % 3.17 C
117 11-04-2020 09:40:00 7.7 C 74 % 3.37 C
118 11-04-2020 09:45:00 7.9 C 73 % 3.37 C
119 11-04-2020 09:50:00 8.2 C 72 % 3.46 C
120 11-04-2020 09:55:00 8.4 C 71 % 3.46 C
121 11-04-2020 10:00:00 8.6 C 71 % 3.65 C
122 11-04-2020 10:05:00 8.8 C 69 % 3.44 C
123 11-04-2020 10:10:00 9.1 C 69 % 3.72 C
124 11-04-2020 10:15:00 9.3 C 70 % 4.12 C
125 11-04-2020 10:20:00 9.5 C 68 % 3.9 C
Sensor: Nr:Datum:Temp:Feuchte:Taupunkt:
Aussen-T/F 126 11-04-2020 10:25:00 9.8 C 67 % 3.97 C
127 11-04-2020 10:30:00 10.1 C 66 % 4.05 C
128 11-04-2020 10:35:00 10.4 C 62 % 3.44 C
129 11-04-2020 10:40:00 10.7 C 62 % 3.73 C
130 11-04-2020 10:45:00 11.2 C 55 % 2.51 C
131 11-04-2020 10:50:00 11.6 C 59 % 3.87 C
132 11-04-2020 10:55:00 11.9 C 59 % 4.15 C
133 11-04-2020 11:00:00 12.2 C 56 % 3.69 C
134 11-04-2020 11:05:00 12.4 C 58 % 4.38 C
135 11-04-2020 11:10:00 12.7 C 55 % 3.9 C
136 11-04-2020 11:15:00 13.1 C 52 % 3.48 C
137 11-04-2020 11:20:00 13.5 C 51 % 3.57 C
138 11-04-2020 11:25:00 14 C 51 % 4.04 C
139 11-04-2020 11:30:00 14.4 C 49 % 3.83 C
140 11-04-2020 11:35:00 14.8 C 47 % 3.61 C
141 11-04-2020 11:40:00 15.2 C 46 % 3.67 C
142 11-04-2020 11:45:00 15.6 C 48 % 4.64 C
143 11-04-2020 11:50:00 15.8 C 45 % 3.9 C
144 11-04-2020 11:55:00 16.2 C 44 % 3.95 C
145 11-04-2020 12:00:00 16.6 C 43 % 3.98 C
146 11-04-2020 12:05:00 16.9 C 43 % 4.25 C
147 11-04-2020 12:10:00 17.2 C 42 % 4.19 C
148 11-04-2020 12:15:00 17.5 C 41 % 4.12 C
149 11-04-2020 12:20:00 17.8 C 40 % 4.03 C
150 11-04-2020 12:25:00 18.1 C 38 % 3.57 C
Sensor: Nr:Datum:Temp:Feuchte:Taupunkt:
Aussen-T/F 151 11-04-2020 12:30:00 18.3 C 38 % 3.75 C
152 11-04-2020 12:35:00 18.6 C 40 % 4.75 C
153 11-04-2020 12:40:00 18.7 C 39 % 4.48 C
154 11-04-2020 12:45:00 18.8 C 37 % 3.82 C
155 11-04-2020 12:50:00 18.8 C 37 % 3.82 C
156 11-04-2020 12:55:00 18.9 C 37 % 3.91 C
157 11-04-2020 13:00:00 19.1 C 36 % 3.7 C
158 11-04-2020 13:05:00 19.2 C 36 % 3.78 C
159 11-04-2020 13:10:00 19.4 C 36 % 3.96 C
160 11-04-2020 13:15:00 19.5 C 36 % 4.05 C
161 11-04-2020 13:20:00 19.6 C 35 % 3.74 C
162 11-04-2020 13:25:00 19.6 C 36 % 4.14 C
163 11-04-2020 13:30:00 19.8 C 37 % 4.7 C
164 11-04-2020 13:35:00 19.9 C 36 % 4.4 C
165 11-04-2020 13:40:00 20.1 C 36 % 4.58 C
166 11-04-2020 13:45:00 20.2 C 36 % 4.67 C
167 11-04-2020 13:50:00 20.3 C 36 % 4.76 C
168 11-04-2020 13:55:00 20.4 C 36 % 4.84 C
169 11-04-2020 14:00:00 20.6 C 37 % 5.41 C
170 11-04-2020 14:05:00 20.6 C 37 % 5.41 C
171 11-04-2020 14:10:00 20.7 C 36 % 5.11 C
172 11-04-2020 14:15:00 20.9 C 36 % 5.28 C
173 11-04-2020 14:20:00 20.9 C 37 % 5.68 C
174 11-04-2020 14:25:00 21.2 C 37 % 5.94 C
175 11-04-2020 14:30:00 21.4 C 36 % 5.73 C
Sensor: Nr:Datum:Temp:Feuchte:Taupunkt:
Aussen-T/F 176 11-04-2020 14:35:00 21.4 C 35 % 5.32 C
177 11-04-2020 14:40:00 21.5 C 35 % 5.41 C
178 11-04-2020 14:45:00 21.7 C 34 % 5.17 C
179 11-04-2020 14:50:00 21.8 C 36 % 6.08 C
180 11-04-2020 14:55:00 22.1 C 35 % 5.94 C
181 11-04-2020 15:00:00 22.1 C 34 % 5.52 C
182 11-04-2020 15:05:00 22.1 C 36 % 6.34 C
183 11-04-2020 15:10:00 22.1 C 35 % 5.94 C
184 11-04-2020 15:15:00 22.2 C 34 % 5.61 C
185 11-04-2020 15:20:00 22.2 C 35 % 6.02 C
186 11-04-2020 15:25:00 22.1 C 35 % 5.94 C
187 11-04-2020 15:30:00 22.1 C 35 % 5.94 C
188 11-04-2020 15:35:00 22.1 C 35 % 5.94 C
189 11-04-2020 15:40:00 22.1 C 35 % 5.94 C
190 11-04-2020 15:45:00 22.2 C 36 % 6.43 C
191 11-04-2020 15:50:00 22.2 C 35 % 6.02 C
192 11-04-2020 15:55:00 22.2 C 35 % 6.02 C
193 11-04-2020 16:00:00 22.2 C 36 % 6.43 C
194 11-04-2020 16:05:00 22.2 C 37 % 6.83 C
195 11-04-2020 16:10:00 22.4 C 36 % 6.61 C
196 11-04-2020 16:15:00 22.7 C 35 % 6.46 C
197 11-04-2020 16:20:00 22.8 C 35 % 6.55 C
198 11-04-2020 16:25:00 23 C 34 % 6.31 C
199 11-04-2020 16:30:00 23.3 C 36 % 7.4 C
200 11-04-2020 16:35:00 23.7 C 33 % 6.49 C
Sensor: Nr:Datum:Temp:Feuchte:Taupunkt:
Aussen-T/F 201 11-04-2020 16:40:00 24.1 C 34 % 7.27 C
202 11-04-2020 16:45:00 24.4 C 35 % 7.96 C
203 11-04-2020 16:50:00 24.8 C 32 % 7 C
204 11-04-2020 16:55:00 24.9 C 33 % 7.53 C
205 11-04-2020 17:00:00 24.8 C 31 % 6.54 C
206 11-04-2020 17:05:00 24.7 C 32 % 6.91 C
207 11-04-2020 17:10:00 24.6 C 32 % 6.82 C
208 11-04-2020 17:15:00 24.6 C 32 % 6.82 C
209 11-04-2020 17:20:00 24.4 C 33 % 7.1 C
210 11-04-2020 17:25:00 24.6 C 33 % 7.27 C
211 11-04-2020 17:30:00 24.6 C 32 % 6.82 C
212 11-04-2020 17:35:00 24.2 C 33 % 6.92 C
213 11-04-2020 17:40:00 24.1 C 33 % 6.84 C
214 11-04-2020 17:45:00 23.9 C 34 % 7.1 C
215 11-04-2020 17:50:00 24.1 C 33 % 6.84 C
216 11-04-2020 17:55:00 24.1 C 32 % 6.39 C
217 11-04-2020 18:00:00 24.2 C 33 % 6.92 C
218 11-04-2020 18:05:00 24.1 C 33 % 6.84 C
219 11-04-2020 18:10:00 23.9 C 33 % 6.66 C
220 11-04-2020 18:15:00 23.8 C 33 % 6.57 C
221 11-04-2020 18:20:00 23.8 C 33 % 6.57 C
222 11-04-2020 18:25:00 23.9 C 33 % 6.66 C
223 11-04-2020 18:30:00 24 C 33 % 6.75 C
224 11-04-2020 18:35:00 24.3 C 33 % 7.01 C
225 11-04-2020 18:40:00 24.2 C 34 % 7.36 C
Sensor: Nr:Datum:Temp:Feuchte:Taupunkt:
Aussen-T/F 226 11-04-2020 18:45:00 24.2 C 32 % 6.48 C
227 11-04-2020 18:50:00 24.1 C 32 % 6.39 C
228 11-04-2020 18:55:00 23.8 C 33 % 6.57 C
229 11-04-2020 19:00:00 23.8 C 33 % 6.57 C
230 11-04-2020 19:05:00 23.9 C 33 % 6.66 C
231 11-04-2020 19:10:00 23.8 C 34 % 7.01 C
232 11-04-2020 19:15:00 23.6 C 36 % 7.67 C
233 11-04-2020 19:20:00 23.4 C 37 % 7.89 C
234 11-04-2020 19:25:00 23.2 C 33 % 6.05 C
235 11-04-2020 19:30:00 22.9 C 35 % 6.64 C
236 11-04-2020 19:35:00 22.7 C 35 % 6.46 C
237 11-04-2020 19:40:00 22.4 C 38 % 7.4 C
238 11-04-2020 19:45:00 22.1 C 41 % 8.24 C
239 11-04-2020 19:50:00 21.5 C 42 % 8.06 C
240 11-04-2020 19:55:00 20.7 C 45 % 8.35 C
241 11-04-2020 20:00:00 19.9 C 46 % 7.95 C
242 11-04-2020 20:05:00 19.2 C 47 % 7.63 C
243 11-04-2020 20:10:00 18.6 C 49 % 7.69 C
244 11-04-2020 20:15:00 18 C 50 % 7.43 C
245 11-04-2020 20:20:00 17.6 C 51 % 7.35 C
246 11-04-2020 20:25:00 17.1 C 53 % 7.45 C
247 11-04-2020 20:30:00 16.8 C 53 % 7.18 C
248 11-04-2020 20:35:00 16.5 C 53 % 6.9 C
249 11-04-2020 20:40:00 16.3 C 54 % 6.98 C
250 11-04-2020 20:45:00 16.1 C 54 % 6.8 C
Sensor: Nr:Datum:Temp:Feuchte:Taupunkt:
Aussen-T/F 251 11-04-2020 20:50:00 15.9 C 55 % 6.88 C
252 11-04-2020 20:55:00 15.8 C 55 % 6.79 C
253 11-04-2020 21:00:00 15.7 C 53 % 6.16 C
254 11-04-2020 21:05:00 15.6 C 56 % 6.86 C
255 11-04-2020 21:10:00 15.5 C 56 % 6.77 C
256 11-04-2020 21:15:00 15.4 C 56 % 6.68 C
257 11-04-2020 21:20:00 15.3 C 56 % 6.58 C
258 11-04-2020 21:25:00 15.3 C 56 % 6.58 C
259 11-04-2020 21:30:00 15.2 C 57 % 6.75 C
260 11-04-2020 21:35:00 15.1 C 58 % 6.91 C
261 11-04-2020 21:40:00 14.9 C 57 % 6.47 C
262 11-04-2020 21:45:00 14.8 C 57 % 6.37 C
263 11-04-2020 21:50:00 14.8 C 58 % 6.63 C
264 11-04-2020 21:55:00 14.6 C 60 % 6.93 C
265 11-04-2020 22:00:00 14.4 C 59 % 6.5 C
266 11-04-2020 22:05:00 14.3 C 60 % 6.65 C
267 11-04-2020 22:10:00 14.2 C 60 % 6.56 C
268 11-04-2020 22:15:00 14.1 C 60 % 6.46 C
269 11-04-2020 22:20:00 14.1 C 60 % 6.46 C
270 11-04-2020 22:25:00 14.1 C 61 % 6.7 C
271 11-04-2020 22:30:00 14.1 C 62 % 6.94 C
272 11-04-2020 22:35:00 14.1 C 63 % 7.17 C
273 11-04-2020 22:40:00 14.1 C 63 % 7.17 C
274 11-04-2020 22:45:00 14.2 C 63 % 7.27 C
275 11-04-2020 22:50:00 14.2 C 64 % 7.5 C
Sensor: Nr:Datum:Temp:Feuchte:Taupunkt:
Aussen-T/F 276 11-04-2020 22:55:00 14.2 C 65 % 7.72 C
277 11-04-2020 23:00:00 14.2 C 64 % 7.5 C
278 11-04-2020 23:05:00 14 C 64 % 7.31 C
279 11-04-2020 23:10:00 13.8 C 63 % 6.89 C
280 11-04-2020 23:15:00 13.6 C 64 % 6.93 C
281 11-04-2020 23:20:00 13.4 C 64 % 6.74 C
282 11-04-2020 23:25:00 13.3 C 65 % 6.87 C
283 11-04-2020 23:30:00 13.1 C 65 % 6.68 C
284 11-04-2020 23:35:00 12.8 C 66 % 6.61 C
285 11-04-2020 23:40:00 12.7 C 67 % 6.74 C
286 11-04-2020 23:45:00 12.5 C 67 % 6.55 C
287 11-04-2020 23:50:00 12.3 C 69 % 6.78 C
288 11-04-2020 23:55:00 12.2 C 69 % 6.69 C
289 12-04-2020 00:00:00 12.1 C 69 % 6.59 C
290 12-04-2020 00:05:00 12.2 C 70 % 6.9 C
291 12-04-2020 00:10:00 12.1 C 69 % 6.59 C
292 12-04-2020 00:15:00 12 C 69 % 6.5 C
293 12-04-2020 00:20:00 11.9 C 70 % 6.61 C
294 12-04-2020 00:25:00 11.8 C 71 % 6.72 C
295 12-04-2020 00:30:00 11.7 C 71 % 6.62 C
296 12-04-2020 00:35:00 11.6 C 72 % 6.73 C
297 12-04-2020 00:40:00 11.6 C 71 % 6.53 C
298 12-04-2020 00:45:00 11.6 C 71 % 6.53 C
299 12-04-2020 00:50:00 11.7 C 70 % 6.42 C
300 12-04-2020 00:55:00 11.7 C 70 % 6.42 C
Sensor: Nr:Datum:Temp:Feuchte:Taupunkt:
Aussen-T/F 301 12-04-2020 01:00:00 11.6 C 70 % 6.32 C
302 12-04-2020 01:05:00 11.5 C 70 % 6.23 C
303 12-04-2020 01:10:00 11.4 C 71 % 6.34 C
304 12-04-2020 01:15:00 11.3 C 71 % 6.24 C
305 12-04-2020 01:20:00 11.1 C 70 % 5.84 C
306 12-04-2020 01:25:00 11 C 71 % 5.95 C
307 12-04-2020 01:30:00 10.9 C 71 % 5.86 C
308 12-04-2020 01:35:00 10.8 C 72 % 5.96 C
309 12-04-2020 01:40:00 10.7 C 71 % 5.66 C
310 12-04-2020 01:45:00 10.6 C 72 % 5.77 C
311 12-04-2020 01:50:00 10.6 C 71 % 5.57 C
312 12-04-2020 01:55:00 10.7 C 72 % 5.87 C
313 12-04-2020 02:00:00 10.8 C 72 % 5.96 C
314 12-04-2020 02:05:00 10.8 C 73 % 6.16 C
315 12-04-2020 02:10:00 10.9 C 74 % 6.45 C
316 12-04-2020 02:15:00 10.9 C 75 % 6.65 C
317 12-04-2020 02:20:00 10.9 C 75 % 6.65 C
318 12-04-2020 02:25:00 10.8 C 74 % 6.36 C
319 12-04-2020 02:30:00 10.7 C 73 % 6.07 C
320 12-04-2020 02:35:00 10.7 C 73 % 6.07 C
321 12-04-2020 02:40:00 10.7 C 73 % 6.07 C
322 12-04-2020 02:45:00 10.7 C 73 % 6.07 C
323 12-04-2020 02:50:00 10.6 C 74 % 6.17 C
324 12-04-2020 02:55:00 10.5 C 75 % 6.26 C
325 12-04-2020 03:00:00 10.4 C 74 % 5.97 C
Sensor: Nr:Datum:Temp:Feuchte:Taupunkt:
Aussen-T/F 326 12-04-2020 03:05:00 10.4 C 75 % 6.17 C
327 12-04-2020 03:10:00 10.4 C 76 % 6.36 C
328 12-04-2020 03:15:00 10.4 C 77 % 6.55 C
329 12-04-2020 03:20:00 10.4 C 77 % 6.55 C
330 12-04-2020 03:25:00 10.4 C 76 % 6.36 C
331 12-04-2020 03:30:00 10.4 C 76 % 6.36 C
332 12-04-2020 03:35:00 10.4 C 77 % 6.55 C
333 12-04-2020 03:40:00 10.4 C 77 % 6.55 C
334 12-04-2020 03:45:00 10.3 C 77 % 6.45 C
335 12-04-2020 03:50:00 10.3 C 77 % 6.45 C
336 12-04-2020 03:55:00 10.3 C 77 % 6.45 C
337 12-04-2020 04:00:00 10.3 C 77 % 6.45 C
338 12-04-2020 04:05:00 10.3 C 78 % 6.64 C
339 12-04-2020 04:10:00 10.2 C 78 % 6.54 C
340 12-04-2020 04:15:00 10.1 C 77 % 6.26 C
341 12-04-2020 04:20:00 9.9 C 77 % 6.06 C
342 12-04-2020 04:25:00 9.7 C 78 % 6.06 C
343 12-04-2020 04:30:00 9.6 C 78 % 5.96 C
344 12-04-2020 04:35:00 9.4 C 79 % 5.95 C
345 12-04-2020 04:40:00 9.3 C 79 % 5.85 C
346 12-04-2020 04:45:00 9.3 C 80 % 6.03 C
347 12-04-2020 04:50:00 9.2 C 80 % 5.94 C
348 12-04-2020 04:55:00 9.1 C 80 % 5.84 C
349 12-04-2020 05:00:00 8.9 C 81 % 5.82 C
350 12-04-2020 05:05:00 8.8 C 81 % 5.72 C
Sensor: Nr:Datum:Temp:Feuchte:Taupunkt:
Aussen-T/F 351 12-04-2020 05:10:00 8.8 C 82 % 5.9 C
352 12-04-2020 05:15:00 8.8 C 82 % 5.9 C
353 12-04-2020 05:20:00 8.8 C 82 % 5.9 C
354 12-04-2020 05:25:00 8.8 C 82 % 5.9 C
355 12-04-2020 05:30:00 8.8 C 82 % 5.9 C
356 12-04-2020 05:35:00 8.7 C 82 % 5.8 C
357 12-04-2020 05:40:00 8.6 C 82 % 5.71 C
358 12-04-2020 05:45:00 8.4 C 83 % 5.69 C
359 12-04-2020 05:50:00 8.4 C 83 % 5.69 C
360 12-04-2020 05:55:00 8.3 C 83 % 5.59 C
361 12-04-2020 06:00:00 8.2 C 83 % 5.49 C
362 12-04-2020 06:05:00 8.2 C 84 % 5.66 C
363 12-04-2020 06:10:00 8.1 C 84 % 5.56 C
364 12-04-2020 06:15:00 8.1 C 84 % 5.56 C
365 12-04-2020 06:20:00 7.9 C 84 % 5.37 C
366 12-04-2020 06:25:00 7.9 C 85 % 5.54 C
367 12-04-2020 06:30:00 7.8 C 85 % 5.44 C
368 12-04-2020 06:35:00 7.8 C 86 % 5.61 C
369 12-04-2020 06:40:00 7.8 C 86 % 5.61 C
370 12-04-2020 06:45:00 7.8 C 86 % 5.61 C
371 12-04-2020 06:50:00 7.8 C 86 % 5.61 C
372 12-04-2020 06:55:00 7.7 C 86 % 5.51 C
373 12-04-2020 07:00:00 7.6 C 86 % 5.41 C
374 12-04-2020 07:05:00 7.5 C 86 % 5.31 C
375 12-04-2020 07:10:00 7.4 C 86 % 5.22 C
Sensor: Nr:Datum:Temp:Feuchte:Taupunkt:
Aussen-T/F 376 12-04-2020 07:15:00 7.3 C 87 % 5.28 C
377 12-04-2020 07:20:00 7.3 C 87 % 5.28 C
378 12-04-2020 07:25:00 7.3 C 87 % 5.28 C
379 12-04-2020 07:30:00 7.3 C 88 % 5.45 C
380 12-04-2020 07:35:00 7.3 C 88 % 5.45 C
381 12-04-2020 07:40:00 7.3 C 88 % 5.45 C
382 12-04-2020 07:45:00 7.4 C 89 % 5.71 C
383 12-04-2020 07:50:00 7.4 C 89 % 5.71 C
384 12-04-2020 07:55:00 7.5 C 88 % 5.64 C
385 12-04-2020 08:00:00 7.6 C 89 % 5.91 C
386 12-04-2020 08:05:00 7.7 C 89 % 6 C
387 12-04-2020 08:10:00 7.9 C 88 % 6.04 C
388 12-04-2020 08:15:00 7.9 C 88 % 6.04 C
389 12-04-2020 08:20:00 7.9 C 88 % 6.04 C
390 12-04-2020 08:25:00 8 C 89 % 6.3 C
391 12-04-2020 08:30:00 8 C 89 % 6.3 C
392 12-04-2020 08:35:00 8.1 C 89 % 6.4 C
393 12-04-2020 08:40:00 8.1 C 89 % 6.4 C
394 12-04-2020 08:45:00 8.2 C 89 % 6.5 C
395 12-04-2020 08:50:00 8.3 C 89 % 6.6 C
396 12-04-2020 08:55:00 8.4 C 89 % 6.7 C
397 12-04-2020 09:00:00 8.6 C 89 % 6.89 C
398 12-04-2020 09:05:00 8.7 C 89 % 6.99 C
399 12-04-2020 09:10:00 8.8 C 89 % 7.09 C
400 12-04-2020 09:15:00 8.9 C 89 % 7.19 C
Sensor: Nr:Datum:Temp:Feuchte:Taupunkt:
Aussen-T/F 401 12-04-2020 09:20:00 9.1 C 89 % 7.39 C
402 12-04-2020 09:25:00 9.3 C 89 % 7.58 C
403 12-04-2020 09:30:00 9.4 C 89 % 7.68 C
404 12-04-2020 09:35:00 9.6 C 89 % 7.88 C
405 12-04-2020 09:40:00 9.7 C 88 % 7.81 C
406 12-04-2020 09:45:00 9.9 C 88 % 8.01 C
407 12-04-2020 09:50:00 10.2 C 88 % 8.3 C
408 12-04-2020 09:55:00 10.3 C 88 % 8.4 C
409 12-04-2020 10:00:00 10.7 C 87 % 8.63 C
410 12-04-2020 10:05:00 10.9 C 86 % 8.65 C
411 12-04-2020 10:10:00 11.2 C 86 % 8.95 C
412 12-04-2020 10:15:00 11.4 C 85 % 8.97 C
413 12-04-2020 10:20:00 11.7 C 85 % 9.27 C
414 12-04-2020 10:25:00 12 C 84 % 9.38 C
415 12-04-2020 10:30:00 12.3 C 83 % 9.5 C
416 12-04-2020 10:35:00 12.6 C 82 % 9.61 C
417 12-04-2020 10:40:00 13.1 C 79 % 9.54 C
418 12-04-2020 10:45:00 13.5 C 79 % 9.93 C
419 12-04-2020 10:50:00 13.9 C 77 % 9.94 C
420 12-04-2020 10:55:00 14.2 C 77 % 10.23 C
421 12-04-2020 11:00:00 14.4 C 76 % 10.23 C
422 12-04-2020 11:05:00 14.7 C 75 % 10.32 C
423 12-04-2020 11:10:00 15.2 C 72 % 10.19 C
424 12-04-2020 11:15:00 15.7 C 71 % 10.46 C
425 12-04-2020 11:20:00 16.2 C 69 % 10.51 C
Sensor: Nr:Datum:Temp:Feuchte:Taupunkt:
Aussen-T/F 426 12-04-2020 11:25:00 16.7 C 69 % 10.99 C
427 12-04-2020 11:30:00 17 C 68 % 11.06 C
428 12-04-2020 11:35:00 17.3 C 66 % 10.89 C
429 12-04-2020 11:40:00 17.6 C 62 % 10.24 C
430 12-04-2020 11:45:00 17.9 C 60 % 10.03 C
431 12-04-2020 11:50:00 18.3 C 57 % 9.64 C
432 12-04-2020 11:55:00 18.6 C 56 % 9.66 C
433 12-04-2020 12:00:00 18.9 C 56 % 9.94 C
434 12-04-2020 12:05:00 19.3 C 53 % 9.49 C
435 12-04-2020 12:10:00 19.7 C 54 % 10.14 C
436 12-04-2020 12:15:00 19.9 C 52 % 9.76 C
437 12-04-2020 12:20:00 20.1 C 51 % 9.66 C
438 12-04-2020 12:25:00 20.3 C 49 % 9.24 C
439 12-04-2020 12:30:00 20.4 C 50 % 9.64 C
440 12-04-2020 12:35:00 20.6 C 47 % 8.9 C
441 12-04-2020 12:40:00 20.6 C 45 % 8.26 C
442 12-04-2020 12:45:00 20.7 C 45 % 8.35 C
443 12-04-2020 12:50:00 20.8 C 44 % 8.11 C
444 12-04-2020 12:55:00 20.8 C 42 % 7.43 C
445 12-04-2020 13:00:00 20.9 C 42 % 7.52 C
446 12-04-2020 13:05:00 21.1 C 37 % 5.86 C
447 12-04-2020 13:10:00 21.3 C 36 % 5.64 C
448 12-04-2020 13:15:00 21.3 C 37 % 6.03 C
449 12-04-2020 13:20:00 21.5 C 38 % 6.6 C
450 12-04-2020 13:25:00 21.7 C 38 % 6.77 C
Sensor: Nr:Datum:Temp:Feuchte:Taupunkt:
Aussen-T/F 451 12-04-2020 13:30:00 21.8 C 37 % 6.48 C
452 12-04-2020 13:35:00 21.8 C 36 % 6.08 C
453 12-04-2020 13:40:00 21.9 C 36 % 6.17 C
454 12-04-2020 13:45:00 21.9 C 34 % 5.34 C
455 12-04-2020 13:50:00 21.9 C 33 % 4.92 C
456 12-04-2020 13:55:00 21.9 C 33 % 4.92 C
457 12-04-2020 14:00:00 21.9 C 33 % 4.92 C
458 12-04-2020 14:05:00 22 C 34 % 5.43 C
459 12-04-2020 14:10:00 22.1 C 33 % 5.09 C
460 12-04-2020 14:15:00 22.2 C 32 % 4.74 C
461 12-04-2020 14:20:00 22.3 C 32 % 4.82 C
462 12-04-2020 14:25:00 22.4 C 31 % 4.46 C
463 12-04-2020 14:30:00 22.4 C 33 % 5.35 C
464 12-04-2020 14:35:00 22.4 C 32 % 4.91 C
465 12-04-2020 14:40:00 22.6 C 32 % 5.08 C
466 12-04-2020 14:45:00 22.7 C 31 % 4.72 C
467 12-04-2020 14:50:00 22.9 C 31 % 4.89 C
468 12-04-2020 14:55:00 23.1 C 31 % 5.06 C
469 12-04-2020 15:00:00 23.1 C 31 % 5.06 C
470 12-04-2020 15:05:00 23.2 C 30 % 4.68 C
471 12-04-2020 15:10:00 23.2 C 30 % 4.68 C
472 12-04-2020 15:15:00 23.1 C 29 % 4.11 C
473 12-04-2020 15:20:00 23.2 C 28 % 3.7 C
474 12-04-2020 15:25:00 23.3 C 27 % 3.27 C
475 12-04-2020 15:30:00 23.4 C 27 % 3.35 C
Sensor: Nr:Datum:Temp:Feuchte:Taupunkt:
Aussen-T/F 476 12-04-2020 15:35:00 23.5 C 28 % 3.96 C
477 12-04-2020 15:40:00 23.7 C 28 % 4.13 C
478 12-04-2020 15:45:00 23.9 C 32 % 6.21 C
479 12-04-2020 15:50:00 23.6 C 31 % 5.5 C
480 12-04-2020 15:55:00 23.3 C 31 % 5.24 C
481 12-04-2020 16:00:00 23.2 C 35 % 6.9 C
482 12-04-2020 16:05:00 23.4 C 32 % 5.78 C
483 12-04-2020 16:10:00 23.8 C 32 % 6.13 C
484 12-04-2020 16:15:00 24.2 C 29 % 5.06 C
485 12-04-2020 16:20:00 24.6 C 26 % 3.84 C
486 12-04-2020 16:25:00 24.8 C 23 % 2.28 C
487 12-04-2020 16:30:00 24.6 C 27 % 4.38 C
488 12-04-2020 16:35:00 24.1 C 29 % 4.97 C
489 12-04-2020 16:40:00 23.7 C 29 % 4.63 C
490 12-04-2020 16:45:00 23.4 C 29 % 4.37 C
491 12-04-2020 16:50:00 23.2 C 30 % 4.68 C
492 12-04-2020 16:55:00 23.2 C 31 % 5.15 C
493 12-04-2020 17:00:00 23.8 C 30 % 5.2 C
494 12-04-2020 17:05:00 24.3 C 29 % 5.14 C
495 12-04-2020 17:10:00 24.4 C 28 % 4.73 C
496 12-04-2020 17:15:00 24.5 C 28 % 4.81 C
497 12-04-2020 17:20:00 24.3 C 29 % 5.14 C
498 12-04-2020 17:25:00 24.3 C 29 % 5.14 C
499 12-04-2020 17:30:00 24.2 C 27 % 4.04 C
500 12-04-2020 17:35:00 24.1 C 30 % 5.46 C
Sensor: Nr:Datum:Temp:Feuchte:Taupunkt:
Aussen-T/F 501 12-04-2020 17:40:00 24.3 C 29 % 5.14 C
502 12-04-2020 17:45:00 24.5 C 27 % 4.29 C
503 12-04-2020 17:50:00 24.6 C 27 % 4.38 C
504 12-04-2020 17:55:00 24.7 C 27 % 4.46 C
505 12-04-2020 18:00:00 24.6 C 28 % 4.9 C
506 12-04-2020 18:05:00 24.6 C 26 % 3.84 C
507 12-04-2020 18:10:00 24.6 C 27 % 4.38 C
508 12-04-2020 18:15:00 24.7 C 26 % 3.93 C
509 12-04-2020 18:20:00 24.7 C 27 % 4.46 C
510 12-04-2020 18:25:00 24.9 C 27 % 4.63 C
511 12-04-2020 18:30:00 24.8 C 26 % 4.01 C
512 12-04-2020 18:35:00 24.7 C 27 % 4.46 C
513 12-04-2020 18:40:00 24.3 C 27 % 4.12 C
514 12-04-2020 18:45:00 24.1 C 29 % 4.97 C
515 12-04-2020 18:50:00 24.1 C 28 % 4.47 C
516 12-04-2020 18:55:00 23.8 C 27 % 3.7 C
517 12-04-2020 19:00:00 23.7 C 28 % 4.13 C
518 12-04-2020 19:05:00 23.7 C 29 % 4.63 C
519 12-04-2020 19:10:00 23.4 C 28 % 3.87 C
520 12-04-2020 19:15:00 23.3 C 29 % 4.28 C
521 12-04-2020 19:20:00 23.1 C 29 % 4.11 C
522 12-04-2020 19:25:00 22.9 C 28 % 3.44 C
523 12-04-2020 19:30:00 22.7 C 30 % 4.25 C
524 12-04-2020 19:35:00 22.5 C 35 % 6.29 C
525 12-04-2020 19:40:00 22.2 C 37 % 6.83 C
Sensor: Nr:Datum:Temp:Feuchte:Taupunkt:
Aussen-T/F 526 12-04-2020 19:45:00 21.9 C 37 % 6.56 C
527 12-04-2020 19:50:00 21.4 C 40 % 7.25 C
528 12-04-2020 19:55:00 20.7 C 40 % 6.63 C
529 12-04-2020 20:00:00 20.1 C 41 % 6.45 C
530 12-04-2020 20:05:00 19.3 C 43 % 6.42 C
531 12-04-2020 20:10:00 18.8 C 43 % 5.97 C
532 12-04-2020 20:15:00 18.3 C 45 % 6.17 C
533 12-04-2020 20:20:00 17.9 C 45 % 5.81 C
534 12-04-2020 20:25:00 17.6 C 46 % 5.86 C
535 12-04-2020 20:30:00 17.3 C 47 % 5.89 C
536 12-04-2020 20:35:00 17.1 C 48 % 6.01 C
537 12-04-2020 20:40:00 16.8 C 47 % 5.44 C
538 12-04-2020 20:45:00 16.6 C 48 % 5.56 C
539 12-04-2020 20:50:00 16.4 C 48 % 5.37 C
540 12-04-2020 20:55:00 16.2 C 50 % 5.78 C
541 12-04-2020 21:00:00 16 C 51 % 5.88 C
542 12-04-2020 21:05:00 15.8 C 53 % 6.25 C
543 12-04-2020 21:10:00 15.4 C 54 % 6.15 C
544 12-04-2020 21:15:00 15.2 C 55 % 6.23 C
545 12-04-2020 21:20:00 14.8 C 57 % 6.37 C
546 12-04-2020 21:25:00 14.5 C 57 % 6.09 C
547 12-04-2020 21:30:00 14.2 C 60 % 6.56 C
548 12-04-2020 21:35:00 14.1 C 58 % 5.97 C
549 12-04-2020 21:40:00 13.9 C 60 % 6.27 C
550 12-04-2020 21:45:00 13.9 C 58 % 5.78 C
Sensor: Nr:Datum:Temp:Feuchte:Taupunkt:
Aussen-T/F 551 12-04-2020 21:50:00 13.8 C 60 % 6.18 C
552 12-04-2020 21:55:00 13.7 C 60 % 6.09 C
553 12-04-2020 22:00:00 13.6 C 62 % 6.47 C
554 12-04-2020 22:05:00 13.6 C 61 % 6.23 C
555 12-04-2020 22:10:00 13.5 C 62 % 6.37 C
556 12-04-2020 22:15:00 13.4 C 61 % 6.04 C
557 12-04-2020 22:20:00 13.3 C 61 % 5.95 C
558 12-04-2020 22:25:00 13.2 C 60 % 5.61 C
559 12-04-2020 22:30:00 13.2 C 60 % 5.61 C
560 12-04-2020 22:35:00 13 C 61 % 5.66 C
561 12-04-2020 22:40:00 12.8 C 62 % 5.71 C
562 12-04-2020 22:45:00 12.6 C 63 % 5.75 C
563 12-04-2020 22:50:00 12.4 C 62 % 5.33 C
564 12-04-2020 22:55:00 12.2 C 62 % 5.14 C
565 12-04-2020 23:00:00 12.2 C 63 % 5.37 C
566 12-04-2020 23:05:00 12.1 C 64 % 5.51 C
567 12-04-2020 23:10:00 11.9 C 65 % 5.54 C
568 12-04-2020 23:15:00 11.7 C 66 % 5.57 C
569 12-04-2020 23:20:00 11.6 C 66 % 5.47 C
570 12-04-2020 23:25:00 11.6 C 66 % 5.47 C
571 12-04-2020 23:30:00 11.4 C 66 % 5.28 C
572 12-04-2020 23:35:00 11.3 C 67 % 5.4 C
573 12-04-2020 23:40:00 11.1 C 68 % 5.43 C
574 12-04-2020 23:45:00 10.9 C 69 % 5.44 C
575 12-04-2020 23:50:00 10.8 C 70 % 5.56 C
Sensor: Nr:Datum:Temp:Feuchte:Taupunkt:
Aussen-T/F 576 12-04-2020 23:55:00 10.8 C 69 % 5.35 C
577 13-04-2020 00:00:00 10.8 C 70 % 5.56 C
578 13-04-2020 00:05:00 10.8 C 70 % 5.56 C
579 13-04-2020 00:10:00 10.8 C 71 % 5.76 C
580 13-04-2020 00:15:00 10.8 C 71 % 5.76 C
581 13-04-2020 00:20:00 10.8 C 72 % 5.96 C
582 13-04-2020 00:25:00 10.8 C 72 % 5.96 C
583 13-04-2020 00:30:00 10.7 C 72 % 5.87 C
584 13-04-2020 00:35:00 10.7 C 72 % 5.87 C
585 13-04-2020 00:40:00 10.6 C 72 % 5.77 C
586 13-04-2020 00:45:00 10.4 C 73 % 5.78 C
587 13-04-2020 00:50:00 10.3 C 73 % 5.68 C
588 13-04-2020 00:55:00 10.2 C 74 % 5.78 C
589 13-04-2020 01:00:00 10.1 C 74 % 5.68 C
590 13-04-2020 01:05:00 9.9 C 74 % 5.49 C
591 13-04-2020 01:10:00 9.8 C 74 % 5.39 C
592 13-04-2020 01:15:00 9.8 C 75 % 5.59 C
593 13-04-2020 01:20:00 9.8 C 75 % 5.59 C
594 13-04-2020 01:25:00 9.7 C 76 % 5.68 C
595 13-04-2020 01:30:00 9.7 C 76 % 5.68 C
596 13-04-2020 01:35:00 9.7 C 76 % 5.68 C
597 13-04-2020 01:40:00 9.6 C 76 % 5.58 C
598 13-04-2020 01:45:00 9.6 C 76 % 5.58 C
599 13-04-2020 01:50:00 9.6 C 76 % 5.58 C
600 13-04-2020 01:55:00 9.6 C 76 % 5.58 C
Sensor: Nr:Datum:Temp:Feuchte:Taupunkt:
Aussen-T/F 601 13-04-2020 02:00:00 9.6 C 76 % 5.58 C
602 13-04-2020 02:05:00 9.5 C 76 % 5.49 C
603 13-04-2020 02:10:00 9.4 C 76 % 5.39 C
604 13-04-2020 02:15:00 9.4 C 76 % 5.39 C
605 13-04-2020 02:20:00 9.4 C 76 % 5.39 C
606 13-04-2020 02:25:00 9.4 C 77 % 5.58 C
607 13-04-2020 02:30:00 9.4 C 77 % 5.58 C
608 13-04-2020 02:35:00 9.4 C 77 % 5.58 C
609 13-04-2020 02:40:00 9.3 C 77 % 5.48 C
610 13-04-2020 02:45:00 9.2 C 77 % 5.38 C
611 13-04-2020 02:50:00 9.3 C 77 % 5.48 C
612 13-04-2020 02:55:00 9.3 C 77 % 5.48 C
613 13-04-2020 03:00:00 9.2 C 77 % 5.38 C
614 13-04-2020 03:05:00 9.1 C 78 % 5.47 C
615 13-04-2020 03:10:00 8.9 C 79 % 5.46 C
616 13-04-2020 03:15:00 8.8 C 79 % 5.36 C
617 13-04-2020 03:20:00 8.7 C 79 % 5.27 C
618 13-04-2020 03:25:00 8.6 C 80 % 5.35 C
619 13-04-2020 03:30:00 8.6 C 80 % 5.35 C
620 13-04-2020 03:35:00 8.6 C 80 % 5.35 C
621 13-04-2020 03:40:00 8.5 C 81 % 5.43 C
622 13-04-2020 03:45:00 8.4 C 81 % 5.33 C
623 13-04-2020 03:50:00 8.4 C 80 % 5.16 C
624 13-04-2020 03:55:00 8.3 C 81 % 5.24 C
625 13-04-2020 04:00:00 8.3 C 81 % 5.24 C
Sensor: Nr:Datum:Temp:Feuchte:Taupunkt:
Aussen-T/F 626 13-04-2020 04:05:00 8.2 C 81 % 5.14 C
627 13-04-2020 04:10:00 8.1 C 81 % 5.04 C
628 13-04-2020 04:15:00 7.9 C 82 % 5.02 C
629 13-04-2020 04:20:00 7.8 C 83 % 5.1 C
630 13-04-2020 04:25:00 7.6 C 83 % 4.9 C
631 13-04-2020 04:30:00 7.5 C 84 % 4.98 C
632 13-04-2020 04:35:00 7.4 C 85 % 5.05 C
633 13-04-2020 04:40:00 7.3 C 85 % 4.95 C
634 13-04-2020 04:45:00 7.3 C 85 % 4.95 C
635 13-04-2020 04:50:00 7.3 C 86 % 5.12 C
636 13-04-2020 04:55:00 7.3 C 86 % 5.12 C
637 13-04-2020 05:00:00 7.4 C 86 % 5.22 C
638 13-04-2020 05:05:00 7.4 C 85 % 5.05 C
639 13-04-2020 05:10:00 7.4 C 85 % 5.05 C
640 13-04-2020 05:15:00 7.4 C 86 % 5.22 C
641 13-04-2020 05:20:00 7.5 C 87 % 5.48 C
642 13-04-2020 05:25:00 7.6 C 87 % 5.58 C
643 13-04-2020 05:30:00 7.6 C 87 % 5.58 C
644 13-04-2020 05:35:00 7.6 C 86 % 5.41 C
645 13-04-2020 05:40:00 7.6 C 86 % 5.41 C
646 13-04-2020 05:45:00 7.7 C 86 % 5.51 C
647 13-04-2020 05:50:00 7.7 C 85 % 5.34 C
648 13-04-2020 05:55:00 7.7 C 85 % 5.34 C
649 13-04-2020 06:00:00 7.8 C 85 % 5.44 C
650 13-04-2020 06:05:00 7.8 C 85 % 5.44 C
Sensor: Nr:Datum:Temp:Feuchte:Taupunkt:
Aussen-T/F 651 13-04-2020 06:10:00 7.7 C 84 % 5.17 C
652 13-04-2020 06:15:00 7.6 C 84 % 5.07 C
653 13-04-2020 06:20:00 7.4 C 85 % 5.05 C
654 13-04-2020 06:25:00 7.3 C 85 % 4.95 C
655 13-04-2020 06:30:00 7.2 C 86 % 5.02 C
656 13-04-2020 06:35:00 7.2 C 86 % 5.02 C
657 13-04-2020 06:40:00 7.1 C 86 % 4.92 C
658 13-04-2020 06:45:00 6.9 C 87 % 4.89 C
659 13-04-2020 06:50:00 6.9 C 87 % 4.89 C
660 13-04-2020 06:55:00 6.9 C 87 % 4.89 C
661 13-04-2020 07:00:00 6.9 C 88 % 5.05 C
662 13-04-2020 07:05:00 7 C 88 % 5.15 C
663 13-04-2020 07:10:00 7.1 C 88 % 5.25 C
664 13-04-2020 07:15:00 7.2 C 88 % 5.35 C
665 13-04-2020 07:20:00 7.3 C 88 % 5.45 C
666 13-04-2020 07:25:00 7.4 C 88 % 5.55 C
667 13-04-2020 07:30:00 7.6 C 88 % 5.74 C
668 13-04-2020 07:35:00 7.8 C 88 % 5.94 C
669 13-04-2020 07:40:00 7.9 C 87 % 5.87 C
670 13-04-2020 07:45:00 8.1 C 86 % 5.9 C
671 13-04-2020 07:50:00 8.2 C 86 % 6 C
672 13-04-2020 07:55:00 8.3 C 85 % 5.93 C
673 13-04-2020 08:00:00 8.4 C 85 % 6.03 C
674 13-04-2020 08:05:00 8.5 C 85 % 6.13 C
675 13-04-2020 08:10:00 8.6 C 85 % 6.23 C
Sensor: Nr:Datum:Temp:Feuchte:Taupunkt:
Aussen-T/F 676 13-04-2020 08:15:00 8.7 C 85 % 6.32 C
677 13-04-2020 08:20:00 8.8 C 85 % 6.42 C
678 13-04-2020 08:25:00 8.9 C 85 % 6.52 C
679 13-04-2020 08:30:00 9.1 C 85 % 6.72 C
680 13-04-2020 08:35:00 9.3 C 86 % 7.08 C
681 13-04-2020 08:40:00 9.7 C 88 % 7.81 C
682 13-04-2020 08:45:00 10.3 C 88 % 8.4 C
683 13-04-2020 08:50:00 10.7 C 87 % 8.63 C
684 13-04-2020 08:55:00 10.9 C 86 % 8.65 C
685 13-04-2020 09:00:00 11.2 C 86 % 8.95 C
686 13-04-2020 09:05:00 11.3 C 85 % 8.87 C
687 13-04-2020 09:10:00 11.3 C 85 % 8.87 C
688 13-04-2020 09:15:00 11.3 C 84 % 8.7 C
689 13-04-2020 09:20:00 11.4 C 85 % 8.97 C
690 13-04-2020 09:25:00 11.4 C 84 % 8.8 C
691 13-04-2020 09:30:00 11.5 C 84 % 8.89 C
692 13-04-2020 09:35:00 11.6 C 83 % 8.81 C
693 13-04-2020 09:40:00 11.7 C 83 % 8.91 C
694 13-04-2020 09:45:00 11.8 C 83 % 9.01 C
695 13-04-2020 09:50:00 11.8 C 82 % 8.83 C
696 13-04-2020 09:55:00 11.6 C 79 % 8.09 C
697 13-04-2020 10:00:00 11.5 C 80 % 8.17 C
698 13-04-2020 10:05:00 11.4 C 80 % 8.08 C
699 13-04-2020 10:10:00 11.3 C 80 % 7.98 C
700 13-04-2020 10:15:00 11.3 C 79 % 7.8 C
Sensor: Nr:Datum:Temp:Feuchte:Taupunkt:
Aussen-T/F 701 13-04-2020 10:20:00 11.2 C 78 % 7.51 C
702 13-04-2020 10:25:00 11.2 C 79 % 7.7 C
703 13-04-2020 10:30:00 11.2 C 79 % 7.7 C
704 13-04-2020 10:35:00 11.1 C 79 % 7.6 C
705 13-04-2020 10:40:00 11.1 C 79 % 7.6 C
706 13-04-2020 10:45:00 11.2 C 78 % 7.51 C
707 13-04-2020 10:50:00 11.2 C 77 % 7.32 C
708 13-04-2020 10:55:00 11.3 C 77 % 7.42 C
709 13-04-2020 11:00:00 11.3 C 76 % 7.23 C
710 13-04-2020 11:05:00 11.3 C 76 % 7.23 C
711 13-04-2020 11:10:00 11.3 C 75 % 7.04 C
712 13-04-2020 11:15:00 11.3 C 75 % 7.04 C
713 13-04-2020 11:20:00 11.3 C 75 % 7.04 C
714 13-04-2020 11:25:00 11.3 C 74 % 6.84 C
715 13-04-2020 11:30:00 11.3 C 74 % 6.84 C
716 13-04-2020 11:35:00 11.3 C 73 % 6.64 C
717 13-04-2020 11:40:00 11.2 C 72 % 6.35 C
718 13-04-2020 11:45:00 11 C 73 % 6.35 C
719 13-04-2020 11:50:00 10.8 C 72 % 5.96 C
720 13-04-2020 11:55:00 10.8 C 72 % 5.96 C
721 13-04-2020 12:00:00 10.7 C 73 % 6.07 C
722 13-04-2020 12:05:00 10.7 C 73 % 6.07 C
723 13-04-2020 12:10:00 10.6 C 76 % 6.55 C
724 13-04-2020 12:15:00 10.4 C 76 % 6.36 C
725 13-04-2020 12:20:00 10.2 C 77 % 6.35 C
Sensor: Nr:Datum:Temp:Feuchte:Taupunkt:
Aussen-T/F 726 13-04-2020 12:25:00 10.1 C 77 % 6.26 C
727 13-04-2020 12:30:00 10.2 C 78 % 6.54 C
728 13-04-2020 12:35:00 10.3 C 77 % 6.45 C
729 13-04-2020 12:40:00 10.3 C 76 % 6.26 C
730 13-04-2020 12:45:00 10.4 C 77 % 6.55 C
731 13-04-2020 12:50:00 10.3 C 76 % 6.26 C
732 13-04-2020 12:55:00 10.2 C 76 % 6.16 C
733 13-04-2020 13:00:00 10.1 C 77 % 6.26 C
734 13-04-2020 13:05:00 10 C 77 % 6.16 C
735 13-04-2020 13:10:00 9.9 C 78 % 6.25 C
736 13-04-2020 13:15:00 9.9 C 78 % 6.25 C
737 13-04-2020 13:20:00 9.9 C 77 % 6.06 C
738 13-04-2020 13:25:00 9.8 C 77 % 5.97 C
739 13-04-2020 13:30:00 9.7 C 77 % 5.87 C
740 13-04-2020 13:35:00 9.5 C 78 % 5.86 C
741 13-04-2020 13:40:00 9.3 C 79 % 5.85 C
742 13-04-2020 13:45:00 9.1 C 81 % 6.02 C
743 13-04-2020 13:50:00 8.7 C 83 % 5.98 C
744 13-04-2020 13:55:00 8.4 C 85 % 6.03 C
745 13-04-2020 14:00:00 8.2 C 86 % 6 C
746 13-04-2020 14:05:00 8.1 C 87 % 6.07 C
747 13-04-2020 14:10:00 8.1 C 86 % 5.9 C
748 13-04-2020 14:15:00 8.1 C 86 % 5.9 C
749 13-04-2020 14:20:00 8.2 C 85 % 5.83 C
750 13-04-2020 14:25:00 8.3 C 84 % 5.76 C
Sensor: Nr:Datum:Temp:Feuchte:Taupunkt:
Aussen-T/F 751 13-04-2020 14:30:00 8.4 C 82 % 5.51 C
752 13-04-2020 14:35:00 8.6 C 83 % 5.88 C
753 13-04-2020 14:40:00 8.8 C 81 % 5.72 C
754 13-04-2020 14:45:00 9 C 79 % 5.56 C
755 13-04-2020 14:50:00 9.3 C 79 % 5.85 C
756 13-04-2020 14:55:00 9.6 C 74 % 5.2 C
757 13-04-2020 15:00:00 9.9 C 73 % 5.29 C
758 13-04-2020 15:05:00 10.2 C 72 % 5.39 C
759 13-04-2020 15:10:00 10.4 C 69 % 4.97 C
760 13-04-2020 15:15:00 10.6 C 69 % 5.16 C
761 13-04-2020 15:20:00 10.7 C 63 % 3.95 C
762 13-04-2020 15:25:00 10.6 C 61 % 3.4 C
763 13-04-2020 15:30:00 10.6 C 60 % 3.17 C
764 13-04-2020 15:35:00 10.6 C 60 % 3.17 C
765 13-04-2020 15:40:00 10.7 C 59 % 3.03 C
766 13-04-2020 15:45:00 10.8 C 55 % 2.13 C
767 13-04-2020 15:50:00 10.8 C 56 % 2.39 C
768 13-04-2020 15:55:00 10.9 C 55 % 2.23 C
769 13-04-2020 16:00:00 10.9 C 54 % 1.97 C
770 13-04-2020 16:05:00 10.7 C 53 % 1.52 C
771 13-04-2020 16:10:00 10.8 C 52 % 1.35 C
772 13-04-2020 16:15:00 10.9 C 53 % 1.71 C
773 13-04-2020 16:20:00 10.9 C 52 % 1.44 C
774 13-04-2020 16:25:00 11.3 C 52 % 1.81 C
775 13-04-2020 16:30:00 11.6 C 50 % 1.54 C
Sensor: Nr:Datum:Temp:Feuchte:Taupunkt:
Aussen-T/F 776 13-04-2020 16:35:00 11.9 C 47 % 0.96 C
777 13-04-2020 16:40:00 11.9 C 46 % 0.66 C
778 13-04-2020 16:45:00 11.9 C 46 % 0.66 C
779 13-04-2020 16:50:00 12 C 46 % 0.75 C
780 13-04-2020 16:55:00 12.3 C 46 % 1.03 C
781 13-04-2020 17:00:00 12.3 C 44 % 0.41 C
782 13-04-2020 17:05:00 12.3 C 45 % 0.72 C
783 13-04-2020 17:10:00 12.4 C 45 % 0.81 C
784 13-04-2020 17:15:00 12.6 C 45 % 1 C
785 13-04-2020 17:20:00 12.5 C 43 % 0.28 C
786 13-04-2020 17:25:00 12.6 C 44 % 0.69 C
787 13-04-2020 17:30:00 12.6 C 43 % 0.37 C
788 13-04-2020 17:35:00 12.6 C 44 % 0.69 C
789 13-04-2020 17:40:00 12.7 C 43 % 0.46 C
790 13-04-2020 17:45:00 12.7 C 41 % -0.2 C
791 13-04-2020 17:50:00 12.5 C 42 % -0.05 C
792 13-04-2020 17:55:00 12.8 C 43 % 0.55 C
793 13-04-2020 18:00:00 13.1 C 41 % 0.16 C
794 13-04-2020 18:05:00 13.1 C 41 % 0.16 C
795 13-04-2020 18:10:00 12.9 C 41 % -0.02 C
796 13-04-2020 18:15:00 12.7 C 40 % -0.53 C
797 13-04-2020 18:20:00 12.7 C 40 % -0.53 C
798 13-04-2020 18:25:00 12.6 C 42 % 0.04 C
799 13-04-2020 18:30:00 12.6 C 42 % 0.04 C
800 13-04-2020 18:35:00 12.4 C 39 % -1.15 C
Sensor: Nr:Datum:Temp:Feuchte:Taupunkt:
Aussen-T/F 801 13-04-2020 18:40:00 12.2 C 39 % -1.33 C
802 13-04-2020 18:45:00 12 C 39 % -1.51 C
803 13-04-2020 18:50:00 12 C 39 % -1.51 C
804 13-04-2020 18:55:00 11.9 C 39 % -1.6 C
805 13-04-2020 19:00:00 11.8 C 40 % -1.34 C
806 13-04-2020 19:05:00 11.7 C 40 % -1.43 C
807 13-04-2020 19:10:00 11.4 C 41 % -1.37 C
808 13-04-2020 19:15:00 11.3 C 42 % -1.13 C
809 13-04-2020 19:20:00 11.2 C 42 % -1.22 C
810 13-04-2020 19:25:00 10.9 C 43 % -1.17 C
811 13-04-2020 19:30:00 10.8 C 44 % -0.95 C
812 13-04-2020 19:35:00 10.7 C 43 % -1.35 C
813 13-04-2020 19:40:00 10.6 C 43 % -1.44 C
814 13-04-2020 19:45:00 10.4 C 43 % -1.62 C
815 13-04-2020 19:50:00 10.2 C 43 % -1.8 C
816 13-04-2020 19:55:00 10.1 C 43 % -1.89 C
817 13-04-2020 20:00:00 9.9 C 44 % -1.76 C
818 13-04-2020 20:05:00 9.7 C 45 % -1.64 C
819 13-04-2020 20:10:00 9.6 C 45 % -1.73 C
820 13-04-2020 20:15:00 9.3 C 46 % -1.71 C
821 13-04-2020 20:20:00 9.2 C 46 % -1.8 C
822 13-04-2020 20:25:00 9.1 C 46 % -1.89 C
823 13-04-2020 20:30:00 9 C 45 % -2.28 C
824 13-04-2020 20:35:00 9 C 45 % -2.28 C
825 13-04-2020 20:40:00 8.9 C 46 % -2.07 C
Sensor: Nr:Datum:Temp:Feuchte:Taupunkt:
Aussen-T/F 826 13-04-2020 20:45:00 8.8 C 46 % -2.17 C
827 13-04-2020 20:50:00 8.7 C 47 % -1.97 C
828 13-04-2020 20:55:00 8.5 C 47 % -2.15 C
829 13-04-2020 21:00:00 8.3 C 47 % -2.33 C
830 13-04-2020 21:05:00 8.3 C 47 % -2.33 C
831 13-04-2020 21:10:00 8.2 C 47 % -2.42 C
832 13-04-2020 21:15:00 8.2 C 48 % -2.14 C
833 13-04-2020 21:20:00 8.1 C 48 % -2.23 C
834 13-04-2020 21:25:00 8 C 48 % -2.32 C
835 13-04-2020 21:30:00 7.9 C 48 % -2.42 C
836 13-04-2020 21:35:00 7.8 C 48 % -2.51 C
837 13-04-2020 21:40:00 7.7 C 49 % -2.32 C
838 13-04-2020 21:45:00 7.6 C 50 % -2.14 C
839 13-04-2020 21:50:00 7.5 C 51 % -1.97 C
840 13-04-2020 21:55:00 7.4 C 50 % -2.33 C
841 13-04-2020 22:00:00 7.3 C 52 % -1.89 C
842 13-04-2020 22:05:00 7.1 C 54 % -1.56 C
843 13-04-2020 22:10:00 6.9 C 52 % -2.26 C
844 13-04-2020 22:15:00 6.7 C 55 % -1.69 C
845 13-04-2020 22:20:00 6.5 C 56 % -1.63 C
846 13-04-2020 22:25:00 6.3 C 55 % -2.06 C
847 13-04-2020 22:30:00 6.1 C 57 % -1.76 C
848 13-04-2020 22:35:00 5.8 C 59 % -1.58 C
849 13-04-2020 22:40:00 5.4 C 61 % -1.5 C
850 13-04-2020 22:45:00 5.1 C 63 % -1.35 C
Sensor: Nr:Datum:Temp:Feuchte:Taupunkt:
Aussen-T/F 851 13-04-2020 22:50:00 4.8 C 64 % -1.42 C
852 13-04-2020 22:55:00 4.7 C 65 % -1.3 C
853 13-04-2020 23:00:00 4.5 C 64 % -1.7 C
854 13-04-2020 23:05:00 4.4 C 65 % -1.59 C
855 13-04-2020 23:10:00 4.4 C 66 % -1.38 C
856 13-04-2020 23:15:00 4.3 C 66 % -1.48 C
857 13-04-2020 23:20:00 4.3 C 67 % -1.27 C
858 13-04-2020 23:25:00 4.2 C 68 % -1.17 C
859 13-04-2020 23:30:00 4.1 C 67 % -1.46 C
860 13-04-2020 23:35:00 4 C 67 % -1.56 C
861 13-04-2020 23:40:00 4.2 C 65 % -1.78 C
862 13-04-2020 23:45:00 4.3 C 64 % -1.89 C
863 13-04-2020 23:50:00 4.4 C 64 % -1.8 C
864 13-04-2020 23:55:00 4.4 C 64 % -1.8 C
865 14-04-2020 00:00:00 4.3 C 64 % -1.89 C
866 14-04-2020 00:05:00 4.2 C 64 % -1.99 C
867 14-04-2020 00:10:00 4.1 C 65 % -1.87 C
868 14-04-2020 00:15:00 4.2 C 65 % -1.78 C
869 14-04-2020 00:20:00 4.1 C 65 % -1.87 C
870 14-04-2020 00:25:00 4.1 C 65 % -1.87 C
871 14-04-2020 00:30:00 4.1 C 64 % -2.08 C
872 14-04-2020 00:35:00 4.1 C 65 % -1.87 C
873 14-04-2020 00:40:00 4 C 66 % -1.76 C
874 14-04-2020 00:45:00 3.9 C 66 % -1.86 C
875 14-04-2020 00:50:00 3.8 C 66 % -1.95 C
Sensor: Nr:Datum:Temp:Feuchte:Taupunkt:
Aussen-T/F 876 14-04-2020 00:55:00 3.8 C 65 % -2.16 C
877 14-04-2020 01:00:00 3.8 C 65 % -2.16 C
878 14-04-2020 01:05:00 3.9 C 64 % -2.27 C
879 14-04-2020 01:10:00 4 C 65 % -1.97 C
880 14-04-2020 01:15:00 4.1 C 65 % -1.87 C
881 14-04-2020 01:20:00 4.1 C 65 % -1.87 C
882 14-04-2020 01:25:00 3.9 C 67 % -1.65 C
883 14-04-2020 01:30:00 3.6 C 67 % -1.94 C
884 14-04-2020 01:35:00 3.4 C 68 % -1.93 C
885 14-04-2020 01:40:00 3.3 C 69 % -1.83 C
886 14-04-2020 01:45:00 3.1 C 70 % -1.83 C
887 14-04-2020 01:50:00 2.8 C 71 % -1.92 C
888 14-04-2020 01:55:00 2.6 C 72 % -1.93 C
889 14-04-2020 02:00:00 2.4 C 73 % -1.93 C
890 14-04-2020 02:05:00 2.4 C 73 % -1.93 C
891 14-04-2020 02:10:00 2.3 C 73 % -2.03 C
892 14-04-2020 02:15:00 2.3 C 74 % -1.85 C
893 14-04-2020 02:20:00 2.2 C 74 % -1.94 C
894 14-04-2020 02:25:00 2.1 C 74 % -2.04 C
895 14-04-2020 02:30:00 2 C 75 % -1.95 C
896 14-04-2020 02:35:00 1.9 C 75 % -2.05 C
897 14-04-2020 02:40:00 1.9 C 75 % -2.05 C
898 14-04-2020 02:45:00 1.8 C 75 % -2.15 C
899 14-04-2020 02:50:00 1.7 C 76 % -2.07 C
900 14-04-2020 02:55:00 1.6 C 77 % -1.99 C
Sensor: Nr:Datum:Temp:Feuchte:Taupunkt:
Aussen-T/F 901 14-04-2020 03:00:00 1.5 C 77 % -2.08 C
902 14-04-2020 03:05:00 1.4 C 77 % -2.18 C
903 14-04-2020 03:10:00 1.3 C 77 % -2.28 C
904 14-04-2020 03:15:00 1.4 C 77 % -2.18 C
905 14-04-2020 03:20:00 1.6 C 77 % -1.99 C
906 14-04-2020 03:25:00 1.6 C 77 % -1.99 C
907 14-04-2020 03:30:00 1.5 C 78 % -1.91 C
908 14-04-2020 03:35:00 1.5 C 77 % -2.08 C
909 14-04-2020 03:40:00 1.5 C 77 % -2.08 C
910 14-04-2020 03:45:00 1.5 C 78 % -1.91 C
911 14-04-2020 03:50:00 1.5 C 77 % -2.08 C
912 14-04-2020 03:55:00 1.5 C 77 % -2.08 C
913 14-04-2020 04:00:00 1.4 C 77 % -2.18 C
914 14-04-2020 04:05:00 1.4 C 78 % -2.01 C
915 14-04-2020 04:10:00 1.4 C 78 % -2.01 C
916 14-04-2020 04:15:00 1.3 C 78 % -2.1 C
917 14-04-2020 04:20:00 1.3 C 78 % -2.1 C
918 14-04-2020 04:25:00 1.2 C 79 % -2.03 C
919 14-04-2020 04:30:00 1.2 C 78 % -2.2 C
920 14-04-2020 04:35:00 1.1 C 79 % -2.12 C
921 14-04-2020 04:40:00 1 C 78 % -2.39 C
922 14-04-2020 04:45:00 0.9 C 78 % -2.49 C
923 14-04-2020 04:50:00 0.9 C 79 % -2.32 C
924 14-04-2020 04:55:00 0.9 C 79 % -2.32 C
925 14-04-2020 05:00:00 0.9 C 79 % -2.32 C
Sensor: Nr:Datum:Temp:Feuchte:Taupunkt:
Aussen-T/F 926 14-04-2020 05:05:00 0.8 C 80 % -2.25 C
927 14-04-2020 05:10:00 0.7 C 80 % -2.34 C
928 14-04-2020 05:15:00 0.6 C 80 % -2.44 C
929 14-04-2020 05:20:00 0.6 C 81 % -2.28 C
930 14-04-2020 05:25:00 0.6 C 81 % -2.28 C
931 14-04-2020 05:30:00 0.7 C 82 % -2.01 C
932 14-04-2020 05:35:00 0.8 C 82 % -1.91 C
933 14-04-2020 05:40:00 0.8 C 82 % -1.91 C
934 14-04-2020 05:45:00 0.9 C 82 % -1.82 C
935 14-04-2020 05:50:00 1 C 82 % -1.72 C
936 14-04-2020 05:55:00 0.9 C 82 % -1.82 C
937 14-04-2020 06:00:00 0.8 C 82 % -1.91 C
938 14-04-2020 06:05:00 0.7 C 82 % -2.01 C
939 14-04-2020 06:10:00 0.6 C 82 % -2.11 C
940 14-04-2020 06:15:00 0.4 C 82 % -2.3 C
941 14-04-2020 06:20:00 0.3 C 83 % -2.24 C
942 14-04-2020 06:25:00 0.2 C 84 % -2.18 C
943 14-04-2020 06:30:00 0.2 C 84 % -2.18 C
944 14-04-2020 06:35:00 0.2 C 85 % -2.02 C
945 14-04-2020 06:40:00 0.2 C 85 % -2.02 C
946 14-04-2020 06:45:00 0.3 C 86 % -1.76 C
947 14-04-2020 06:50:00 0.5 C 86 % -1.56 C
948 14-04-2020 06:55:00 0.6 C 86 % -1.46 C
949 14-04-2020 07:00:00 0.7 C 86 % -1.37 C
950 14-04-2020 07:05:00 0.8 C 86 % -1.27 C
Sensor: Nr:Datum:Temp:Feuchte:Taupunkt:
Aussen-T/F 951 14-04-2020 07:10:00 0.9 C 85 % -1.33 C
952 14-04-2020 07:15:00 0.9 C 85 % -1.33 C
953 14-04-2020 07:20:00 1.1 C 85 % -1.13 C
954 14-04-2020 07:25:00 1.2 C 85 % -1.03 C
955 14-04-2020 07:30:00 1.4 C 85 % -0.84 C
956 14-04-2020 07:35:00 1.5 C 84 % -0.9 C
957 14-04-2020 07:40:00 1.6 C 84 % -0.8 C
958 14-04-2020 07:45:00 1.8 C 84 % -0.61 C
959 14-04-2020 07:50:00 1.9 C 83 % -0.67 C
960 14-04-2020 07:55:00 2.1 C 83 % -0.48 C
961 14-04-2020 08:00:00 2.2 C 83 % -0.38 C
962 14-04-2020 08:05:00 2.3 C 83 % -0.28 C
963 14-04-2020 08:10:00 2.4 C 83 % -0.18 C
964 14-04-2020 08:15:00 2.5 C 82 % -0.25 C
965 14-04-2020 08:20:00 2.6 C 82 % -0.16 C
966 14-04-2020 08:25:00 2.6 C 82 % -0.16 C
967 14-04-2020 08:30:00 2.6 C 83 % 0.01 C
968 14-04-2020 08:35:00 2.6 C 83 % 0.01 C
969 14-04-2020 08:40:00 2.6 C 83 % 0.01 C
970 14-04-2020 08:45:00 2.6 C 83 % 0.01 C
971 14-04-2020 08:50:00 2.7 C 83 % 0.11 C
972 14-04-2020 08:55:00 2.8 C 83 % 0.21 C
973 14-04-2020 09:00:00 2.9 C 82 % 0.14 C
974 14-04-2020 09:05:00 3.1 C 82 % 0.33 C
975 14-04-2020 09:10:00 3.3 C 82 % 0.53 C
Sensor: Nr:Datum:Temp:Feuchte:Taupunkt:
Aussen-T/F 976 14-04-2020 09:15:00 3.6 C 80 % 0.48 C
977 14-04-2020 09:20:00 3.9 C 79 % 0.6 C
978 14-04-2020 09:25:00 4.3 C 79 % 0.99 C
979 14-04-2020 09:30:00 4.6 C 77 % 0.92 C
980 14-04-2020 09:35:00 4.9 C 75 % 0.85 C
981 14-04-2020 09:40:00 5.1 C 74 % 0.86 C
982 14-04-2020 09:45:00 5.2 C 73 % 0.77 C
983 14-04-2020 09:50:00 5.4 C 72 % 0.77 C
984 14-04-2020 09:55:00 5.6 C 72 % 0.96 C
985 14-04-2020 10:00:00 5.9 C 70 % 0.86 C
986 14-04-2020 10:05:00 6.1 C 70 % 1.05 C
987 14-04-2020 10:10:00 6.2 C 69 % 0.95 C
988 14-04-2020 10:15:00 6.1 C 68 % 0.65 C
989 14-04-2020 10:20:00 6.1 C 68 % 0.65 C
990 14-04-2020 10:25:00 6.1 C 68 % 0.65 C
991 14-04-2020 10:30:00 6.2 C 68 % 0.75 C
992 14-04-2020 10:35:00 6.4 C 68 % 0.94 C
993 14-04-2020 10:40:00 6.7 C 64 % 0.38 C
994 14-04-2020 10:45:00 6.9 C 64 % 0.57 C
995 14-04-2020 10:50:00 7.2 C 63 % 0.64 C
996 14-04-2020 10:55:00 7.4 C 62 % 0.61 C
997 14-04-2020 11:00:00 7.6 C 60 % 0.35 C
998 14-04-2020 11:05:00 7.6 C 60 % 0.35 C
999 14-04-2020 11:10:00 7.6 C 58 % -0.12 C
1000 14-04-2020 11:15:00 7.6 C 55 % -0.85 C
Sensor: Nr:Datum:Temp:Feuchte:Taupunkt:
Aussen-T/F 1001 14-04-2020 11:20:00 7.7 C 56 % -0.51 C
1002 14-04-2020 11:25:00 7.7 C 56 % -0.51 C
1003 14-04-2020 11:30:00 7.6 C 56 % -0.6 C
1004 14-04-2020 11:35:00 7.7 C 56 % -0.51 C
1005 14-04-2020 11:40:00 8 C 53 % -0.98 C
1006 14-04-2020 11:45:00 8.2 C 53 % -0.8 C
1007 14-04-2020 11:50:00 8 C 53 % -0.98 C
1008 14-04-2020 11:55:00 7.9 C 53 % -1.07 C
1009 14-04-2020 12:00:00 7.9 C 54 % -0.82 C
1010 14-04-2020 12:05:00 8 C 54 % -0.73 C
1011 14-04-2020 12:10:00 8 C 55 % -0.47 C
1012 14-04-2020 12:15:00 8 C 56 % -0.23 C
1013 14-04-2020 12:20:00 8.1 C 56 % -0.13 C
1014 14-04-2020 12:25:00 8.1 C 55 % -0.38 C
1015 14-04-2020 12:30:00 8.1 C 54 % -0.63 C
1016 14-04-2020 12:35:00 8.1 C 55 % -0.38 C
1017 14-04-2020 12:40:00 8.3 C 54 % -0.45 C
1018 14-04-2020 12:45:00 8.4 C 53 % -0.61 C
1019 14-04-2020 12:50:00 8.6 C 53 % -0.42 C
1020 14-04-2020 12:55:00 8.7 C 52 % -0.59 C
1021 14-04-2020 13:00:00 8.7 C 51 % -0.86 C
1022 14-04-2020 13:05:00 8.8 C 53 % -0.24 C
1023 14-04-2020 13:10:00 8.9 C 53 % -0.15 C
1024 14-04-2020 13:15:00 8.9 C 53 % -0.15 C
1025 14-04-2020 13:20:00 8.9 C 54 % 0.11 C
Sensor: Nr:Datum:Temp:Feuchte:Taupunkt:
Aussen-T/F 1026 14-04-2020 13:25:00 9.1 C 54 % 0.3 C
1027 14-04-2020 13:30:00 9.2 C 52 % -0.13 C
1028 14-04-2020 13:35:00 9.2 C 52 % -0.13 C
1029 14-04-2020 13:40:00 9.3 C 53 % 0.23 C
1030 14-04-2020 13:45:00 9.3 C 50 % -0.57 C
1031 14-04-2020 13:50:00 9.1 C 50 % -0.76 C
1032 14-04-2020 13:55:00 9 C 52 % -0.31 C
1033 14-04-2020 14:00:00 9.1 C 52 % -0.22 C
1034 14-04-2020 14:05:00 9.2 C 51 % -0.4 C
1035 14-04-2020 14:10:00 9.3 C 50 % -0.57 C
1036 14-04-2020 14:15:00 9.6 C 49 % -0.57 C
1037 14-04-2020 14:20:00 9.8 C 51 % 0.16 C
1038 14-04-2020 14:25:00 10.2 C 48 % -0.31 C
1039 14-04-2020 14:30:00 10.1 C 48 % -0.4 C
1040 14-04-2020 14:35:00 10.2 C 48 % -0.31 C
1041 14-04-2020 14:40:00 10.2 C 48 % -0.31 C
1042 14-04-2020 14:45:00 10.2 C 48 % -0.31 C
1043 14-04-2020 14:50:00 10.3 C 48 % -0.21 C
1044 14-04-2020 14:55:00 10.4 C 48 % -0.12 C
1045 14-04-2020 15:00:00 10.4 C 48 % -0.12 C
1046 14-04-2020 15:05:00 10.4 C 47 % -0.41 C
1047 14-04-2020 15:10:00 10.6 C 48 % 0.06 C
1048 14-04-2020 15:15:00 10.8 C 47 % -0.04 C
1049 14-04-2020 15:20:00 10.9 C 46 % -0.25 C
1050 14-04-2020 15:25:00 10.8 C 46 % -0.34 C
Sensor: Nr:Datum:Temp:Feuchte:Taupunkt:
Aussen-T/F 1051 14-04-2020 15:30:00 10.7 C 45 % -0.73 C
1052 14-04-2020 15:35:00 10.9 C 47 % 0.05 C
1053 14-04-2020 15:40:00 11.2 C 47 % 0.32 C
1054 14-04-2020 15:45:00 11.2 C 45 % -0.28 C
1055 14-04-2020 15:50:00 11.2 C 45 % -0.28 C
1056 14-04-2020 15:55:00 11.1 C 45 % -0.37 C
1057 14-04-2020 16:00:00 11.2 C 46 % 0.02 C
1058 14-04-2020 16:05:00 11.3 C 45 % -0.19 C
1059 14-04-2020 16:10:00 11.3 C 46 % 0.12 C
1060 14-04-2020 16:15:00 11.6 C 46 % 0.39 C
1061 14-04-2020 16:20:00 12 C 45 % 0.45 C
1062 14-04-2020 16:25:00 12.1 C 42 % -0.41 C
1063 14-04-2020 16:30:00 11.8 C 43 % -0.36 C
1064 14-04-2020 16:35:00 11.8 C 45 % 0.27 C
1065 14-04-2020 16:40:00 11.8 C 45 % 0.27 C
1066 14-04-2020 16:45:00 11.9 C 45 % 0.36 C
1067 14-04-2020 16:50:00 12.4 C 45 % 0.81 C
1068 14-04-2020 16:55:00 12.7 C 42 % 0.13 C
1069 14-04-2020 17:00:00 12.4 C 43 % 0.19 C
1070 14-04-2020 17:05:00 11.7 C 43 % -0.45 C
1071 14-04-2020 17:10:00 11.4 C 45 % -0.09 C
1072 14-04-2020 17:15:00 11.6 C 45 % 0.09 C
1073 14-04-2020 17:20:00 12.2 C 43 % 0.01 C
1074 14-04-2020 17:25:00 12.5 C 42 % -0.05 C
1075 14-04-2020 17:30:00 12.5 C 41 % -0.38 C
Sensor: Nr:Datum:Temp:Feuchte:Taupunkt:
Aussen-T/F 1076 14-04-2020 17:35:00 12.5 C 41 % -0.38 C
1077 14-04-2020 17:40:00 12.6 C 42 % 0.04 C
1078 14-04-2020 17:45:00 12.6 C 42 % 0.04 C
1079 14-04-2020 17:50:00 12.6 C 43 % 0.37 C
1080 14-04-2020 17:55:00 12.9 C 42 % 0.31 C
1081 14-04-2020 18:00:00 13 C 42 % 0.41 C
1082 14-04-2020 18:05:00 13 C 41 % 0.07 C
1083 14-04-2020 18:10:00 12.9 C 41 % -0.02 C
1084 14-04-2020 18:15:00 12.8 C 41 % -0.11 C
1085 14-04-2020 18:20:00 12.8 C 41 % -0.11 C
1086 14-04-2020 18:25:00 12.8 C 42 % 0.22 C
1087 14-04-2020 18:30:00 12.8 C 41 % -0.11 C
1088 14-04-2020 18:35:00 12.7 C 42 % 0.13 C
1089 14-04-2020 18:40:00 12.8 C 42 % 0.22 C
1090 14-04-2020 18:45:00 12.8 C 42 % 0.22 C
1091 14-04-2020 18:50:00 12.7 C 41 % -0.2 C
1092 14-04-2020 18:55:00 12.4 C 42 % -0.14 C
1093 14-04-2020 19:00:00 12.4 C 42 % -0.14 C
1094 14-04-2020 19:05:00 12.3 C 42 % -0.23 C
1095 14-04-2020 19:10:00 12.2 C 43 % 0.01 C
1096 14-04-2020 19:15:00 11.9 C 42 % -0.59 C
1097 14-04-2020 19:20:00 11.7 C 43 % -0.45 C
1098 14-04-2020 19:25:00 11.4 C 43 % -0.72 C
1099 14-04-2020 19:30:00 11.2 C 45 % -0.28 C
1100 14-04-2020 19:35:00 11.1 C 46 % -0.07 C
Sensor: Nr:Datum:Temp:Feuchte:Taupunkt:
Aussen-T/F 1101 14-04-2020 19:40:00 10.9 C 47 % 0.05 C
1102 14-04-2020 19:45:00 10.8 C 47 % -0.04 C
1103 14-04-2020 19:50:00 10.7 C 47 % -0.14 C
1104 14-04-2020 19:55:00 10.6 C 48 % 0.06 C
1105 14-04-2020 20:00:00 10.4 C 48 % -0.12 C
1106 14-04-2020 20:05:00 10.2 C 50 % 0.26 C
1107 14-04-2020 20:10:00 10 C 49 % -0.21 C
1108 14-04-2020 20:15:00 9.8 C 50 % -0.11 C
1109 14-04-2020 20:20:00 9.7 C 54 % 0.86 C
1110 14-04-2020 20:25:00 9.3 C 55 % 0.74 C
1111 14-04-2020 20:30:00 8.8 C 56 % 0.52 C
1112 14-04-2020 20:35:00 8.3 C 58 % 0.54 C
1113 14-04-2020 20:40:00 7.9 C 61 % 0.86 C
1114 14-04-2020 20:45:00 7.4 C 61 % 0.38 C
1115 14-04-2020 20:50:00 7.2 C 62 % 0.42 C
1116 14-04-2020 20:55:00 7 C 63 % 0.45 C
1117 14-04-2020 21:00:00 6.8 C 64 % 0.48 C
1118 14-04-2020 21:05:00 6.7 C 64 % 0.38 C
1119 14-04-2020 21:10:00 6.5 C 65 % 0.41 C
1120 14-04-2020 21:15:00 6.3 C 66 % 0.43 C
1121 14-04-2020 21:20:00 6.2 C 66 % 0.33 C
1122 14-04-2020 21:25:00 6.1 C 67 % 0.44 C
1123 14-04-2020 21:30:00 6 C 68 % 0.55 C
1124 14-04-2020 21:35:00 5.9 C 69 % 0.66 C
1125 14-04-2020 21:40:00 5.8 C 69 % 0.56 C
Sensor: Nr:Datum:Temp:Feuchte:Taupunkt:
Aussen-T/F 1126 14-04-2020 21:45:00 5.7 C 69 % 0.47 C
1127 14-04-2020 21:50:00 5.7 C 69 % 0.47 C
1128 14-04-2020 21:55:00 5.6 C 69 % 0.37 C
1129 14-04-2020 22:00:00 5.6 C 69 % 0.37 C
1130 14-04-2020 22:05:00 5.6 C 70 % 0.57 C
1131 14-04-2020 22:10:00 5.5 C 70 % 0.48 C
1132 14-04-2020 22:15:00 5.4 C 70 % 0.38 C
1133 14-04-2020 22:20:00 5.3 C 70 % 0.28 C
1134 14-04-2020 22:25:00 5.4 C 71 % 0.58 C
1135 14-04-2020 22:30:00 5.4 C 70 % 0.38 C
1136 14-04-2020 22:35:00 5.4 C 70 % 0.38 C
1137 14-04-2020 22:40:00 5.3 C 70 % 0.28 C
1138 14-04-2020 22:45:00 5.3 C 71 % 0.48 C
1139 14-04-2020 22:50:00 5.2 C 71 % 0.38 C
1140 14-04-2020 22:55:00 5 C 72 % 0.38 C
1141 14-04-2020 23:00:00 4.9 C 72 % 0.29 C
1142 14-04-2020 23:05:00 4.8 C 73 % 0.38 C
1143 14-04-2020 23:10:00 4.7 C 74 % 0.47 C
1144 14-04-2020 23:15:00 4.5 C 74 % 0.28 C
1145 14-04-2020 23:20:00 4.3 C 74 % 0.09 C
1146 14-04-2020 23:25:00 4.2 C 75 % 0.17 C
1147 14-04-2020 23:30:00 4.1 C 76 % 0.26 C
1148 14-04-2020 23:35:00 3.9 C 77 % 0.25 C
1149 14-04-2020 23:40:00 3.8 C 77 % 0.15 C
1150 14-04-2020 23:45:00 3.7 C 77 % 0.05 C
Sensor: Nr:Datum:Temp:Feuchte:Taupunkt:
Aussen-T/F 1151 14-04-2020 23:50:00 3.6 C 78 % 0.13 C
1152 14-04-2020 23:55:00 3.6 C 78 % 0.13 C
1153 15-04-2020 00:00:00 3.4 C 78 % -0.06 C
1154 15-04-2020 00:05:00 3.3 C 79 % 0.02 C
1155 15-04-2020 00:10:00 3.2 C 79 % -0.08 C
1156 15-04-2020 00:15:00 3.1 C 79 % -0.18 C
1157 15-04-2020 00:20:00 3.1 C 79 % -0.18 C
1158 15-04-2020 00:25:00 2.9 C 80 % -0.2 C
1159 15-04-2020 00:30:00 2.8 C 80 % -0.3 C
1160 15-04-2020 00:35:00 2.8 C 80 % -0.3 C
1161 15-04-2020 00:40:00 2.7 C 80 % -0.4 C
1162 15-04-2020 00:45:00 2.6 C 81 % -0.32 C
1163 15-04-2020 00:50:00 2.5 C 82 % -0.25 C
1164 15-04-2020 00:55:00 2.4 C 82 % -0.35 C
1165 15-04-2020 01:00:00 2.4 C 82 % -0.35 C
1166 15-04-2020 01:05:00 2.4 C 82 % -0.35 C
1167 15-04-2020 01:10:00 2.3 C 82 % -0.45 C
1168 15-04-2020 01:15:00 2.3 C 82 % -0.45 C
1169 15-04-2020 01:20:00 2.2 C 83 % -0.38 C
1170 15-04-2020 01:25:00 2.1 C 83 % -0.48 C
1171 15-04-2020 01:30:00 2 C 83 % -0.58 C
1172 15-04-2020 01:35:00 1.9 C 83 % -0.67 C
1173 15-04-2020 01:40:00 1.9 C 84 % -0.51 C
1174 15-04-2020 01:45:00 1.9 C 84 % -0.51 C
1175 15-04-2020 01:50:00 1.8 C 84 % -0.61 C
Sensor: Nr:Datum:Temp:Feuchte:Taupunkt:
Aussen-T/F 1176 15-04-2020 01:55:00 1.7 C 84 % -0.71 C
1177 15-04-2020 02:00:00 1.7 C 84 % -0.71 C
1178 15-04-2020 02:05:00 1.6 C 84 % -0.8 C
1179 15-04-2020 02:10:00 1.6 C 85 % -0.64 C
1180 15-04-2020 02:15:00 1.6 C 85 % -0.64 C
1181 15-04-2020 02:20:00 1.5 C 85 % -0.74 C
1182 15-04-2020 02:25:00 1.4 C 85 % -0.84 C
1183 15-04-2020 02:30:00 1.4 C 86 % -0.68 C
1184 15-04-2020 02:35:00 1.3 C 86 % -0.78 C
1185 15-04-2020 02:40:00 1.3 C 86 % -0.78 C
1186 15-04-2020 02:45:00 1.3 C 86 % -0.78 C
1187 15-04-2020 02:50:00 1.2 C 86 % -0.88 C
1188 15-04-2020 02:55:00 1.1 C 86 % -0.97 C
1189 15-04-2020 03:00:00 1.1 C 87 % -0.82 C
1190 15-04-2020 03:05:00 1.1 C 87 % -0.82 C
1191 15-04-2020 03:10:00 1 C 87 % -0.91 C
1192 15-04-2020 03:15:00 0.9 C 87 % -1.01 C
1193 15-04-2020 03:20:00 0.9 C 87 % -1.01 C
1194 15-04-2020 03:25:00 0.8 C 87 % -1.11 C
1195 15-04-2020 03:30:00 0.8 C 87 % -1.11 C
1196 15-04-2020 03:35:00 0.8 C 88 % -0.96 C
1197 15-04-2020 03:40:00 0.7 C 88 % -1.05 C
1198 15-04-2020 03:45:00 0.7 C 88 % -1.05 C
1199 15-04-2020 03:50:00 0.7 C 88 % -1.05 C
1200 15-04-2020 03:55:00 0.7 C 88 % -1.05 C
Sensor: Nr:Datum:Temp:Feuchte:Taupunkt:
Aussen-T/F 1201 15-04-2020 04:00:00 0.6 C 88 % -1.15 C
1202 15-04-2020 04:05:00 0.6 C 88 % -1.15 C
1203 15-04-2020 04:10:00 0.6 C 88 % -1.15 C
1204 15-04-2020 04:15:00 0.6 C 89 % -1 C
1205 15-04-2020 04:20:00 0.6 C 89 % -1 C
1206 15-04-2020 04:25:00 0.6 C 89 % -1 C
1207 15-04-2020 04:30:00 0.6 C 89 % -1 C
1208 15-04-2020 04:35:00 0.5 C 89 % -1.1 C
1209 15-04-2020 04:40:00 0.5 C 89 % -1.1 C
1210 15-04-2020 04:45:00 0.4 C 89 % -1.2 C
1211 15-04-2020 04:50:00 0.4 C 89 % -1.2 C
1212 15-04-2020 04:55:00 0.4 C 89 % -1.2 C
1213 15-04-2020 05:00:00 0.4 C 89 % -1.2 C
1214 15-04-2020 05:05:00 0.4 C 90 % -1.04 C
1215 15-04-2020 05:10:00 0.4 C 90 % -1.04 C
1216 15-04-2020 05:15:00 0.4 C 90 % -1.04 C
1217 15-04-2020 05:20:00 0.4 C 90 % -1.04 C
1218 15-04-2020 05:25:00 0.3 C 90 % -1.14 C
1219 15-04-2020 05:30:00 0.3 C 90 % -1.14 C
1220 15-04-2020 05:35:00 0.3 C 90 % -1.14 C
1221 15-04-2020 05:40:00 0.3 C 90 % -1.14 C
1222 15-04-2020 05:45:00 0.3 C 90 % -1.14 C
1223 15-04-2020 05:50:00 0.2 C 90 % -1.24 C
1224 15-04-2020 05:55:00 0.2 C 90 % -1.24 C
1225 15-04-2020 06:00:00 0.1 C 90 % -1.34 C
Sensor: Nr:Datum:Temp:Feuchte:Taupunkt:
Aussen-T/F 1226 15-04-2020 06:05:00 0.1 C 90 % -1.34 C
1227 15-04-2020 06:10:00 0.1 C 90 % -1.34 C
1228 15-04-2020 06:15:00 0.1 C 90 % -1.34 C
1229 15-04-2020 06:20:00 0.1 C 91 % -1.19 C
1230 15-04-2020 06:25:00 0.2 C 91 % -1.09 C
1231 15-04-2020 06:30:00 0.2 C 91 % -1.09 C
1232 15-04-2020 06:35:00 0.2 C 91 % -1.09 C
1233 15-04-2020 06:40:00 0.1 C 91 % -1.19 C
1234 15-04-2020 06:45:00 0.1 C 91 % -1.19 C
1235 15-04-2020 06:50:00 0 C 91 % -1.29 C
1236 15-04-2020 06:55:00 -0.1 C 91 % -1.39 C
1237 15-04-2020 07:00:00 -0.1 C 91 % -1.39 C
1238 15-04-2020 07:05:00 -0.1 C 91 % -1.39 C
1239 15-04-2020 07:10:00 -0.1 C 91 % -1.39 C
1240 15-04-2020 07:15:00 0 C 92 % -1.14 C
1241 15-04-2020 07:20:00 0.1 C 92 % -1.04 C
1242 15-04-2020 07:25:00 0.1 C 92 % -1.04 C
1243 15-04-2020 07:30:00 0.2 C 92 % -0.94 C
1244 15-04-2020 07:35:00 0.3 C 92 % -0.84 C
1245 15-04-2020 07:40:00 0.4 C 92 % -0.74 C
1246 15-04-2020 07:45:00 0.5 C 92 % -0.65 C
1247 15-04-2020 07:50:00 0.6 C 92 % -0.55 C
1248 15-04-2020 07:55:00 0.7 C 92 % -0.45 C
1249 15-04-2020 08:00:00 0.8 C 92 % -0.35 C
1250 15-04-2020 08:05:00 0.9 C 92 % -0.25 C
Sensor: Nr:Datum:Temp:Feuchte:Taupunkt:
Aussen-T/F 1251 15-04-2020 08:10:00 1.1 C 92 % -0.05 C
1252 15-04-2020 08:15:00 1.2 C 92 % 0.05 C
1253 15-04-2020 08:20:00 1.3 C 91 % 0 C
1254 15-04-2020 08:25:00 1.4 C 91 % 0.1 C
1255 15-04-2020 08:30:00 1.5 C 91 % 0.19 C
1256 15-04-2020 08:35:00 1.6 C 91 % 0.29 C
1257 15-04-2020 08:40:00 1.8 C 90 % 0.34 C
1258 15-04-2020 08:45:00 1.9 C 90 % 0.44 C
1259 15-04-2020 08:50:00 2.1 C 89 % 0.48 C
1260 15-04-2020 08:55:00 2.2 C 89 % 0.58 C
1261 15-04-2020 09:00:00 2.4 C 88 % 0.62 C
1262 15-04-2020 09:05:00 2.6 C 87 % 0.66 C
1263 15-04-2020 09:10:00 2.7 C 86 % 0.6 C
1264 15-04-2020 09:15:00 2.8 C 86 % 0.7 C
1265 15-04-2020 09:20:00 3 C 86 % 0.89 C
1266 15-04-2020 09:25:00 3.2 C 85 % 0.93 C
1267 15-04-2020 09:30:00 3.3 C 85 % 1.03 C
1268 15-04-2020 09:35:00 3.5 C 84 % 1.06 C
1269 15-04-2020 09:40:00 3.7 C 83 % 1.09 C
1270 15-04-2020 09:45:00 3.9 C 83 % 1.28 C
1271 15-04-2020 09:50:00 4.1 C 82 % 1.31 C
1272 15-04-2020 09:55:00 4.3 C 81 % 1.34 C
1273 15-04-2020 10:00:00 4.6 C 81 % 1.63 C
1274 15-04-2020 10:05:00 4.8 C 80 % 1.65 C
1275 15-04-2020 10:10:00 4.9 C 80 % 1.75 C
Sensor: Nr:Datum:Temp:Feuchte:Taupunkt:
Aussen-T/F 1276 15-04-2020 10:15:00 5.2 C 78 % 1.69 C
1277 15-04-2020 10:20:00 5.4 C 78 % 1.88 C
1278 15-04-2020 10:25:00 5.7 C 78 % 2.17 C
1279 15-04-2020 10:30:00 5.9 C 77 % 2.19 C
1280 15-04-2020 10:35:00 6.2 C 77 % 2.48 C
1281 15-04-2020 10:40:00 6.4 C 74 % 2.11 C
1282 15-04-2020 10:45:00 6.6 C 75 % 2.49 C
1283 15-04-2020 10:50:00 6.9 C 73 % 2.4 C
1284 15-04-2020 10:55:00 7.2 C 73 % 2.69 C
1285 15-04-2020 11:00:00 7.4 C 72 % 2.69 C
1286 15-04-2020 11:05:00 7.8 C 72 % 3.08 C
1287 15-04-2020 11:10:00 8.1 C 70 % 2.97 C
1288 15-04-2020 11:15:00 8.4 C 70 % 3.26 C
1289 15-04-2020 11:20:00 8.8 C 68 % 3.23 C
1290 15-04-2020 11:25:00 9.1 C 67 % 3.31 C
1291 15-04-2020 11:30:00 9.4 C 67 % 3.59 C
1292 15-04-2020 11:35:00 9.8 C 62 % 2.88 C
1293 15-04-2020 11:40:00 10.2 C 60 % 2.79 C
1294 15-04-2020 11:45:00 10.6 C 54 % 1.69 C
1295 15-04-2020 11:50:00 10.9 C 52 % 1.44 C
1296 15-04-2020 11:55:00 11.3 C 50 % 1.27 C
1297 15-04-2020 12:00:00 11.7 C 50 % 1.64 C
1298 15-04-2020 12:05:00 11.9 C 47 % 0.96 C
1299 15-04-2020 12:10:00 12.2 C 47 % 1.24 C
1300 15-04-2020 12:15:00 12.3 C 46 % 1.03 C
Sensor: Nr:Datum:Temp:Feuchte:Taupunkt:
Aussen-T/F 1301 15-04-2020 12:20:00 12.4 C 47 % 1.42 C
1302 15-04-2020 12:25:00 12.6 C 46 % 1.3 C
1303 15-04-2020 12:30:00 12.7 C 46 % 1.39 C
1304 15-04-2020 12:35:00 12.9 C 47 % 1.87 C
1305 15-04-2020 12:40:00 13.1 C 46 % 1.76 C
1306 15-04-2020 12:45:00 13.2 C 47 % 2.15 C
1307 15-04-2020 12:50:00 13.3 C 47 % 2.24 C
1308 15-04-2020 12:55:00 13.3 C 46 % 1.94 C
1309 15-04-2020 13:00:00 13.3 C 46 % 1.94 C
1310 15-04-2020 13:05:00 13.4 C 45 % 1.72 C
1311 15-04-2020 13:10:00 13.4 C 45 % 1.72 C
1312 15-04-2020 13:15:00 13.6 C 44 % 1.59 C
1313 15-04-2020 13:20:00 13.6 C 44 % 1.59 C
1314 15-04-2020 13:25:00 13.7 C 44 % 1.68 C
1315 15-04-2020 13:30:00 13.9 C 44 % 1.86 C
1316 15-04-2020 13:35:00 14.2 C 43 % 1.81 C
1317 15-04-2020 13:40:00 14.3 C 42 % 1.58 C
1318 15-04-2020 13:45:00 14.4 C 41 % 1.33 C
1319 15-04-2020 13:50:00 14.6 C 41 % 1.51 C
1320 15-04-2020 13:55:00 14.6 C 42 % 1.85 C
1321 15-04-2020 14:00:00 14.7 C 41 % 1.6 C
1322 15-04-2020 14:05:00 14.9 C 41 % 1.78 C
1323 15-04-2020 14:10:00 15.1 C 39 % 1.26 C
1324 15-04-2020 14:15:00 15.2 C 40 % 1.71 C
1325 15-04-2020 14:20:00 15.4 C 38 % 1.17 C
Sensor: Nr:Datum:Temp:Feuchte:Taupunkt:
Aussen-T/F 1326 15-04-2020 14:25:00 15.4 C 40 % 1.89 C
1327 15-04-2020 14:30:00 15.6 C 39 % 1.71 C
1328 15-04-2020 14:35:00 15.7 C 39 % 1.8 C
1329 15-04-2020 14:40:00 15.9 C 38 % 1.62 C
1330 15-04-2020 14:45:00 16.1 C 39 % 2.16 C
1331 15-04-2020 14:50:00 16.2 C 37 % 1.51 C
1332 15-04-2020 14:55:00 16.3 C 38 % 1.97 C
1333 15-04-2020 15:00:00 16.5 C 38 % 2.15 C
1334 15-04-2020 15:05:00 16.6 C 37 % 1.87 C
1335 15-04-2020 15:10:00 16.6 C 36 % 1.49 C
1336 15-04-2020 15:15:00 16.6 C 37 % 1.87 C
1337 15-04-2020 15:20:00 16.7 C 36 % 1.57 C
1338 15-04-2020 15:25:00 16.9 C 39 % 2.87 C
1339 15-04-2020 15:30:00 17.3 C 39 % 3.23 C
1340 15-04-2020 15:35:00 17.5 C 37 % 2.67 C
1341 15-04-2020 15:40:00 17.5 C 36 % 2.28 C
1342 15-04-2020 15:45:00 17.6 C 38 % 3.13 C
1343 15-04-2020 15:50:00 17.7 C 37 % 2.84 C
1344 15-04-2020 15:55:00 17.7 C 36 % 2.46 C
1345 15-04-2020 16:00:00 17.8 C 37 % 2.93 C
1346 15-04-2020 16:05:00 17.8 C 35 % 2.15 C
1347 15-04-2020 16:10:00 17.9 C 36 % 2.63 C
1348 15-04-2020 16:15:00 18.3 C 35 % 2.59 C
1349 15-04-2020 16:20:00 18.6 C 35 % 2.86 C
1350 15-04-2020 16:25:00 18.8 C 34 % 2.62 C
Sensor: Nr:Datum:Temp:Feuchte:Taupunkt:
Aussen-T/F 1351 15-04-2020 16:30:00 19.2 C 35 % 3.38 C
1352 15-04-2020 16:35:00 19.4 C 33 % 2.73 C
1353 15-04-2020 16:40:00 19.6 C 32 % 2.47 C
1354 15-04-2020 16:45:00 19.6 C 35 % 3.74 C
1355 15-04-2020 16:50:00 19.8 C 32 % 2.65 C
1356 15-04-2020 16:55:00 20.1 C 30 % 2 C
1357 15-04-2020 17:00:00 20.1 C 32 % 2.91 C
1358 15-04-2020 17:05:00 20.2 C 32 % 3 C
1359 15-04-2020 17:10:00 20.3 C 32 % 3.08 C
1360 15-04-2020 17:15:00 20.4 C 31 % 2.72 C
1361 15-04-2020 17:20:00 20.6 C 31 % 2.9 C
1362 15-04-2020 17:25:00 20.6 C 31 % 2.9 C
1363 15-04-2020 17:30:00 20.5 C 32 % 3.26 C
1364 15-04-2020 17:35:00 20.5 C 30 % 2.35 C
1365 15-04-2020 17:40:00 20.6 C 31 % 2.9 C
1366 15-04-2020 17:45:00 20.6 C 30 % 2.44 C
1367 15-04-2020 17:50:00 20.6 C 31 % 2.9 C
1368 15-04-2020 17:55:00 20.7 C 34 % 4.29 C
1369 15-04-2020 18:00:00 20.9 C 32 % 3.61 C
1370 15-04-2020 18:05:00 20.8 C 34 % 4.38 C
1371 15-04-2020 18:10:00 20.3 C 31 % 2.64 C
1372 15-04-2020 18:15:00 20.3 C 36 % 4.76 C
1373 15-04-2020 18:20:00 20.2 C 32 % 3 C
1374 15-04-2020 18:25:00 19.9 C 33 % 3.17 C
1375 15-04-2020 18:30:00 19.8 C 34 % 3.5 C
Sensor: Nr:Datum:Temp:Feuchte:Taupunkt:
Aussen-T/F 1376 15-04-2020 18:35:00 19.9 C 33 % 3.17 C
1377 15-04-2020 18:40:00 20.2 C 31 % 2.55 C
1378 15-04-2020 18:45:00 20.2 C 31 % 2.55 C
1379 15-04-2020 18:50:00 20.3 C 32 % 3.08 C
1380 15-04-2020 18:55:00 20.5 C 31 % 2.81 C
1381 15-04-2020 19:00:00 20.5 C 32 % 3.26 C
1382 15-04-2020 19:05:00 20.3 C 32 % 3.08 C
1383 15-04-2020 19:10:00 20.2 C 32 % 3 C
1384 15-04-2020 19:15:00 20.2 C 33 % 3.43 C
1385 15-04-2020 19:20:00 19.9 C 33 % 3.17 C
1386 15-04-2020 19:25:00 19.6 C 32 % 2.47 C
1387 15-04-2020 19:30:00 19.2 C 34 % 2.98 C
1388 15-04-2020 19:35:00 18.8 C 37 % 3.82 C
1389 15-04-2020 19:40:00 18.5 C 34 % 2.36 C
1390 15-04-2020 19:45:00 18.1 C 36 % 2.81 C
1391 15-04-2020 19:50:00 17.7 C 40 % 3.95 C
1392 15-04-2020 19:55:00 17.2 C 43 % 4.53 C
1393 15-04-2020 20:00:00 16.6 C 44 % 4.31 C
1394 15-04-2020 20:05:00 15.9 C 46 % 4.31 C
1395 15-04-2020 20:10:00 15.2 C 47 % 3.98 C
1396 15-04-2020 20:15:00 14.7 C 48 % 3.82 C
1397 15-04-2020 20:20:00 14.2 C 48 % 3.36 C
1398 15-04-2020 20:25:00 13.8 C 50 % 3.57 C
1399 15-04-2020 20:30:00 13.5 C 51 % 3.57 C
1400 15-04-2020 20:35:00 13.2 C 52 % 3.57 C
Sensor: Nr:Datum:Temp:Feuchte:Taupunkt:
Aussen-T/F 1401 15-04-2020 20:40:00 12.9 C 51 % 3.02 C
1402 15-04-2020 20:45:00 12.7 C 51 % 2.84 C
1403 15-04-2020 20:50:00 12.5 C 52 % 2.92 C
1404 15-04-2020 20:55:00 12.4 C 53 % 3.1 C
1405 15-04-2020 21:00:00 12.2 C 55 % 3.44 C
1406 15-04-2020 21:05:00 11.9 C 56 % 3.41 C
1407 15-04-2020 21:10:00 11.7 C 57 % 3.48 C
1408 15-04-2020 21:15:00 11.4 C 57 % 3.2 C
1409 15-04-2020 21:20:00 11.3 C 58 % 3.35 C
1410 15-04-2020 21:25:00 11.2 C 58 % 3.25 C
1411 15-04-2020 21:30:00 11.1 C 60 % 3.64 C
1412 15-04-2020 21:35:00 10.9 C 60 % 3.45 C
1413 15-04-2020 21:40:00 10.7 C 61 % 3.5 C
1414 15-04-2020 21:45:00 10.4 C 61 % 3.21 C
1415 15-04-2020 21:50:00 10.3 C 63 % 3.58 C
1416 15-04-2020 21:55:00 10.1 C 64 % 3.61 C
1417 15-04-2020 22:00:00 9.8 C 65 % 3.54 C
1418 15-04-2020 22:05:00 9.6 C 65 % 3.35 C
1419 15-04-2020 22:10:00 9.5 C 66 % 3.47 C
1420 15-04-2020 22:15:00 9.4 C 67 % 3.59 C
1421 15-04-2020 22:20:00 9.3 C 67 % 3.5 C
1422 15-04-2020 22:25:00 9.2 C 68 % 3.61 C
1423 15-04-2020 22:30:00 9.1 C 68 % 3.52 C
1424 15-04-2020 22:35:00 8.9 C 68 % 3.32 C
1425 15-04-2020 22:40:00 8.8 C 67 % 3.02 C
Sensor: Nr:Datum:Temp:Feuchte:Taupunkt:
Aussen-T/F 1426 15-04-2020 22:45:00 8.7 C 67 % 2.92 C
1427 15-04-2020 22:50:00 8.6 C 68 % 3.04 C
1428 15-04-2020 22:55:00 8.4 C 69 % 3.05 C
1429 15-04-2020 23:00:00 8.3 C 70 % 3.16 C
1430 15-04-2020 23:05:00 8.1 C 69 % 2.77 C
1431 15-04-2020 23:10:00 7.9 C 70 % 2.78 C
1432 15-04-2020 23:15:00 7.8 C 70 % 2.68 C
1433 15-04-2020 23:20:00 7.8 C 70 % 2.68 C
1434 15-04-2020 23:25:00 7.7 C 70 % 2.58 C
1435 15-04-2020 23:30:00 7.6 C 72 % 2.88 C
1436 15-04-2020 23:35:00 7.5 C 71 % 2.59 C
1437 15-04-2020 23:40:00 7.3 C 71 % 2.4 C
1438 15-04-2020 23:45:00 7.3 C 72 % 2.6 C
1439 15-04-2020 23:50:00 7.2 C 73 % 2.69 C
1440 15-04-2020 23:55:00 7.1 C 73 % 2.6 C
1441 16-04-2020 00:00:00 7.1 C 73 % 2.6 C
1442 16-04-2020 00:05:00 7.1 C 74 % 2.79 C
1443 16-04-2020 00:10:00 6.9 C 75 % 2.78 C
1444 16-04-2020 00:15:00 6.8 C 75 % 2.69 C
1445 16-04-2020 00:20:00 6.7 C 75 % 2.59 C
1446 16-04-2020 00:25:00 6.6 C 75 % 2.49 C
1447 16-04-2020 00:30:00 6.4 C 76 % 2.49 C
1448 16-04-2020 00:35:00 6.4 C 76 % 2.49 C
1449 16-04-2020 00:40:00 6.2 C 77 % 2.48 C
1450 16-04-2020 00:45:00 6.1 C 77 % 2.38 C
Sensor: Nr:Datum:Temp:Feuchte:Taupunkt:
Aussen-T/F 1451 16-04-2020 00:50:00 6 C 77 % 2.28 C
1452 16-04-2020 00:55:00 5.9 C 77 % 2.19 C
1453 16-04-2020 01:00:00 5.8 C 77 % 2.09 C
1454 16-04-2020 01:05:00 5.8 C 78 % 2.27 C
1455 16-04-2020 01:10:00 5.7 C 78 % 2.17 C
1456 16-04-2020 01:15:00 5.7 C 78 % 2.17 C
1457 16-04-2020 01:20:00 5.7 C 78 % 2.17 C
1458 16-04-2020 01:25:00 5.7 C 78 % 2.17 C
1459 16-04-2020 01:30:00 5.7 C 78 % 2.17 C
1460 16-04-2020 01:35:00 5.7 C 78 % 2.17 C
1461 16-04-2020 01:40:00 5.7 C 79 % 2.35 C
1462 16-04-2020 01:45:00 5.7 C 79 % 2.35 C
1463 16-04-2020 01:50:00 5.6 C 79 % 2.25 C
1464 16-04-2020 01:55:00 5.6 C 80 % 2.43 C
1465 16-04-2020 02:00:00 5.4 C 80 % 2.23 C
1466 16-04-2020 02:05:00 5.4 C 80 % 2.23 C
1467 16-04-2020 02:10:00 5.3 C 80 % 2.14 C
1468 16-04-2020 02:15:00 5.2 C 80 % 2.04 C
1469 16-04-2020 02:20:00 5 C 81 % 2.02 C
1470 16-04-2020 02:25:00 4.9 C 81 % 1.92 C
1471 16-04-2020 02:30:00 4.8 C 81 % 1.82 C
1472 16-04-2020 02:35:00 4.7 C 82 % 1.9 C
1473 16-04-2020 02:40:00 4.6 C 82 % 1.8 C
1474 16-04-2020 02:45:00 4.6 C 83 % 1.97 C
1475 16-04-2020 02:50:00 4.5 C 83 % 1.87 C
Sensor: Nr:Datum:Temp:Feuchte:Taupunkt:
Aussen-T/F 1476 16-04-2020 02:55:00 4.4 C 83 % 1.77 C
1477 16-04-2020 03:00:00 4.3 C 83 % 1.67 C
1478 16-04-2020 03:05:00 4.3 C 84 % 1.84 C
1479 16-04-2020 03:10:00 4.3 C 84 % 1.84 C
1480 16-04-2020 03:15:00 4.2 C 84 % 1.74 C
1481 16-04-2020 03:20:00 4.1 C 84 % 1.65 C
1482 16-04-2020 03:25:00 4.1 C 84 % 1.65 C
1483 16-04-2020 03:30:00 4 C 84 % 1.55 C
1484 16-04-2020 03:35:00 4 C 85 % 1.71 C
1485 16-04-2020 03:40:00 3.9 C 85 % 1.61 C
1486 16-04-2020 03:45:00 3.9 C 85 % 1.61 C
1487 16-04-2020 03:50:00 3.8 C 85 % 1.52 C
1488 16-04-2020 03:55:00 3.8 C 85 % 1.52 C
1489 16-04-2020 04:00:00 3.7 C 85 % 1.42 C
1490 16-04-2020 04:05:00 3.7 C 86 % 1.58 C
1491 16-04-2020 04:10:00 3.8 C 86 % 1.68 C
1492 16-04-2020 04:15:00 3.7 C 86 % 1.58 C
1493 16-04-2020 04:20:00 3.7 C 86 % 1.58 C
1494 16-04-2020 04:25:00 3.6 C 86 % 1.48 C
1495 16-04-2020 04:30:00 3.6 C 86 % 1.48 C
1496 16-04-2020 04:35:00 3.5 C 86 % 1.38 C
1497 16-04-2020 04:40:00 3.6 C 87 % 1.64 C
1498 16-04-2020 04:45:00 3.6 C 87 % 1.64 C
1499 16-04-2020 04:50:00 3.5 C 87 % 1.55 C
1500 16-04-2020 04:55:00 3.4 C 87 % 1.45 C
Sensor: Nr:Datum:Temp:Feuchte:Taupunkt:
Aussen-T/F 1501 16-04-2020 05:00:00 3.4 C 87 % 1.45 C
1502 16-04-2020 05:05:00 3.4 C 87 % 1.45 C
1503 16-04-2020 05:10:00 3.3 C 88 % 1.51 C
1504 16-04-2020 05:15:00 3.3 C 88 % 1.51 C
1505 16-04-2020 05:20:00 3.2 C 88 % 1.41 C
1506 16-04-2020 05:25:00 3.2 C 88 % 1.41 C
1507 16-04-2020 05:30:00 3.2 C 88 % 1.41 C
1508 16-04-2020 05:35:00 3.1 C 88 % 1.31 C
1509 16-04-2020 05:40:00 3.1 C 88 % 1.31 C
1510 16-04-2020 05:45:00 2.9 C 88 % 1.11 C
1511 16-04-2020 05:50:00 2.8 C 88 % 1.02 C
1512 16-04-2020 05:55:00 2.8 C 89 % 1.17 C
1513 16-04-2020 06:00:00 2.9 C 89 % 1.27 C
1514 16-04-2020 06:05:00 2.9 C 89 % 1.27 C
1515 16-04-2020 06:10:00 2.8 C 89 % 1.17 C
1516 16-04-2020 06:15:00 2.8 C 89 % 1.17 C
1517 16-04-2020 06:20:00 2.7 C 89 % 1.07 C
1518 16-04-2020 06:25:00 2.7 C 89 % 1.07 C
1519 16-04-2020 06:30:00 2.6 C 89 % 0.97 C
1520 16-04-2020 06:35:00 2.5 C 89 % 0.88 C
1521 16-04-2020 06:40:00 2.4 C 89 % 0.78 C
1522 16-04-2020 06:45:00 2.4 C 90 % 0.93 C
1523 16-04-2020 06:50:00 2.4 C 90 % 0.93 C
1524 16-04-2020 06:55:00 2.4 C 90 % 0.93 C
1525 16-04-2020 07:00:00 2.4 C 90 % 0.93 C
Sensor: Nr:Datum:Temp:Feuchte:Taupunkt:
Aussen-T/F 1526 16-04-2020 07:05:00 2.4 C 90 % 0.93 C
1527 16-04-2020 07:10:00 2.4 C 90 % 0.93 C
1528 16-04-2020 07:15:00 2.4 C 91 % 1.08 C
1529 16-04-2020 07:20:00 2.6 C 91 % 1.28 C
1530 16-04-2020 07:25:00 2.6 C 91 % 1.28 C
1531 16-04-2020 07:30:00 2.6 C 91 % 1.28 C
1532 16-04-2020 07:35:00 2.7 C 91 % 1.38 C
1533 16-04-2020 07:40:00 2.7 C 91 % 1.38 C
1534 16-04-2020 07:45:00 2.7 C 91 % 1.38 C
1535 16-04-2020 07:50:00 2.7 C 91 % 1.38 C
1536 16-04-2020 07:55:00 2.8 C 91 % 1.48 C
1537 16-04-2020 08:00:00 2.9 C 91 % 1.58 C
1538 16-04-2020 08:05:00 2.9 C 91 % 1.58 C
1539 16-04-2020 08:10:00 3 C 92 % 1.83 C
1540 16-04-2020 08:15:00 3.1 C 92 % 1.93 C
1541 16-04-2020 08:20:00 3.2 C 92 % 2.03 C
1542 16-04-2020 08:25:00 3.3 C 92 % 2.13 C
1543 16-04-2020 08:30:00 3.3 C 92 % 2.13 C
1544 16-04-2020 08:35:00 3.4 C 92 % 2.23 C
1545 16-04-2020 08:40:00 3.6 C 91 % 2.27 C
1546 16-04-2020 08:45:00 3.6 C 91 % 2.27 C
1547 16-04-2020 08:50:00 3.7 C 91 % 2.37 C
1548 16-04-2020 08:55:00 3.8 C 91 % 2.47 C
1549 16-04-2020 09:00:00 3.9 C 91 % 2.57 C
1550 16-04-2020 09:05:00 4 C 91 % 2.67 C
Sensor: Nr:Datum:Temp:Feuchte:Taupunkt:
Aussen-T/F 1551 16-04-2020 09:10:00 4.1 C 91 % 2.77 C
1552 16-04-2020 09:15:00 4.3 C 91 % 2.96 C
1553 16-04-2020 09:20:00 4.4 C 91 % 3.06 C
1554 16-04-2020 09:25:00 4.6 C 91 % 3.26 C
1555 16-04-2020 09:30:00 4.8 C 90 % 3.3 C
1556 16-04-2020 09:35:00 5 C 90 % 3.5 C
1557 16-04-2020 09:40:00 5.2 C 90 % 3.7 C
1558 16-04-2020 09:45:00 5.5 C 89 % 3.84 C
1559 16-04-2020 09:50:00 5.8 C 89 % 4.13 C
1560 16-04-2020 09:55:00 6.1 C 88 % 4.27 C
1561 16-04-2020 10:00:00 6.3 C 88 % 4.46 C
1562 16-04-2020 10:05:00 6.6 C 87 % 4.6 C
1563 16-04-2020 10:10:00 6.9 C 86 % 4.72 C
1564 16-04-2020 10:15:00 7.2 C 85 % 4.85 C
1565 16-04-2020 10:20:00 7.6 C 85 % 5.24 C
1566 16-04-2020 10:25:00 7.8 C 83 % 5.1 C
1567 16-04-2020 10:30:00 8.2 C 82 % 5.32 C
1568 16-04-2020 10:35:00 8.6 C 81 % 5.53 C
1569 16-04-2020 10:40:00 8.9 C 79 % 5.46 C
1570 16-04-2020 10:45:00 9.3 C 78 % 5.67 C
1571 16-04-2020 10:50:00 9.7 C 77 % 5.87 C
1572 16-04-2020 10:55:00 10.1 C 75 % 5.88 C
1573 16-04-2020 11:00:00 10.6 C 74 % 6.17 C
1574 16-04-2020 11:05:00 11.1 C 72 % 6.25 C
1575 16-04-2020 11:10:00 11.9 C 70 % 6.61 C
Sensor: Nr:Datum:Temp:Feuchte:Taupunkt:
Aussen-T/F 1576 16-04-2020 11:15:00 13.2 C 64 % 6.55 C
1577 16-04-2020 11:20:00 14.3 C 59 % 6.41 C
1578 16-04-2020 11:25:00 15.1 C 57 % 6.65 C
1579 16-04-2020 11:30:00 15.6 C 55 % 6.6 C
1580 16-04-2020 11:35:00 16.2 C 53 % 6.62 C
1581 16-04-2020 11:40:00 16.7 C 50 % 6.24 C
1582 16-04-2020 11:45:00 17.1 C 49 % 6.31 C
1583 16-04-2020 11:50:00 17.4 C 48 % 6.29 C
1584 16-04-2020 11:55:00 17.7 C 47 % 6.26 C
1585 16-04-2020 12:00:00 17.9 C 48 % 6.75 C
1586 16-04-2020 12:05:00 18.1 C 47 % 6.62 C
1587 16-04-2020 12:10:00 18.3 C 45 % 6.17 C
1588 16-04-2020 12:15:00 18.5 C 45 % 6.36 C
1589 16-04-2020 12:20:00 18.7 C 47 % 7.17 C
1590 16-04-2020 12:25:00 18.8 C 45 % 6.63 C
1591 16-04-2020 12:30:00 19 C 46 % 7.13 C
1592 16-04-2020 12:35:00 19.2 C 45 % 6.99 C
1593 16-04-2020 12:40:00 19.3 C 44 % 6.75 C
1594 16-04-2020 12:45:00 19.4 C 44 % 6.84 C
1595 16-04-2020 12:50:00 19.5 C 44 % 6.94 C
1596 16-04-2020 12:55:00 19.6 C 44 % 7.03 C
1597 16-04-2020 13:00:00 19.8 C 43 % 6.87 C
1598 16-04-2020 13:05:00 19.9 C 43 % 6.96 C
1599 16-04-2020 13:10:00 20.1 C 42 % 6.8 C
1600 16-04-2020 13:15:00 20.2 C 42 % 6.89 C
Sensor: Nr:Datum:Temp:Feuchte:Taupunkt:
Aussen-T/F 1601 16-04-2020 13:20:00 20.4 C 41 % 6.72 C
1602 16-04-2020 13:25:00 20.6 C 41 % 6.9 C
1603 16-04-2020 13:30:00 20.8 C 41 % 7.08 C
1604 16-04-2020 13:35:00 20.9 C 38 % 6.06 C
1605 16-04-2020 13:40:00 21.1 C 38 % 6.24 C
1606 16-04-2020 13:45:00 21.2 C 39 % 6.71 C
1607 16-04-2020 13:50:00 21.3 C 37 % 6.03 C
1608 16-04-2020 13:55:00 21.4 C 36 % 5.73 C
1609 16-04-2020 14:00:00 21.6 C 37 % 6.3 C
1610 16-04-2020 14:05:00 21.7 C 35 % 5.58 C
1611 16-04-2020 14:10:00 21.7 C 36 % 5.99 C
1612 16-04-2020 14:15:00 21.8 C 36 % 6.08 C
1613 16-04-2020 14:20:00 21.8 C 35 % 5.67 C
1614 16-04-2020 14:25:00 21.8 C 35 % 5.67 C
1615 16-04-2020 14:30:00 21.8 C 37 % 6.48 C
1616 16-04-2020 14:35:00 22 C 37 % 6.65 C
1617 16-04-2020 14:40:00 22.2 C 37 % 6.83 C
1618 16-04-2020 14:45:00 22.3 C 37 % 6.92 C
1619 16-04-2020 14:50:00 22.4 C 35 % 6.2 C
1620 16-04-2020 14:55:00 22.6 C 36 % 6.78 C
1621 16-04-2020 15:00:00 22.7 C 35 % 6.46 C
1622 16-04-2020 15:05:00 22.9 C 36 % 7.05 C
1623 16-04-2020 15:10:00 22.9 C 35 % 6.64 C
1624 16-04-2020 15:15:00 23 C 35 % 6.73 C
1625 16-04-2020 15:20:00 23.2 C 35 % 6.9 C
Sensor: Nr:Datum:Temp:Feuchte:Taupunkt:
Aussen-T/F 1626 16-04-2020 15:25:00 23.3 C 35 % 6.99 C
1627 16-04-2020 15:30:00 23.4 C 35 % 7.08 C
1628 16-04-2020 15:35:00 23.6 C 36 % 7.67 C
1629 16-04-2020 15:40:00 23.6 C 34 % 6.83 C
1630 16-04-2020 15:45:00 23.4 C 35 % 7.08 C
1631 16-04-2020 15:50:00 23.4 C 36 % 7.49 C
1632 16-04-2020 15:55:00 23.6 C 36 % 7.67 C
1633 16-04-2020 16:00:00 23.8 C 36 % 7.84 C
1634 16-04-2020 16:05:00 24.1 C 36 % 8.11 C
1635 16-04-2020 16:10:00 24.3 C 35 % 7.87 C
1636 16-04-2020 16:15:00 24.4 C 35 % 7.96 C
1637 16-04-2020 16:20:00 24.4 C 33 % 7.1 C
1638 16-04-2020 16:25:00 24.4 C 32 % 6.65 C
1639 16-04-2020 16:30:00 24.4 C 32 % 6.65 C
1640 16-04-2020 16:35:00 24.5 C 31 % 6.28 C
1641 16-04-2020 16:40:00 24.5 C 32 % 6.74 C
1642 16-04-2020 16:45:00 24.6 C 31 % 6.36 C
1643 16-04-2020 16:50:00 24.2 C 33 % 6.92 C
1644 16-04-2020 16:55:00 24 C 35 % 7.61 C
1645 16-04-2020 17:00:00 23.9 C 35 % 7.52 C
1646 16-04-2020 17:05:00 23.8 C 35 % 7.43 C
1647 16-04-2020 17:10:00 23.8 C 34 % 7.01 C
1648 16-04-2020 17:15:00 24.1 C 36 % 8.11 C
1649 16-04-2020 17:20:00 24.1 C 40 % 9.67 C
1650 16-04-2020 17:25:00 24 C 38 % 8.82 C
Sensor: Nr:Datum:Temp:Feuchte:Taupunkt:
Aussen-T/F 1651 16-04-2020 17:30:00 24.3 C 36 % 8.28 C
1652 16-04-2020 17:35:00 24.4 C 34 % 7.53 C
1653 16-04-2020 17:40:00 24.4 C 36 % 8.37 C
1654 16-04-2020 17:45:00 24.6 C 35 % 8.13 C
1655 16-04-2020 17:50:00 24.6 C 37 % 8.95 C
1656 16-04-2020 17:55:00 24.8 C 35 % 8.31 C
1657 16-04-2020 18:00:00 25 C 35 % 8.48 C
1658 16-04-2020 18:05:00 25.2 C 35 % 8.66 C
1659 16-04-2020 18:10:00 25 C 34 % 8.06 C
1660 16-04-2020 18:15:00 24.9 C 35 % 8.4 C
1661 16-04-2020 18:20:00 24.8 C 35 % 8.31 C
1662 16-04-2020 18:25:00 24.8 C 35 % 8.31 C
1663 16-04-2020 18:30:00 24.8 C 34 % 7.88 C
1664 16-04-2020 18:35:00 24.8 C 34 % 7.88 C
1665 16-04-2020 18:40:00 24.7 C 36 % 8.64 C
1666 16-04-2020 18:45:00 24.4 C 35 % 7.96 C
1667 16-04-2020 18:50:00 24.4 C 35 % 7.96 C
1668 16-04-2020 18:55:00 24.2 C 35 % 7.78 C
1669 16-04-2020 19:00:00 24 C 36 % 8.02 C
1670 16-04-2020 19:05:00 23.9 C 36 % 7.93 C
1671 16-04-2020 19:10:00 23.8 C 37 % 8.25 C
1672 16-04-2020 19:15:00 23.6 C 38 % 8.46 C
1673 16-04-2020 19:20:00 23.4 C 38 % 8.28 C
1674 16-04-2020 19:25:00 23.1 C 39 % 8.4 C
1675 16-04-2020 19:30:00 22.8 C 39 % 8.13 C
Sensor: Nr:Datum:Temp:Feuchte:Taupunkt:
Aussen-T/F 1676 16-04-2020 19:35:00 22.6 C 40 % 8.33 C
1677 16-04-2020 19:40:00 22.3 C 41 % 8.42 C
1678 16-04-2020 19:45:00 22.1 C 42 % 8.6 C
1679 16-04-2020 19:50:00 21.8 C 43 % 8.67 C
1680 16-04-2020 19:55:00 21.4 C 44 % 8.65 C
1681 16-04-2020 20:00:00 21.1 C 44 % 8.38 C
1682 16-04-2020 20:05:00 20.7 C 46 % 8.67 C
1683 16-04-2020 20:10:00 20.2 C 46 % 8.22 C
1684 16-04-2020 20:15:00 19.8 C 47 % 8.17 C
1685 16-04-2020 20:20:00 19.4 C 47 % 7.81 C
1686 16-04-2020 20:25:00 19.2 C 46 % 7.31 C
1687 16-04-2020 20:30:00 19.1 C 46 % 7.22 C
1688 16-04-2020 20:35:00 18.9 C 46 % 7.04 C
1689 16-04-2020 20:40:00 18.9 C 47 % 7.35 C
1690 16-04-2020 20:45:00 18.9 C 48 % 7.66 C
1691 16-04-2020 20:50:00 18.7 C 47 % 7.17 C
1692 16-04-2020 20:55:00 18.6 C 49 % 7.69 C
1693 16-04-2020 21:00:00 18.3 C 49 % 7.41 C
1694 16-04-2020 21:05:00 18.1 C 50 % 7.52 C
1695 16-04-2020 21:10:00 17.8 C 52 % 7.82 C
1696 16-04-2020 21:15:00 17.4 C 53 % 7.73 C
1697 16-04-2020 21:20:00 17.1 C 53 % 7.45 C
1698 16-04-2020 21:25:00 16.8 C 55 % 7.72 C
1699 16-04-2020 21:30:00 16.6 C 55 % 7.53 C
1700 16-04-2020 21:35:00 16.4 C 57 % 7.87 C
Sensor: Nr:Datum:Temp:Feuchte:Taupunkt:
Aussen-T/F 1701 16-04-2020 21:40:00 16.1 C 58 % 7.84 C
1702 16-04-2020 21:45:00 15.8 C 59 % 7.81 C
1703 16-04-2020 21:50:00 15.4 C 60 % 7.68 C
1704 16-04-2020 21:55:00 15.3 C 60 % 7.59 C
1705 16-04-2020 22:00:00 15.2 C 61 % 7.74 C
1706 16-04-2020 22:05:00 15.2 C 62 % 7.98 C
1707 16-04-2020 22:10:00 14.9 C 62 % 7.69 C
1708 16-04-2020 22:15:00 14.6 C 63 % 7.64 C
1709 16-04-2020 22:20:00 14.3 C 64 % 7.59 C
1710 16-04-2020 22:25:00 14.2 C 65 % 7.72 C
1711 16-04-2020 22:30:00 14.2 C 66 % 7.95 C
1712 16-04-2020 22:35:00 14.2 C 66 % 7.95 C
1713 16-04-2020 22:40:00 13.9 C 67 % 7.88 C
1714 16-04-2020 22:45:00 13.7 C 67 % 7.69 C
1715 16-04-2020 22:50:00 13.6 C 67 % 7.6 C
1716 16-04-2020 22:55:00 13.3 C 69 % 7.74 C
1717 16-04-2020 23:00:00 13.1 C 70 % 7.76 C
1718 16-04-2020 23:05:00 13 C 71 % 7.87 C
1719 16-04-2020 23:10:00 12.9 C 71 % 7.78 C
1720 16-04-2020 23:15:00 12.8 C 72 % 7.88 C
1721 16-04-2020 23:20:00 12.6 C 72 % 7.69 C
1722 16-04-2020 23:25:00 12.4 C 72 % 7.5 C
1723 16-04-2020 23:30:00 12.3 C 73 % 7.61 C
1724 16-04-2020 23:35:00 12.2 C 73 % 7.51 C
1725 16-04-2020 23:40:00 12.2 C 73 % 7.51 C
Sensor: Nr:Datum:Temp:Feuchte:Taupunkt:
Aussen-T/F 1726 16-04-2020 23:45:00 12.1 C 73 % 7.41 C
1727 16-04-2020 23:50:00 12.1 C 73 % 7.41 C
1728 16-04-2020 23:55:00 12.1 C 73 % 7.41 C
1729 17-04-2020 00:00:00 12 C 74 % 7.52 C
1730 17-04-2020 00:05:00 11.8 C 74 % 7.32 C
1731 17-04-2020 00:10:00 11.7 C 75 % 7.42 C
1732 17-04-2020 00:15:00 11.6 C 75 % 7.33 C
1733 17-04-2020 00:20:00 11.4 C 76 % 7.33 C
1734 17-04-2020 00:25:00 11.4 C 76 % 7.33 C
1735 17-04-2020 00:30:00 11.3 C 76 % 7.23 C
1736 17-04-2020 00:35:00 11.3 C 76 % 7.23 C
1737 17-04-2020 00:40:00 11.2 C 77 % 7.32 C
1738 17-04-2020 00:45:00 11.2 C 77 % 7.32 C
1739 17-04-2020 00:50:00 11.1 C 77 % 7.23 C
1740 17-04-2020 00:55:00 10.9 C 78 % 7.22 C
1741 17-04-2020 01:00:00 10.8 C 78 % 7.12 C
1742 17-04-2020 01:05:00 10.7 C 79 % 7.21 C
1743 17-04-2020 01:10:00 10.7 C 79 % 7.21 C
1744 17-04-2020 01:15:00 10.7 C 79 % 7.21 C
1745 17-04-2020 01:20:00 10.6 C 79 % 7.11 C
1746 17-04-2020 01:25:00 10.4 C 80 % 7.1 C
1747 17-04-2020 01:30:00 10.4 C 80 % 7.1 C
1748 17-04-2020 01:35:00 10.4 C 80 % 7.1 C
1749 17-04-2020 01:40:00 10.4 C 80 % 7.1 C
1750 17-04-2020 01:45:00 10.3 C 80 % 7.01 C
Sensor: Nr:Datum:Temp:Feuchte:Taupunkt:
Aussen-T/F 1751 17-04-2020 01:50:00 10.2 C 81 % 7.09 C
1752 17-04-2020 01:55:00 10.2 C 81 % 7.09 C
1753 17-04-2020 02:00:00 10.2 C 81 % 7.09 C
1754 17-04-2020 02:05:00 10.3 C 81 % 7.19 C
1755 17-04-2020 02:10:00 10.4 C 81 % 7.28 C
1756 17-04-2020 02:15:00 10.3 C 81 % 7.19 C
1757 17-04-2020 02:20:00 10.2 C 81 % 7.09 C
1758 17-04-2020 02:25:00 10 C 81 % 6.89 C
1759 17-04-2020 02:30:00 9.8 C 82 % 6.88 C
1760 17-04-2020 02:35:00 9.7 C 82 % 6.78 C
1761 17-04-2020 02:40:00 9.6 C 83 % 6.86 C
1762 17-04-2020 02:45:00 9.4 C 83 % 6.66 C
1763 17-04-2020 02:50:00 9.3 C 83 % 6.57 C
1764 17-04-2020 02:55:00 9.1 C 84 % 6.54 C
1765 17-04-2020 03:00:00 8.9 C 85 % 6.52 C
1766 17-04-2020 03:05:00 8.7 C 85 % 6.32 C
1767 17-04-2020 03:10:00 8.7 C 86 % 6.49 C
1768 17-04-2020 03:15:00 8.6 C 86 % 6.39 C
1769 17-04-2020 03:20:00 8.6 C 86 % 6.39 C
1770 17-04-2020 03:25:00 8.4 C 86 % 6.2 C
1771 17-04-2020 03:30:00 8.4 C 87 % 6.37 C
1772 17-04-2020 03:35:00 8.4 C 87 % 6.37 C
1773 17-04-2020 03:40:00 8.4 C 88 % 6.53 C
1774 17-04-2020 03:45:00 8.3 C 88 % 6.43 C
1775 17-04-2020 03:50:00 8.4 C 88 % 6.53 C
Sensor: Nr:Datum:Temp:Feuchte:Taupunkt:
Aussen-T/F 1776 17-04-2020 03:55:00 8.4 C 88 % 6.53 C
1777 17-04-2020 04:00:00 8.5 C 88 % 6.63 C
1778 17-04-2020 04:05:00 8.5 C 88 % 6.63 C
1779 17-04-2020 04:10:00 8.5 C 88 % 6.63 C
1780 17-04-2020 04:15:00 8.5 C 88 % 6.63 C
1781 17-04-2020 04:20:00 8.5 C 88 % 6.63 C
1782 17-04-2020 04:25:00 8.4 C 88 % 6.53 C
1783 17-04-2020 04:30:00 8.4 C 88 % 6.53 C
1784 17-04-2020 04:35:00 8.4 C 88 % 6.53 C
1785 17-04-2020 04:40:00 8.4 C 88 % 6.53 C
1786 17-04-2020 04:45:00 8.4 C 89 % 6.7 C
1787 17-04-2020 04:50:00 8.3 C 88 % 6.43 C
1788 17-04-2020 04:55:00 8.2 C 88 % 6.33 C
1789 17-04-2020 05:00:00 8.2 C 88 % 6.33 C
1790 17-04-2020 05:05:00 8.2 C 88 % 6.33 C
1791 17-04-2020 05:10:00 8 C 88 % 6.14 C
1792 17-04-2020 05:15:00 7.9 C 88 % 6.04 C
1793 17-04-2020 05:20:00 7.7 C 88 % 5.84 C
1794 17-04-2020 05:25:00 7.6 C 88 % 5.74 C
1795 17-04-2020 05:30:00 7.5 C 89 % 5.81 C
1796 17-04-2020 05:35:00 7.4 C 89 % 5.71 C
1797 17-04-2020 05:40:00 7.3 C 89 % 5.61 C
1798 17-04-2020 05:45:00 7.3 C 90 % 5.77 C
1799 17-04-2020 05:50:00 7.3 C 90 % 5.77 C
1800 17-04-2020 05:55:00 7.2 C 90 % 5.67 C
Sensor: Nr:Datum:Temp:Feuchte:Taupunkt:
Aussen-T/F 1801 17-04-2020 06:00:00 7.2 C 90 % 5.67 C
1802 17-04-2020 06:05:00 7.1 C 91 % 5.73 C
1803 17-04-2020 06:10:00 7 C 91 % 5.63 C
1804 17-04-2020 06:15:00 6.9 C 91 % 5.54 C
1805 17-04-2020 06:20:00 6.9 C 91 % 5.54 C
1806 17-04-2020 06:25:00 6.8 C 91 % 5.44 C
1807 17-04-2020 06:30:00 6.7 C 91 % 5.34 C
1808 17-04-2020 06:35:00 6.7 C 91 % 5.34 C
1809 17-04-2020 06:40:00 6.7 C 92 % 5.49 C
1810 17-04-2020 06:45:00 6.6 C 92 % 5.4 C
1811 17-04-2020 06:50:00 6.6 C 92 % 5.4 C
1812 17-04-2020 06:55:00 6.6 C 92 % 5.4 C
1813 17-04-2020 07:00:00 6.6 C 92 % 5.4 C
1814 17-04-2020 07:05:00 6.6 C 92 % 5.4 C
1815 17-04-2020 07:10:00 6.6 C 92 % 5.4 C
1816 17-04-2020 07:15:00 6.6 C 93 % 5.55 C
1817 17-04-2020 07:20:00 6.6 C 93 % 5.55 C
1818 17-04-2020 07:25:00 6.7 C 93 % 5.65 C
1819 17-04-2020 07:30:00 6.7 C 93 % 5.65 C
1820 17-04-2020 07:35:00 6.8 C 93 % 5.75 C
1821 17-04-2020 07:40:00 6.9 C 93 % 5.85 C
1822 17-04-2020 07:45:00 6.9 C 93 % 5.85 C
1823 17-04-2020 07:50:00 6.9 C 93 % 5.85 C
1824 17-04-2020 07:55:00 6.9 C 93 % 5.85 C
1825 17-04-2020 08:00:00 6.9 C 93 % 5.85 C
Sensor: Nr:Datum:Temp:Feuchte:Taupunkt:
Aussen-T/F 1826 17-04-2020 08:05:00 7 C 94 % 6.1 C
1827 17-04-2020 08:10:00 7.1 C 94 % 6.2 C
1828 17-04-2020 08:15:00 7.1 C 94 % 6.2 C
1829 17-04-2020 08:20:00 7.2 C 94 % 6.3 C
1830 17-04-2020 08:25:00 7.3 C 94 % 6.4 C
1831 17-04-2020 08:30:00 7.3 C 94 % 6.4 C
1832 17-04-2020 08:35:00 7.4 C 94 % 6.5 C
1833 17-04-2020 08:40:00 7.6 C 94 % 6.7 C
1834 17-04-2020 08:45:00 7.7 C 94 % 6.8 C
1835 17-04-2020 08:50:00 7.8 C 94 % 6.9 C
1836 17-04-2020 08:55:00 8.1 C 94 % 7.19 C
1837 17-04-2020 09:00:00 8.2 C 95 % 7.45 C
1838 17-04-2020 09:05:00 8.3 C 94 % 7.39 C
1839 17-04-2020 09:10:00 8.4 C 94 % 7.49 C
1840 17-04-2020 09:15:00 8.6 C 94 % 7.69 C
1841 17-04-2020 09:20:00 8.7 C 94 % 7.79 C
1842 17-04-2020 09:25:00 8.8 C 94 % 7.89 C
1843 17-04-2020 09:30:00 8.9 C 94 % 7.99 C
1844 17-04-2020 09:35:00 9.2 C 94 % 8.29 C
1845 17-04-2020 09:40:00 9.3 C 94 % 8.39 C
1846 17-04-2020 09:45:00 9.5 C 93 % 8.43 C
1847 17-04-2020 09:50:00 9.7 C 93 % 8.62 C
1848 17-04-2020 09:55:00 9.9 C 93 % 8.82 C
1849 17-04-2020 10:00:00 10.1 C 92 % 8.86 C
1850 17-04-2020 10:05:00 10.3 C 92 % 9.06 C
Sensor: Nr:Datum:Temp:Feuchte:Taupunkt:
Aussen-T/F 1851 17-04-2020 10:10:00 10.4 C 91 % 9 C
1852 17-04-2020 10:15:00 10.6 C 90 % 9.03 C
1853 17-04-2020 10:20:00 10.9 C 90 % 9.33 C
1854 17-04-2020 10:25:00 11.2 C 89 % 9.46 C
1855 17-04-2020 10:30:00 11.4 C 89 % 9.65 C
1856 17-04-2020 10:35:00 11.7 C 88 % 9.78 C
1857 17-04-2020 10:40:00 11.9 C 87 % 9.81 C
1858 17-04-2020 10:45:00 12.2 C 87 % 10.1 C
1859 17-04-2020 10:50:00 12.4 C 85 % 9.95 C
1860 17-04-2020 10:55:00 12.8 C 84 % 10.17 C
1861 17-04-2020 11:00:00 13.2 C 82 % 10.2 C
1862 17-04-2020 11:05:00 13.7 C 80 % 10.32 C
1863 17-04-2020 11:10:00 14.1 C 77 % 10.13 C
1864 17-04-2020 11:15:00 14.6 C 76 % 10.42 C
1865 17-04-2020 11:20:00 14.9 C 74 % 10.31 C
1866 17-04-2020 11:25:00 15.3 C 72 % 10.29 C
1867 17-04-2020 11:30:00 15.7 C 72 % 10.67 C
1868 17-04-2020 11:35:00 16.1 C 72 % 11.06 C
1869 17-04-2020 11:40:00 16.3 C 69 % 10.61 C
1870 17-04-2020 11:45:00 16.6 C 67 % 10.45 C
1871 17-04-2020 11:50:00 16.9 C 65 % 10.28 C
1872 17-04-2020 11:55:00 17.2 C 64 % 10.34 C
1873 17-04-2020 12:00:00 17.5 C 65 % 10.85 C
1874 17-04-2020 12:05:00 17.8 C 63 % 10.67 C
1875 17-04-2020 12:10:00 18.2 C 61 % 10.56 C
Sensor: Nr:Datum:Temp:Feuchte:Taupunkt:
Aussen-T/F 1876 17-04-2020 12:15:00 18.5 C 60 % 10.6 C
1877 17-04-2020 12:20:00 18.8 C 57 % 10.11 C
1878 17-04-2020 12:25:00 19 C 59 % 10.81 C
1879 17-04-2020 12:30:00 19.3 C 55 % 10.04 C
1880 17-04-2020 12:35:00 19.4 C 55 % 10.13 C
1881 17-04-2020 12:40:00 19.6 C 53 % 9.77 C
1882 17-04-2020 12:45:00 19.7 C 54 % 10.14 C
1883 17-04-2020 12:50:00 19.8 C 52 % 9.67 C
1884 17-04-2020 12:55:00 19.9 C 51 % 9.47 C
1885 17-04-2020 13:00:00 20.1 C 51 % 9.66 C
1886 17-04-2020 13:05:00 20.2 C 50 % 9.45 C
1887 17-04-2020 13:10:00 20.3 C 51 % 9.84 C
1888 17-04-2020 13:15:00 20.3 C 50 % 9.54 C
1889 17-04-2020 13:20:00 20.5 C 50 % 9.73 C
1890 17-04-2020 13:25:00 20.7 C 51 % 10.21 C
1891 17-04-2020 13:30:00 20.9 C 49 % 9.79 C
1892 17-04-2020 13:35:00 21.1 C 50 % 10.28 C
1893 17-04-2020 13:40:00 21.2 C 50 % 10.37 C
1894 17-04-2020 13:45:00 21.4 C 51 % 10.85 C
1895 17-04-2020 13:50:00 21.4 C 49 % 10.25 C
1896 17-04-2020 13:55:00 21.5 C 51 % 10.94 C
1897 17-04-2020 14:00:00 21.6 C 48 % 10.13 C
1898 17-04-2020 14:05:00 21.7 C 49 % 10.53 C
1899 17-04-2020 14:10:00 21.8 C 50 % 10.92 C
1900 17-04-2020 14:15:00 22.1 C 48 % 10.58 C
Sensor: Nr:Datum:Temp:Feuchte:Taupunkt:
Aussen-T/F 1901 17-04-2020 14:20:00 22.2 C 47 % 10.36 C
1902 17-04-2020 14:25:00 22.3 C 48 % 10.77 C
1903 17-04-2020 14:30:00 22.4 C 47 % 10.54 C
1904 17-04-2020 14:35:00 22.4 C 47 % 10.54 C
1905 17-04-2020 14:40:00 22.6 C 46 % 10.4 C
1906 17-04-2020 14:45:00 22.7 C 47 % 10.81 C
1907 17-04-2020 14:50:00 22.8 C 47 % 10.91 C
1908 17-04-2020 14:55:00 23.1 C 46 % 10.86 C
1909 17-04-2020 15:00:00 23.2 C 45 % 10.62 C
1910 17-04-2020 15:05:00 23.3 C 45 % 10.71 C
1911 17-04-2020 15:10:00 23.4 C 44 % 10.46 C
1912 17-04-2020 15:15:00 23.4 C 43 % 10.12 C
1913 17-04-2020 15:20:00 23.4 C 43 % 10.12 C
1914 17-04-2020 15:25:00 23.4 C 44 % 10.46 C
1915 17-04-2020 15:30:00 23.4 C 45 % 10.8 C
1916 17-04-2020 15:35:00 23.4 C 44 % 10.46 C
1917 17-04-2020 15:40:00 23.4 C 44 % 10.46 C
1918 17-04-2020 15:45:00 23.4 C 44 % 10.46 C
1919 17-04-2020 15:50:00 23.4 C 44 % 10.46 C
1920 17-04-2020 15:55:00 23.4 C 44 % 10.46 C
1921 17-04-2020 16:00:00 23.4 C 44 % 10.46 C
1922 17-04-2020 16:05:00 23.7 C 44 % 10.73 C
1923 17-04-2020 16:10:00 24 C 43 % 10.66 C
1924 17-04-2020 16:15:00 24.4 C 43 % 11.02 C
1925 17-04-2020 16:20:00 24.6 C 41 % 10.48 C
Sensor: Nr:Datum:Temp:Feuchte:Taupunkt:
Aussen-T/F 1926 17-04-2020 16:25:00 24.4 C 41 % 10.3 C
1927 17-04-2020 16:30:00 24.3 C 42 % 10.57 C
1928 17-04-2020 16:35:00 24.3 C 41 % 10.21 C
1929 17-04-2020 16:40:00 24.3 C 41 % 10.21 C
1930 17-04-2020 16:45:00 24.3 C 41 % 10.21 C
1931 17-04-2020 16:50:00 24.2 C 41 % 10.12 C
1932 17-04-2020 16:55:00 24.3 C 41 % 10.21 C
1933 17-04-2020 17:00:00 24.6 C 40 % 10.11 C
1934 17-04-2020 17:05:00 24.9 C 39 % 10 C
1935 17-04-2020 17:10:00 25.2 C 38 % 9.88 C
1936 17-04-2020 17:15:00 25.2 C 38 % 9.88 C
1937 17-04-2020 17:20:00 25.1 C 39 % 10.18 C
1938 17-04-2020 17:25:00 25.2 C 38 % 9.88 C
1939 17-04-2020 17:30:00 25.4 C 40 % 10.83 C
1940 17-04-2020 17:35:00 25.8 C 38 % 10.41 C
1941 17-04-2020 17:40:00 26.1 C 36 % 9.87 C
1942 17-04-2020 17:45:00 25.8 C 36 % 9.61 C
1943 17-04-2020 17:50:00 25.7 C 37 % 9.92 C
1944 17-04-2020 17:55:00 25.8 C 38 % 10.41 C
1945 17-04-2020 18:00:00 25.9 C 39 % 10.89 C
1946 17-04-2020 18:05:00 26.2 C 37 % 10.37 C
1947 17-04-2020 18:10:00 26.2 C 37 % 10.37 C
1948 17-04-2020 18:15:00 26.1 C 38 % 10.68 C
1949 17-04-2020 18:20:00 26 C 36 % 9.78 C
1950 17-04-2020 18:25:00 25.7 C 39 % 10.71 C
Sensor: Nr:Datum:Temp:Feuchte:Taupunkt:
Aussen-T/F 1951 17-04-2020 18:30:00 25.6 C 41 % 11.38 C
1952 17-04-2020 18:35:00 25.7 C 40 % 11.09 C
1953 17-04-2020 18:40:00 25.8 C 39 % 10.8 C
1954 17-04-2020 18:45:00 25.8 C 39 % 10.8 C
1955 17-04-2020 18:50:00 25.7 C 43 % 12.19 C
1956 17-04-2020 18:55:00 25.5 C 43 % 12.01 C
1957 17-04-2020 19:00:00 25.4 C 42 % 11.56 C
1958 17-04-2020 19:05:00 25.5 C 41 % 11.29 C
1959 17-04-2020 19:10:00 25.6 C 41 % 11.38 C
1960 17-04-2020 19:15:00 25.4 C 45 % 12.61 C
1961 17-04-2020 19:20:00 25.3 C 45 % 12.52 C
1962 17-04-2020 19:25:00 24.9 C 47 % 12.82 C
1963 17-04-2020 19:30:00 24.5 C 49 % 13.09 C
1964 17-04-2020 19:35:00 24.1 C 49 % 12.72 C
1965 17-04-2020 19:40:00 23.7 C 50 % 12.67 C
1966 17-04-2020 19:45:00 23.2 C 51 % 12.51 C
1967 17-04-2020 19:50:00 22.7 C 52 % 12.34 C
1968 17-04-2020 19:55:00 22.1 C 54 % 12.36 C
1969 17-04-2020 20:00:00 21.6 C 55 % 12.18 C
1970 17-04-2020 20:05:00 21.1 C 56 % 11.99 C
1971 17-04-2020 20:10:00 20.6 C 56 % 11.52 C
1972 17-04-2020 20:15:00 20.3 C 57 % 11.51 C
1973 17-04-2020 20:20:00 19.9 C 58 % 11.4 C
1974 17-04-2020 20:25:00 19.6 C 59 % 11.37 C
1975 17-04-2020 20:30:00 19.3 C 60 % 11.35 C
Sensor: Nr:Datum:Temp:Feuchte:Taupunkt:
Aussen-T/F 1976 17-04-2020 20:35:00 18.9 C 60 % 10.97 C
1977 17-04-2020 20:40:00 18.7 C 60 % 10.78 C
1978 17-04-2020 20:45:00 18.5 C 62 % 11.09 C
1979 17-04-2020 20:50:00 18.3 C 62 % 10.9 C
1980 17-04-2020 20:55:00 18.1 C 63 % 10.95 C
1981 17-04-2020 21:00:00 17.9 C 64 % 11 C
1982 17-04-2020 21:05:00 17.8 C 64 % 10.9 C
1983 17-04-2020 21:10:00 17.7 C 65 % 11.04 C
1984 17-04-2020 21:15:00 17.7 C 66 % 11.27 C
1985 17-04-2020 21:20:00 17.6 C 66 % 11.18 C
1986 17-04-2020 21:25:00 17.6 C 66 % 11.18 C
1987 17-04-2020 21:30:00 17.4 C 66 % 10.99 C
1988 17-04-2020 21:35:00 17.4 C 66 % 10.99 C
1989 17-04-2020 21:40:00 17.4 C 67 % 11.21 C
1990 17-04-2020 21:45:00 17.3 C 67 % 11.12 C
1991 17-04-2020 21:50:00 17.2 C 67 % 11.02 C
1992 17-04-2020 21:55:00 17.1 C 67 % 10.93 C
1993 17-04-2020 22:00:00 16.8 C 67 % 10.64 C
1994 17-04-2020 22:05:00 16.7 C 67 % 10.55 C
1995 17-04-2020 22:10:00 16.5 C 68 % 10.58 C
1996 17-04-2020 22:15:00 16.3 C 69 % 10.61 C
1997 17-04-2020 22:20:00 16.1 C 68 % 10.2 C
1998 17-04-2020 22:25:00 15.9 C 70 % 10.44 C
1999 17-04-2020 22:30:00 15.8 C 70 % 10.34 C
2000 17-04-2020 22:35:00 15.7 C 71 % 10.46 C
Sensor: Nr:Datum:Temp:Feuchte:Taupunkt:
Aussen-T/F 2001 17-04-2020 22:40:00 15.6 C 71 % 10.37 C
2002 17-04-2020 22:45:00 15.4 C 72 % 10.38 C
2003 17-04-2020 22:50:00 15.3 C 72 % 10.29 C
2004 17-04-2020 22:55:00 15.2 C 72 % 10.19 C
2005 17-04-2020 23:00:00 15 C 72 % 10 C
2006 17-04-2020 23:05:00 15 C 73 % 10.2 C
2007 17-04-2020 23:10:00 14.9 C 72 % 9.9 C
2008 17-04-2020 23:15:00 14.9 C 73 % 10.11 C
2009 17-04-2020 23:20:00 14.8 C 74 % 10.22 C
2010 17-04-2020 23:25:00 14.7 C 75 % 10.32 C
2011 17-04-2020 23:30:00 14.6 C 75 % 10.22 C
2012 17-04-2020 23:35:00 14.4 C 76 % 10.23 C
2013 17-04-2020 23:40:00 14.3 C 76 % 10.13 C
2014 17-04-2020 23:45:00 14.1 C 77 % 10.13 C
2015 17-04-2020 23:50:00 14 C 77 % 10.04 C
2016 17-04-2020 23:55:00 13.9 C 77 % 9.94 C
2017 18-04-2020 00:00:00 13.8 C 77 % 9.84 C
2018 18-04-2020 00:05:00 13.8 C 77 % 9.84 C
2019 18-04-2020 00:10:00 13.7 C 77 % 9.75 C
2020 18-04-2020 00:15:00 13.6 C 77 % 9.65 C
2021 18-04-2020 00:20:00 13.4 C 77 % 9.45 C
2022 18-04-2020 00:25:00 13.2 C 78 % 9.45 C
2023 18-04-2020 00:30:00 13 C 78 % 9.26 C
2024 18-04-2020 00:35:00 12.8 C 78 % 9.06 C
2025 18-04-2020 00:40:00 12.7 C 79 % 9.16 C
Sensor: Nr:Datum:Temp:Feuchte:Taupunkt:
Aussen-T/F 2026 18-04-2020 00:45:00 12.6 C 79 % 9.06 C
2027 18-04-2020 00:50:00 12.4 C 79 % 8.86 C
2028 18-04-2020 00:55:00 12.3 C 79 % 8.77 C
2029 18-04-2020 01:00:00 12.3 C 79 % 8.77 C
2030 18-04-2020 01:05:00 12.3 C 79 % 8.77 C
2031 18-04-2020 01:10:00 12.3 C 79 % 8.77 C
2032 18-04-2020 01:15:00 12.2 C 79 % 8.67 C
2033 18-04-2020 01:20:00 12.2 C 79 % 8.67 C
2034 18-04-2020 01:25:00 12.1 C 79 % 8.57 C
2035 18-04-2020 01:30:00 11.9 C 80 % 8.56 C
2036 18-04-2020 01:35:00 11.9 C 81 % 8.75 C
2037 18-04-2020 01:40:00 11.7 C 80 % 8.37 C
2038 18-04-2020 01:45:00 11.5 C 80 % 8.17 C
2039 18-04-2020 01:50:00 11.4 C 80 % 8.08 C
2040 18-04-2020 01:55:00 11.3 C 81 % 8.16 C
2041 18-04-2020 02:00:00 11.3 C 81 % 8.16 C
2042 18-04-2020 02:05:00 11.2 C 81 % 8.06 C
2043 18-04-2020 02:10:00 11.3 C 83 % 8.52 C
2044 18-04-2020 02:15:00 11.2 C 82 % 8.25 C
2045 18-04-2020 02:20:00 11.1 C 83 % 8.33 C
2046 18-04-2020 02:25:00 11.1 C 83 % 8.33 C
2047 18-04-2020 02:30:00 11.1 C 83 % 8.33 C
2048 18-04-2020 02:35:00 10.9 C 84 % 8.31 C
2049 18-04-2020 02:40:00 10.8 C 84 % 8.21 C
2050 18-04-2020 02:45:00 10.8 C 84 % 8.21 C
Sensor: Nr:Datum:Temp:Feuchte:Taupunkt:
Aussen-T/F 2051 18-04-2020 02:50:00 10.7 C 84 % 8.11 C
2052 18-04-2020 02:55:00 10.6 C 85 % 8.19 C
2053 18-04-2020 03:00:00 10.5 C 85 % 8.09 C
2054 18-04-2020 03:05:00 10.3 C 85 % 7.89 C
2055 18-04-2020 03:10:00 10.3 C 86 % 8.06 C
2056 18-04-2020 03:15:00 10.3 C 86 % 8.06 C
2057 18-04-2020 03:20:00 10.2 C 86 % 7.97 C
2058 18-04-2020 03:25:00 10 C 86 % 7.77 C
2059 18-04-2020 03:30:00 9.8 C 86 % 7.57 C
2060 18-04-2020 03:35:00 9.7 C 86 % 7.47 C
2061 18-04-2020 03:40:00 9.7 C 86 % 7.47 C
2062 18-04-2020 03:45:00 9.6 C 86 % 7.38 C
2063 18-04-2020 03:50:00 9.6 C 87 % 7.55 C
2064 18-04-2020 03:55:00 9.5 C 87 % 7.45 C
2065 18-04-2020 04:00:00 9.5 C 88 % 7.61 C
2066 18-04-2020 04:05:00 9.5 C 88 % 7.61 C
2067 18-04-2020 04:10:00 9.5 C 88 % 7.61 C
2068 18-04-2020 04:15:00 9.4 C 88 % 7.52 C
2069 18-04-2020 04:20:00 9.4 C 88 % 7.52 C
2070 18-04-2020 04:25:00 9.4 C 89 % 7.68 C
2071 18-04-2020 04:30:00 9.4 C 89 % 7.68 C
2072 18-04-2020 04:35:00 9.4 C 89 % 7.68 C
2073 18-04-2020 04:40:00 9.4 C 89 % 7.68 C
2074 18-04-2020 04:45:00 9.3 C 89 % 7.58 C
2075 18-04-2020 04:50:00 9.2 C 89 % 7.48 C
Sensor: Nr:Datum:Temp:Feuchte:Taupunkt:
Aussen-T/F 2076 18-04-2020 04:55:00 9.2 C 89 % 7.48 C
2077 18-04-2020 05:00:00 9.2 C 89 % 7.48 C
2078 18-04-2020 05:05:00 9.1 C 89 % 7.39 C
2079 18-04-2020 05:10:00 9.1 C 89 % 7.39 C
2080 18-04-2020 05:15:00 9 C 89 % 7.29 C
2081 18-04-2020 05:20:00 9.1 C 89 % 7.39 C
2082 18-04-2020 05:25:00 9.1 C 90 % 7.55 C
2083 18-04-2020 05:30:00 9.1 C 90 % 7.55 C
2084 18-04-2020 05:35:00 9.1 C 90 % 7.55 C
2085 18-04-2020 05:40:00 9.1 C 89 % 7.39 C
2086 18-04-2020 05:45:00 8.9 C 89 % 7.19 C
2087 18-04-2020 05:50:00 8.9 C 89 % 7.19 C
2088 18-04-2020 05:55:00 8.9 C 90 % 7.35 C
2089 18-04-2020 06:00:00 8.9 C 90 % 7.35 C
2090 18-04-2020 06:05:00 8.9 C 90 % 7.35 C
2091 18-04-2020 06:10:00 8.9 C 90 % 7.35 C
2092 18-04-2020 06:15:00 8.9 C 90 % 7.35 C
2093 18-04-2020 06:20:00 8.9 C 91 % 7.51 C
2094 18-04-2020 06:25:00 8.9 C 90 % 7.35 C
2095 18-04-2020 06:30:00 8.9 C 90 % 7.35 C
2096 18-04-2020 06:35:00 8.9 C 90 % 7.35 C
2097 18-04-2020 06:40:00 8.8 C 91 % 7.41 C
2098 18-04-2020 06:45:00 8.8 C 90 % 7.25 C
2099 18-04-2020 06:50:00 8.7 C 90 % 7.15 C
2100 18-04-2020 06:55:00 8.6 C 90 % 7.06 C
Sensor: Nr:Datum:Temp:Feuchte:Taupunkt:
Aussen-T/F 2101 18-04-2020 07:00:00 8.6 C 91 % 7.22 C
2102 18-04-2020 07:05:00 8.7 C 91 % 7.32 C
2103 18-04-2020 07:10:00 8.8 C 92 % 7.57 C
2104 18-04-2020 07:15:00 9.1 C 92 % 7.87 C
2105 18-04-2020 07:20:00 9.3 C 93 % 8.23 C
2106 18-04-2020 07:25:00 9.5 C 92 % 8.27 C
2107 18-04-2020 07:30:00 9.6 C 92 % 8.37 C
2108 18-04-2020 07:35:00 9.7 C 92 % 8.46 C
2109 18-04-2020 07:40:00 9.8 C 92 % 8.56 C
2110 18-04-2020 07:45:00 9.9 C 92 % 8.66 C
2111 18-04-2020 07:50:00 9.9 C 92 % 8.66 C
2112 18-04-2020 07:55:00 10 C 92 % 8.76 C
2113 18-04-2020 08:00:00 10 C 91 % 8.6 C
2114 18-04-2020 08:05:00 10.1 C 91 % 8.7 C
2115 18-04-2020 08:10:00 10.1 C 92 % 8.86 C
2116 18-04-2020 08:15:00 10.2 C 92 % 8.96 C
2117 18-04-2020 08:20:00 10.2 C 92 % 8.96 C
2118 18-04-2020 08:25:00 10.3 C 92 % 9.06 C
2119 18-04-2020 08:30:00 10.3 C 92 % 9.06 C
2120 18-04-2020 08:35:00 10.3 C 91 % 8.9 C
2121 18-04-2020 08:40:00 10.4 C 92 % 9.16 C
2122 18-04-2020 08:45:00 10.5 C 92 % 9.26 C
2123 18-04-2020 08:50:00 10.7 C 92 % 9.45 C
2124 18-04-2020 08:55:00 10.8 C 92 % 9.55 C
2125 18-04-2020 09:00:00 10.9 C 92 % 9.65 C
Sensor: Nr:Datum:Temp:Feuchte:Taupunkt:
Aussen-T/F 2126 18-04-2020 09:05:00 11.1 C 92 % 9.85 C
2127 18-04-2020 09:10:00 11.3 C 92 % 10.05 C
2128 18-04-2020 09:15:00 11.4 C 91 % 9.98 C
2129 18-04-2020 09:20:00 11.7 C 91 % 10.28 C
2130 18-04-2020 09:25:00 11.8 C 89 % 10.05 C
2131 18-04-2020 09:30:00 12.2 C 88 % 10.27 C
2132 18-04-2020 09:35:00 12.6 C 87 % 10.5 C
2133 18-04-2020 09:40:00 12.8 C 86 % 10.52 C
2134 18-04-2020 09:45:00 13.1 C 84 % 10.46 C
2135 18-04-2020 09:50:00 13.3 C 83 % 10.48 C
2136 18-04-2020 09:55:00 13.5 C 82 % 10.49 C
2137 18-04-2020 10:00:00 13.7 C 81 % 10.5 C
2138 18-04-2020 10:05:00 14.1 C 81 % 10.89 C
2139 18-04-2020 10:10:00 14.4 C 79 % 10.81 C
2140 18-04-2020 10:15:00 14.6 C 79 % 11 C
2141 18-04-2020 10:20:00 14.8 C 78 % 11 C
2142 18-04-2020 10:25:00 15 C 78 % 11.2 C
2143 18-04-2020 10:30:00 15.3 C 77 % 11.3 C
2144 18-04-2020 10:35:00 15.4 C 77 % 11.39 C
2145 18-04-2020 10:40:00 15.6 C 77 % 11.59 C
2146 18-04-2020 10:45:00 15.7 C 76 % 11.48 C
2147 18-04-2020 10:50:00 15.8 C 75 % 11.38 C
2148 18-04-2020 10:55:00 16 C 75 % 11.57 C
2149 18-04-2020 11:00:00 16.1 C 75 % 11.67 C
2150 18-04-2020 11:05:00 16.3 C 76 % 12.07 C
Sensor: Nr:Datum:Temp:Feuchte:Taupunkt:
Aussen-T/F 2151 18-04-2020 11:10:00 16.5 C 74 % 11.85 C
2152 18-04-2020 11:15:00 16.7 C 73 % 11.84 C
2153 18-04-2020 11:20:00 16.9 C 71 % 11.61 C
2154 18-04-2020 11:25:00 17 C 71 % 11.71 C
2155 18-04-2020 11:30:00 17.2 C 71 % 11.9 C
2156 18-04-2020 11:35:00 17.2 C 70 % 11.68 C
2157 18-04-2020 11:40:00 17.2 C 71 % 11.9 C
2158 18-04-2020 11:45:00 17.3 C 71 % 12 C
2159 18-04-2020 11:50:00 17.4 C 72 % 12.3 C
2160 18-04-2020 11:55:00 17.4 C 70 % 11.88 C
2161 18-04-2020 12:00:00 17.6 C 72 % 12.5 C
2162 18-04-2020 12:05:00 17.8 C 71 % 12.47 C
2163 18-04-2020 12:10:00 17.9 C 70 % 12.35 C
2164 18-04-2020 12:15:00 18.1 C 69 % 12.33 C
2165 18-04-2020 12:20:00 18.2 C 69 % 12.42 C
2166 18-04-2020 12:25:00 18.3 C 67 % 12.07 C
2167 18-04-2020 12:30:00 18.4 C 67 % 12.17 C
2168 18-04-2020 12:35:00 18.4 C 65 % 11.71 C
2169 18-04-2020 12:40:00 18.5 C 65 % 11.8 C
2170 18-04-2020 12:45:00 18.6 C 67 % 12.36 C
2171 18-04-2020 12:50:00 18.7 C 67 % 12.45 C
2172 18-04-2020 12:55:00 18.8 C 68 % 12.77 C
2173 18-04-2020 13:00:00 18.9 C 67 % 12.64 C
2174 18-04-2020 13:05:00 19.1 C 64 % 12.14 C
2175 18-04-2020 13:10:00 19.2 C 64 % 12.23 C
Sensor: Nr:Datum:Temp:Feuchte:Taupunkt:
Aussen-T/F 2176 18-04-2020 13:15:00 19.3 C 62 % 11.84 C
2177 18-04-2020 13:20:00 19.4 C 62 % 11.94 C
2178 18-04-2020 13:25:00 19.6 C 62 % 12.13 C
2179 18-04-2020 13:30:00 19.7 C 62 % 12.22 C
2180 18-04-2020 13:35:00 19.9 C 61 % 12.16 C
2181 18-04-2020 13:40:00 20.1 C 61 % 12.35 C
2182 18-04-2020 13:45:00 20.2 C 60 % 12.19 C
2183 18-04-2020 13:50:00 20.2 C 59 % 11.94 C
2184 18-04-2020 13:55:00 20.3 C 59 % 12.03 C
2185 18-04-2020 14:00:00 20.4 C 59 % 12.12 C
2186 18-04-2020 14:05:00 20.3 C 59 % 12.03 C
2187 18-04-2020 14:10:00 20.4 C 61 % 12.63 C
2188 18-04-2020 14:15:00 20.4 C 60 % 12.38 C
2189 18-04-2020 14:20:00 20.6 C 60 % 12.57 C
2190 18-04-2020 14:25:00 20.7 C 59 % 12.41 C
2191 18-04-2020 14:30:00 20.7 C 59 % 12.41 C
2192 18-04-2020 14:35:00 20.7 C 60 % 12.66 C
2193 18-04-2020 14:40:00 20.8 C 62 % 13.26 C
2194 18-04-2020 14:45:00 20.8 C 62 % 13.26 C
2195 18-04-2020 14:50:00 20.9 C 60 % 12.85 C
2196 18-04-2020 14:55:00 20.9 C 59 % 12.59 C
2197 18-04-2020 15:00:00 21 C 60 % 12.94 C
2198 18-04-2020 15:05:00 21.2 C 59 % 12.87 C
2199 18-04-2020 15:10:00 21.3 C 58 % 12.71 C
2200 18-04-2020 15:15:00 21.4 C 59 % 13.06 C
Sensor: Nr:Datum:Temp:Feuchte:Taupunkt:
Aussen-T/F 2201 18-04-2020 15:20:00 21.4 C 57 % 12.53 C
2202 18-04-2020 15:25:00 21.5 C 57 % 12.63 C
2203 18-04-2020 15:30:00 21.4 C 57 % 12.53 C
2204 18-04-2020 15:35:00 21.3 C 57 % 12.44 C
2205 18-04-2020 15:40:00 21.2 C 58 % 12.61 C
2206 18-04-2020 15:45:00 21.2 C 57 % 12.35 C
2207 18-04-2020 15:50:00 21.2 C 59 % 12.87 C
2208 18-04-2020 15:55:00 20.9 C 61 % 13.1 C
2209 18-04-2020 16:00:00 20.8 C 61 % 13.01 C
2210 18-04-2020 16:05:00 20.7 C 63 % 13.41 C
2211 18-04-2020 16:10:00 20.6 C 63 % 13.31 C
2212 18-04-2020 16:15:00 20.4 C 63 % 13.12 C
2213 18-04-2020 16:20:00 20.3 C 64 % 13.27 C
2214 18-04-2020 16:25:00 20.1 C 65 % 13.32 C
2215 18-04-2020 16:30:00 19.7 C 67 % 13.4 C
2216 18-04-2020 16:35:00 19.3 C 68 % 13.25 C
2217 18-04-2020 16:40:00 19.1 C 70 % 13.5 C
2218 18-04-2020 16:45:00 19 C 70 % 13.41 C
2219 18-04-2020 16:50:00 19 C 72 % 13.84 C
2220 18-04-2020 16:55:00 18.9 C 72 % 13.74 C
2221 18-04-2020 17:00:00 18.9 C 73 % 13.96 C
2222 18-04-2020 17:05:00 18.8 C 73 % 13.86 C
2223 18-04-2020 17:10:00 18.7 C 74 % 13.97 C
2224 18-04-2020 17:15:00 18.6 C 74 % 13.88 C
2225 18-04-2020 17:20:00 18.6 C 74 % 13.88 C
Sensor: Nr:Datum:Temp:Feuchte:Taupunkt:
Aussen-T/F 2226 18-04-2020 17:25:00 18.5 C 77 % 14.39 C
2227 18-04-2020 17:30:00 18.4 C 79 % 14.69 C
2228 18-04-2020 17:35:00 18.3 C 81 % 14.98 C
2229 18-04-2020 17:40:00 18.3 C 82 % 15.17 C
2230 18-04-2020 17:45:00 18.1 C 80 % 14.6 C
2231 18-04-2020 17:50:00 17.9 C 81 % 14.59 C
2232 18-04-2020 17:55:00 17.7 C 81 % 14.4 C
2233 18-04-2020 18:00:00 17.6 C 82 % 14.49 C
2234 18-04-2020 18:05:00 17.5 C 82 % 14.39 C
2235 18-04-2020 18:10:00 17.4 C 83 % 14.48 C
2236 18-04-2020 18:15:00 17.4 C 84 % 14.67 C
2237 18-04-2020 18:20:00 17.3 C 82 % 14.2 C
2238 18-04-2020 18:25:00 17.3 C 82 % 14.2 C
2239 18-04-2020 18:30:00 17.4 C 82 % 14.3 C
2240 18-04-2020 18:35:00 17.4 C 79 % 13.72 C
2241 18-04-2020 18:40:00 17.4 C 78 % 13.53 C
2242 18-04-2020 18:45:00 17.4 C 76 % 13.13 C
2243 18-04-2020 18:50:00 17.6 C 75 % 13.12 C
2244 18-04-2020 18:55:00 17.7 C 75 % 13.22 C
2245 18-04-2020 19:00:00 17.8 C 74 % 13.11 C
2246 18-04-2020 19:05:00 17.9 C 73 % 12.99 C
2247 18-04-2020 19:10:00 17.8 C 73 % 12.9 C
2248 18-04-2020 19:15:00 17.7 C 73 % 12.8 C
2249 18-04-2020 19:20:00 17.6 C 73 % 12.71 C
2250 18-04-2020 19:25:00 17.6 C 74 % 12.91 C
Sensor: Nr:Datum:Temp:Feuchte:Taupunkt:
Aussen-T/F 2251 18-04-2020 19:30:00 17.5 C 74 % 12.82 C
2252 18-04-2020 19:35:00 17.6 C 74 % 12.91 C
2253 18-04-2020 19:40:00 17.8 C 74 % 13.11 C
2254 18-04-2020 19:45:00 17.9 C 73 % 12.99 C
2255 18-04-2020 19:50:00 17.9 C 73 % 12.99 C
2256 18-04-2020 19:55:00 17.8 C 72 % 12.69 C
2257 18-04-2020 20:00:00 17.7 C 71 % 12.38 C
2258 18-04-2020 20:05:00 17.6 C 71 % 12.28 C
2259 18-04-2020 20:10:00 17.4 C 72 % 12.3 C
2260 18-04-2020 20:15:00 17.2 C 72 % 12.11 C
2261 18-04-2020 20:20:00 17 C 73 % 12.13 C
2262 18-04-2020 20:25:00 16.7 C 74 % 12.05 C
2263 18-04-2020 20:30:00 16.4 C 76 % 12.16 C
2264 18-04-2020 20:35:00 16.1 C 77 % 12.07 C
2265 18-04-2020 20:40:00 15.8 C 78 % 11.97 C
2266 18-04-2020 20:45:00 15.6 C 79 % 11.97 C
2267 18-04-2020 20:50:00 15.3 C 80 % 11.87 C
2268 18-04-2020 20:55:00 15.2 C 81 % 11.96 C
2269 18-04-2020 21:00:00 15 C 82 % 11.95 C
2270 18-04-2020 21:05:00 14.9 C 82 % 11.86 C
2271 18-04-2020 21:10:00 14.9 C 83 % 12.04 C
2272 18-04-2020 21:15:00 14.9 C 83 % 12.04 C
2273 18-04-2020 21:20:00 14.9 C 83 % 12.04 C
2274 18-04-2020 21:25:00 14.9 C 83 % 12.04 C
2275 18-04-2020 21:30:00 15 C 82 % 11.95 C
Sensor: Nr:Datum:Temp:Feuchte:Taupunkt:
Aussen-T/F 2276 18-04-2020 21:35:00 15 C 82 % 11.95 C
2277 18-04-2020 21:40:00 15.1 C 82 % 12.05 C
2278 18-04-2020 21:45:00 15 C 82 % 11.95 C
2279 18-04-2020 21:50:00 15 C 83 % 12.14 C
2280 18-04-2020 21:55:00 14.9 C 83 % 12.04 C
2281 18-04-2020 22:00:00 14.8 C 83 % 11.94 C
2282 18-04-2020 22:05:00 14.7 C 83 % 11.85 C
2283 18-04-2020 22:10:00 14.7 C 84 % 12.03 C
2284 18-04-2020 22:15:00 14.6 C 84 % 11.93 C
2285 18-04-2020 22:20:00 14.5 C 84 % 11.83 C
2286 18-04-2020 22:25:00 14.3 C 83 % 11.45 C
2287 18-04-2020 22:30:00 14.1 C 84 % 11.44 C
2288 18-04-2020 22:35:00 13.9 C 84 % 11.24 C
2289 18-04-2020 22:40:00 13.7 C 85 % 11.23 C
2290 18-04-2020 22:45:00 13.5 C 85 % 11.03 C
2291 18-04-2020 22:50:00 13.3 C 86 % 11.01 C
2292 18-04-2020 22:55:00 13.2 C 86 % 10.91 C
2293 18-04-2020 23:00:00 13.2 C 87 % 11.09 C
2294 18-04-2020 23:05:00 13.1 C 87 % 10.99 C
2295 18-04-2020 23:10:00 13 C 88 % 11.06 C
2296 18-04-2020 23:15:00 12.9 C 88 % 10.96 C
2297 18-04-2020 23:20:00 12.8 C 88 % 10.86 C
2298 18-04-2020 23:25:00 12.7 C 88 % 10.77 C
2299 18-04-2020 23:30:00 12.6 C 88 % 10.67 C
2300 18-04-2020 23:35:00 12.4 C 88 % 10.47 C
Sensor: Nr:Datum:Temp:Feuchte:Taupunkt:
Aussen-T/F 2301 18-04-2020 23:40:00 12.3 C 88 % 10.37 C
2302 18-04-2020 23:45:00 12.2 C 89 % 10.44 C
2303 18-04-2020 23:50:00 12 C 89 % 10.25 C
2304 18-04-2020 23:55:00 11.8 C 89 % 10.05 C
2305 19-04-2020 00:00:00 11.7 C 89 % 9.95 C
2306 19-04-2020 00:05:00 11.6 C 90 % 10.02 C
2307 19-04-2020 00:10:00 11.4 C 90 % 9.82 C
2308 19-04-2020 00:15:00 11.3 C 90 % 9.72 C
2309 19-04-2020 00:20:00 11.2 C 90 % 9.62 C
2310 19-04-2020 00:25:00 11.1 C 91 % 9.69 C
2311 19-04-2020 00:30:00 11.1 C 91 % 9.69 C
2312 19-04-2020 00:35:00 11 C 92 % 9.75 C
2313 19-04-2020 00:40:00 10.9 C 92 % 9.65 C
2314 19-04-2020 00:45:00 10.8 C 92 % 9.55 C
2315 19-04-2020 00:50:00 10.8 C 92 % 9.55 C
2316 19-04-2020 00:55:00 10.7 C 92 % 9.45 C
2317 19-04-2020 01:00:00 10.6 C 92 % 9.36 C
2318 19-04-2020 01:05:00 10.5 C 92 % 9.26 C
2319 19-04-2020 01:10:00 10.5 C 93 % 9.42 C
2320 19-04-2020 01:15:00 10.5 C 93 % 9.42 C
2321 19-04-2020 01:20:00 10.4 C 93 % 9.32 C
2322 19-04-2020 01:25:00 10.3 C 93 % 9.22 C
2323 19-04-2020 01:30:00 10.2 C 93 % 9.12 C
2324 19-04-2020 01:35:00 10.2 C 93 % 9.12 C
2325 19-04-2020 01:40:00 10.2 C 93 % 9.12 C
Sensor: Nr:Datum:Temp:Feuchte:Taupunkt:
Aussen-T/F 2326 19-04-2020 01:45:00 10.2 C 94 % 9.28 C
2327 19-04-2020 01:50:00 10.2 C 94 % 9.28 C
2328 19-04-2020 01:55:00 10.1 C 94 % 9.18 C
2329 19-04-2020 02:00:00 10 C 93 % 8.92 C
2330 19-04-2020 02:05:00 9.9 C 94 % 8.98 C
2331 19-04-2020 02:10:00 10 C 94 % 9.08 C
2332 19-04-2020 02:15:00 10.1 C 94 % 9.18 C
2333 19-04-2020 02:20:00 10.1 C 94 % 9.18 C
2334 19-04-2020 02:25:00 10.2 C 94 % 9.28 C
2335 19-04-2020 02:30:00 10.2 C 94 % 9.28 C
2336 19-04-2020 02:35:00 10.2 C 94 % 9.28 C
2337 19-04-2020 02:40:00 10.2 C 95 % 9.44 C
2338 19-04-2020 02:45:00 10.2 C 95 % 9.44 C
2339 19-04-2020 02:50:00 10.2 C 94 % 9.28 C
2340 19-04-2020 02:55:00 10.2 C 94 % 9.28 C
2341 19-04-2020 03:00:00 10.2 C 94 % 9.28 C
2342 19-04-2020 03:05:00 10.1 C 94 % 9.18 C
2343 19-04-2020 03:10:00 9.9 C 94 % 8.98 C
2344 19-04-2020 03:15:00 9.8 C 94 % 8.88 C
2345 19-04-2020 03:20:00 9.8 C 94 % 8.88 C
2346 19-04-2020 03:25:00 9.7 C 94 % 8.78 C
2347 19-04-2020 03:30:00 9.7 C 94 % 8.78 C
2348 19-04-2020 03:35:00 9.6 C 94 % 8.68 C
2349 19-04-2020 03:40:00 9.4 C 94 % 8.48 C
2350 19-04-2020 03:45:00 9.3 C 94 % 8.39 C
Sensor: Nr:Datum:Temp:Feuchte:Taupunkt:
Aussen-T/F 2351 19-04-2020 03:50:00 9.2 C 94 % 8.29 C
2352 19-04-2020 03:55:00 9.2 C 95 % 8.44 C
2353 19-04-2020 04:00:00 9.2 C 94 % 8.29 C
2354 19-04-2020 04:05:00 9.1 C 94 % 8.19 C
2355 19-04-2020 04:10:00 9.2 C 95 % 8.44 C
2356 19-04-2020 04:15:00 9.2 C 95 % 8.44 C
2357 19-04-2020 04:20:00 9.4 C 95 % 8.64 C
2358 19-04-2020 04:25:00 9.5 C 96 % 8.89 C
2359 19-04-2020 04:30:00 9.6 C 96 % 8.99 C
2360 19-04-2020 04:35:00 9.7 C 96 % 9.09 C
2361 19-04-2020 04:40:00 9.7 C 96 % 9.09 C
2362 19-04-2020 04:45:00 9.8 C 96 % 9.19 C
2363 19-04-2020 04:50:00 9.8 C 96 % 9.19 C
2364 19-04-2020 04:55:00 9.8 C 96 % 9.19 C
2365 19-04-2020 05:00:00 9.8 C 96 % 9.19 C
2366 19-04-2020 05:05:00 9.9 C 96 % 9.29 C
2367 19-04-2020 05:10:00 9.9 C 96 % 9.29 C
2368 19-04-2020 05:15:00 9.9 C 96 % 9.29 C
2369 19-04-2020 05:20:00 9.9 C 96 % 9.29 C
2370 19-04-2020 05:25:00 9.9 C 96 % 9.29 C
2371 19-04-2020 05:30:00 9.9 C 96 % 9.29 C
2372 19-04-2020 05:35:00 9.9 C 96 % 9.29 C
2373 19-04-2020 05:40:00 9.9 C 96 % 9.29 C
2374 19-04-2020 05:45:00 9.9 C 96 % 9.29 C
2375 19-04-2020 05:50:00 9.9 C 96 % 9.29 C
Sensor: Nr:Datum:Temp:Feuchte:Taupunkt:
Aussen-T/F 2376 19-04-2020 05:55:00 9.9 C 96 % 9.29 C
2377 19-04-2020 06:00:00 10 C 96 % 9.39 C
2378 19-04-2020 06:05:00 10.1 C 96 % 9.49 C
2379 19-04-2020 06:10:00 10.1 C 96 % 9.49 C
2380 19-04-2020 06:15:00 10.1 C 96 % 9.49 C
2381 19-04-2020 06:20:00 10.1 C 96 % 9.49 C
2382 19-04-2020 06:25:00 10.1 C 96 % 9.49 C
2383 19-04-2020 06:30:00 10.2 C 96 % 9.59 C
2384 19-04-2020 06:35:00 10.2 C 96 % 9.59 C
2385 19-04-2020 06:40:00 10.2 C 96 % 9.59 C
2386 19-04-2020 06:45:00 10.2 C 96 % 9.59 C
2387 19-04-2020 06:50:00 10.3 C 96 % 9.69 C
2388 19-04-2020 06:55:00 10.3 C 96 % 9.69 C
2389 19-04-2020 07:00:00 10.3 C 96 % 9.69 C
2390 19-04-2020 07:05:00 10.3 C 96 % 9.69 C
2391 19-04-2020 07:10:00 10.3 C 96 % 9.69 C
2392 19-04-2020 07:15:00 10.3 C 96 % 9.69 C
2393 19-04-2020 07:20:00 10.4 C 96 % 9.79 C
2394 19-04-2020 07:25:00 10.4 C 96 % 9.79 C
2395 19-04-2020 07:30:00 10.4 C 96 % 9.79 C
2396 19-04-2020 07:35:00 10.4 C 96 % 9.79 C
2397 19-04-2020 07:40:00 10.5 C 96 % 9.89 C
2398 19-04-2020 07:45:00 10.5 C 96 % 9.89 C
2399 19-04-2020 07:50:00 10.5 C 96 % 9.89 C
2400 19-04-2020 07:55:00 10.6 C 96 % 9.99 C
Sensor: Nr:Datum:Temp:Feuchte:Taupunkt:
Aussen-T/F 2401 19-04-2020 08:00:00 10.6 C 96 % 9.99 C
2402 19-04-2020 08:05:00 10.6 C 96 % 9.99 C
2403 19-04-2020 08:10:00 10.7 C 96 % 10.09 C
2404 19-04-2020 08:15:00 10.8 C 96 % 10.19 C
2405 19-04-2020 08:20:00 11.1 C 96 % 10.49 C
2406 19-04-2020 08:25:00 11.1 C 96 % 10.49 C
2407 19-04-2020 08:30:00 11.2 C 96 % 10.59 C
2408 19-04-2020 08:35:00 11.3 C 96 % 10.69 C
2409 19-04-2020 08:40:00 11.4 C 96 % 10.79 C
2410 19-04-2020 08:45:00 11.7 C 96 % 11.08 C
2411 19-04-2020 08:50:00 11.8 C 96 % 11.18 C
2412 19-04-2020 08:55:00 11.9 C 96 % 11.28 C
2413 19-04-2020 09:00:00 12 C 95 % 11.22 C
2414 19-04-2020 09:05:00 12.1 C 95 % 11.32 C
2415 19-04-2020 09:10:00 12.2 C 95 % 11.42 C
2416 19-04-2020 09:15:00 12.3 C 94 % 11.36 C
2417 19-04-2020 09:20:00 12.3 C 93 % 11.2 C
2418 19-04-2020 09:25:00 12.4 C 92 % 11.14 C
2419 19-04-2020 09:30:00 12.6 C 92 % 11.34 C
2420 19-04-2020 09:35:00 12.7 C 91 % 11.27 C
2421 19-04-2020 09:40:00 12.8 C 91 % 11.37 C
2422 19-04-2020 09:45:00 12.9 C 91 % 11.47 C
2423 19-04-2020 09:50:00 13 C 89 % 11.23 C
2424 19-04-2020 09:55:00 13.1 C 89 % 11.33 C
2425 19-04-2020 10:00:00 13.2 C 88 % 11.26 C
Sensor: Nr:Datum:Temp:Feuchte:Taupunkt:
Aussen-T/F 2426 19-04-2020 10:05:00 13.3 C 88 % 11.36 C
2427 19-04-2020 10:10:00 13.4 C 87 % 11.28 C
2428 19-04-2020 10:15:00 13.5 C 87 % 11.38 C
2429 19-04-2020 10:20:00 13.8 C 87 % 11.68 C
2430 19-04-2020 10:25:00 14 C 86 % 11.7 C
2431 19-04-2020 10:30:00 14.1 C 84 % 11.44 C
2432 19-04-2020 10:35:00 14.1 C 84 % 11.44 C
2433 19-04-2020 10:40:00 14.3 C 84 % 11.64 C
2434 19-04-2020 10:45:00 14.4 C 83 % 11.55 C
2435 19-04-2020 10:50:00 14.5 C 83 % 11.65 C
2436 19-04-2020 10:55:00 14.6 C 82 % 11.56 C
2437 19-04-2020 11:00:00 14.6 C 81 % 11.38 C
2438 19-04-2020 11:05:00 14.6 C 81 % 11.38 C
2439 19-04-2020 11:10:00 14.4 C 81 % 11.18 C
2440 19-04-2020 11:15:00 14.3 C 82 % 11.27 C
2441 19-04-2020 11:20:00 14.3 C 82 % 11.27 C
2442 19-04-2020 11:25:00 14.3 C 82 % 11.27 C
2443 19-04-2020 11:30:00 14.3 C 82 % 11.27 C
2444 19-04-2020 11:35:00 14.2 C 83 % 11.36 C
2445 19-04-2020 11:40:00 14.2 C 83 % 11.36 C
2446 19-04-2020 11:45:00 14.1 C 83 % 11.26 C
2447 19-04-2020 11:50:00 13.9 C 84 % 11.24 C
2448 19-04-2020 11:55:00 13.9 C 85 % 11.42 C
2449 19-04-2020 12:00:00 13.8 C 84 % 11.15 C
2450 19-04-2020 12:05:00 13.8 C 84 % 11.15 C
Sensor: Nr:Datum:Temp:Feuchte:Taupunkt:
Aussen-T/F 2451 19-04-2020 12:10:00 13.9 C 84 % 11.24 C
2452 19-04-2020 12:15:00 13.9 C 82 % 10.88 C
2453 19-04-2020 12:20:00 14.1 C 82 % 11.08 C
2454 19-04-2020 12:25:00 14.3 C 82 % 11.27 C
2455 19-04-2020 12:30:00 14.4 C 80 % 11 C
2456 19-04-2020 12:35:00 14.6 C 80 % 11.19 C
2457 19-04-2020 12:40:00 14.8 C 78 % 11 C
2458 19-04-2020 12:45:00 14.9 C 77 % 10.91 C
2459 19-04-2020 12:50:00 15.1 C 77 % 11.1 C
2460 19-04-2020 12:55:00 15.3 C 76 % 11.1 C
2461 19-04-2020 13:00:00 15.6 C 75 % 11.19 C
2462 19-04-2020 13:05:00 15.8 C 74 % 11.18 C
2463 19-04-2020 13:10:00 15.9 C 74 % 11.28 C
2464 19-04-2020 13:15:00 15.9 C 73 % 11.07 C
2465 19-04-2020 13:20:00 16 C 73 % 11.17 C
2466 19-04-2020 13:25:00 16.2 C 73 % 11.36 C
2467 19-04-2020 13:30:00 16.3 C 72 % 11.25 C
2468 19-04-2020 13:35:00 16.4 C 72 % 11.34 C
2469 19-04-2020 13:40:00 16.7 C 72 % 11.63 C
2470 19-04-2020 13:45:00 16.8 C 71 % 11.52 C
2471 19-04-2020 13:50:00 16.9 C 70 % 11.4 C
2472 19-04-2020 13:55:00 17.1 C 69 % 11.37 C
2473 19-04-2020 14:00:00 17.1 C 69 % 11.37 C
2474 19-04-2020 14:05:00 17.2 C 68 % 11.25 C
2475 19-04-2020 14:10:00 17.1 C 67 % 10.93 C
Sensor: Nr:Datum:Temp:Feuchte:Taupunkt:
Aussen-T/F 2476 19-04-2020 14:15:00 17.1 C 68 % 11.15 C
2477 19-04-2020 14:20:00 17.2 C 68 % 11.25 C
2478 19-04-2020 14:25:00 17.2 C 68 % 11.25 C
2479 19-04-2020 14:30:00 17 C 68 % 11.06 C
2480 19-04-2020 14:35:00 16.9 C 69 % 11.18 C
2481 19-04-2020 14:40:00 16.9 C 70 % 11.4 C
2482 19-04-2020 14:45:00 17 C 69 % 11.28 C
2483 19-04-2020 14:50:00 17 C 68 % 11.06 C
2484 19-04-2020 14:55:00 16.8 C 69 % 11.09 C
2485 19-04-2020 15:00:00 16.6 C 68 % 10.67 C
2486 19-04-2020 15:05:00 16.5 C 69 % 10.8 C
2487 19-04-2020 15:10:00 16.4 C 67 % 10.26 C
2488 19-04-2020 15:15:00 16.3 C 67 % 10.17 C
2489 19-04-2020 15:20:00 16.3 C 66 % 9.94 C
2490 19-04-2020 15:25:00 16.2 C 66 % 9.85 C
2491 19-04-2020 15:30:00 16.3 C 65 % 9.71 C
2492 19-04-2020 15:35:00 16.3 C 65 % 9.71 C
2493 19-04-2020 15:40:00 16.4 C 65 % 9.81 C
2494 19-04-2020 15:45:00 16.6 C 65 % 10 C
2495 19-04-2020 15:50:00 16.6 C 64 % 9.77 C
2496 19-04-2020 15:55:00 16.7 C 64 % 9.86 C
2497 19-04-2020 16:00:00 16.9 C 65 % 10.28 C
2498 19-04-2020 16:05:00 17.1 C 63 % 10.01 C
2499 19-04-2020 16:10:00 17.3 C 62 % 9.96 C
2500 19-04-2020 16:15:00 17.6 C 61 % 10 C
Sensor: Nr:Datum:Temp:Feuchte:Taupunkt:
Aussen-T/F 2501 19-04-2020 16:20:00 17.8 C 60 % 9.94 C
2502 19-04-2020 16:25:00 17.8 C 59 % 9.69 C
2503 19-04-2020 16:30:00 17.6 C 60 % 9.75 C
2504 19-04-2020 16:35:00 17.4 C 60 % 9.56 C
2505 19-04-2020 16:40:00 17.4 C 60 % 9.56 C
2506 19-04-2020 16:45:00 17.6 C 60 % 9.75 C
2507 19-04-2020 16:50:00 17.8 C 61 % 10.18 C
2508 19-04-2020 16:55:00 18.1 C 59 % 9.97 C
2509 19-04-2020 17:00:00 17.6 C 58 % 9.25 C
2510 19-04-2020 17:05:00 17.1 C 61 % 9.53 C
2511 19-04-2020 17:10:00 17.2 C 61 % 9.62 C
2512 19-04-2020 17:15:00 17.2 C 59 % 9.13 C
2513 19-04-2020 17:20:00 17.4 C 59 % 9.31 C
2514 19-04-2020 17:25:00 17.6 C 58 % 9.25 C
2515 19-04-2020 17:30:00 17.8 C 57 % 9.18 C
2516 19-04-2020 17:35:00 17.4 C 56 % 8.54 C
2517 19-04-2020 17:40:00 17.3 C 58 % 8.97 C
2518 19-04-2020 17:45:00 17.5 C 57 % 8.9 C
2519 19-04-2020 17:50:00 17.4 C 56 % 8.54 C
2520 19-04-2020 17:55:00 17.3 C 56 % 8.45 C
2521 19-04-2020 18:00:00 17.2 C 56 % 8.35 C
2522 19-04-2020 18:05:00 17.3 C 56 % 8.45 C
2523 19-04-2020 18:10:00 17.2 C 57 % 8.62 C
2524 19-04-2020 18:15:00 17.3 C 55 % 8.18 C
2525 19-04-2020 18:20:00 17.4 C 55 % 8.28 C
Sensor: Nr:Datum:Temp:Feuchte:Taupunkt:
Aussen-T/F 2526 19-04-2020 18:25:00 17.5 C 53 % 7.82 C
2527 19-04-2020 18:30:00 17.4 C 53 % 7.73 C
2528 19-04-2020 18:35:00 17.3 C 53 % 7.64 C
2529 19-04-2020 18:40:00 17.3 C 52 % 7.36 C
2530 19-04-2020 18:45:00 17.1 C 51 % 6.89 C
2531 19-04-2020 18:50:00 17.1 C 51 % 6.89 C
2532 19-04-2020 18:55:00 17.3 C 53 % 7.64 C
2533 19-04-2020 19:00:00 17.4 C 51 % 7.17 C
2534 19-04-2020 19:05:00 17.6 C 50 % 7.06 C
2535 19-04-2020 19:10:00 17.3 C 50 % 6.79 C
2536 19-04-2020 19:15:00 17.2 C 51 % 6.98 C
2537 19-04-2020 19:20:00 16.8 C 51 % 6.62 C
2538 19-04-2020 19:25:00 16.6 C 53 % 6.99 C
2539 19-04-2020 19:30:00 16.6 C 52 % 6.71 C
2540 19-04-2020 19:35:00 16.4 C 50 % 5.96 C
2541 19-04-2020 19:40:00 16.2 C 51 % 6.06 C
2542 19-04-2020 19:45:00 16 C 53 % 6.44 C
2543 19-04-2020 19:50:00 15.8 C 54 % 6.52 C
2544 19-04-2020 19:55:00 15.7 C 54 % 6.43 C
2545 19-04-2020 20:00:00 15.4 C 56 % 6.68 C
2546 19-04-2020 20:05:00 15.3 C 57 % 6.84 C
2547 19-04-2020 20:10:00 15.1 C 59 % 7.16 C
2548 19-04-2020 20:15:00 14.8 C 59 % 6.87 C
2549 19-04-2020 20:20:00 14.3 C 61 % 6.89 C
2550 19-04-2020 20:25:00 14 C 61 % 6.61 C
Sensor: Nr:Datum:Temp:Feuchte:Taupunkt:
Aussen-T/F 2551 19-04-2020 20:30:00 13.7 C 63 % 6.79 C
2552 19-04-2020 20:35:00 13.3 C 63 % 6.41 C
2553 19-04-2020 20:40:00 13.1 C 65 % 6.68 C
2554 19-04-2020 20:45:00 12.8 C 66 % 6.61 C
2555 19-04-2020 20:50:00 12.6 C 66 % 6.42 C
2556 19-04-2020 20:55:00 12.4 C 66 % 6.23 C
2557 19-04-2020 21:00:00 12.3 C 67 % 6.36 C
2558 19-04-2020 21:05:00 12.2 C 67 % 6.26 C
2559 19-04-2020 21:10:00 12.1 C 66 % 5.95 C
2560 19-04-2020 21:15:00 12 C 67 % 6.07 C
2561 19-04-2020 21:20:00 11.9 C 68 % 6.19 C
2562 19-04-2020 21:25:00 11.8 C 68 % 6.09 C
2563 19-04-2020 21:30:00 11.7 C 68 % 6 C
2564 19-04-2020 21:35:00 11.6 C 68 % 5.9 C
2565 19-04-2020 21:40:00 11.6 C 68 % 5.9 C
2566 19-04-2020 21:45:00 11.4 C 68 % 5.71 C
2567 19-04-2020 21:50:00 11.4 C 67 % 5.5 C
2568 19-04-2020 21:55:00 11.3 C 67 % 5.4 C
2569 19-04-2020 22:00:00 11.3 C 65 % 4.97 C
2570 19-04-2020 22:05:00 11.4 C 66 % 5.28 C
2571 19-04-2020 22:10:00 11.4 C 65 % 5.06 C
2572 19-04-2020 22:15:00 11.4 C 66 % 5.28 C
2573 19-04-2020 22:20:00 11.3 C 65 % 4.97 C
2574 19-04-2020 22:25:00 11.2 C 65 % 4.87 C
2575 19-04-2020 22:30:00 11.2 C 64 % 4.65 C
Sensor: Nr:Datum:Temp:Feuchte:Taupunkt:
Aussen-T/F 2576 19-04-2020 22:35:00 11.1 C 64 % 4.56 C
2577 19-04-2020 22:40:00 11 C 64 % 4.46 C
2578 19-04-2020 22:45:00 10.8 C 65 % 4.49 C
2579 19-04-2020 22:50:00 10.7 C 63 % 3.95 C
2580 19-04-2020 22:55:00 10.7 C 64 % 4.18 C
2581 19-04-2020 23:00:00 10.8 C 58 % 2.88 C
2582 19-04-2020 23:05:00 11.1 C 62 % 4.11 C
2583 19-04-2020 23:10:00 11.1 C 61 % 3.87 C
2584 19-04-2020 23:15:00 10.8 C 62 % 3.82 C
2585 19-04-2020 23:20:00 10.6 C 63 % 3.86 C
2586 19-04-2020 23:25:00 10.3 C 63 % 3.58 C
2587 19-04-2020 23:30:00 10.2 C 63 % 3.48 C
2588 19-04-2020 23:35:00 10.3 C 61 % 3.12 C
2589 19-04-2020 23:40:00 10.4 C 59 % 2.74 C
2590 19-04-2020 23:45:00 10.6 C 58 % 2.69 C
2591 19-04-2020 23:50:00 10.8 C 61 % 3.59 C
2592 19-04-2020 23:55:00 10.7 C 60 % 3.26 C
2593 20-04-2020 00:00:00 10.7 C 58 % 2.79 C
2594 20-04-2020 00:05:00 10.6 C 60 % 3.17 C
2595 20-04-2020 00:10:00 10.4 C 61 % 3.21 C
2596 20-04-2020 00:15:00 10.2 C 60 % 2.79 C
2597 20-04-2020 00:20:00 10.1 C 57 % 1.98 C
2598 20-04-2020 00:25:00 10.2 C 56 % 1.83 C
2599 20-04-2020 00:30:00 10.3 C 59 % 2.65 C
2600 20-04-2020 00:35:00 10.3 C 58 % 2.41 C
Sensor: Nr:Datum:Temp:Feuchte:Taupunkt:
Aussen-T/F 2601 20-04-2020 00:40:00 10.3 C 59 % 2.65 C
2602 20-04-2020 00:45:00 10.2 C 58 % 2.32 C
2603 20-04-2020 00:50:00 10.2 C 57 % 2.07 C
2604 20-04-2020 00:55:00 10.1 C 59 % 2.46 C
2605 20-04-2020 01:00:00 9.9 C 57 % 1.79 C
2606 20-04-2020 01:05:00 10 C 57 % 1.89 C
2607 20-04-2020 01:10:00 10 C 57 % 1.89 C
2608 20-04-2020 01:15:00 9.9 C 57 % 1.79 C
2609 20-04-2020 01:20:00 9.9 C 58 % 2.04 C
2610 20-04-2020 01:25:00 9.9 C 55 % 1.3 C
2611 20-04-2020 01:30:00 10.1 C 58 % 2.22 C
2612 20-04-2020 01:35:00 9.9 C 57 % 1.79 C
2613 20-04-2020 01:40:00 9.8 C 58 % 1.94 C
2614 20-04-2020 01:45:00 9.7 C 59 % 2.09 C
2615 20-04-2020 01:50:00 9.5 C 60 % 2.13 C
2616 20-04-2020 01:55:00 9.2 C 62 % 2.31 C
2617 20-04-2020 02:00:00 9 C 62 % 2.12 C
2618 20-04-2020 02:05:00 8.8 C 63 % 2.16 C
2619 20-04-2020 02:10:00 8.5 C 62 % 1.65 C
2620 20-04-2020 02:15:00 8.4 C 63 % 1.78 C
2621 20-04-2020 02:20:00 8.3 C 65 % 2.12 C
2622 20-04-2020 02:25:00 8.2 C 64 % 1.81 C
2623 20-04-2020 02:30:00 7.9 C 66 % 1.95 C
2624 20-04-2020 02:35:00 7.8 C 65 % 1.64 C
2625 20-04-2020 02:40:00 7.7 C 67 % 1.97 C
Sensor: Nr:Datum:Temp:Feuchte:Taupunkt:
Aussen-T/F 2626 20-04-2020 02:45:00 7.6 C 66 % 1.67 C
2627 20-04-2020 02:50:00 7.6 C 68 % 2.08 C
2628 20-04-2020 02:55:00 7.5 C 68 % 1.99 C
2629 20-04-2020 03:00:00 7.4 C 66 % 1.48 C
2630 20-04-2020 03:05:00 7.4 C 67 % 1.69 C
2631 20-04-2020 03:10:00 7.4 C 68 % 1.89 C
2632 20-04-2020 03:15:00 7.3 C 68 % 1.8 C
2633 20-04-2020 03:20:00 7.3 C 68 % 1.8 C
2634 20-04-2020 03:25:00 7.2 C 69 % 1.9 C
2635 20-04-2020 03:30:00 7.1 C 68 % 1.61 C
2636 20-04-2020 03:35:00 7.1 C 68 % 1.61 C
2637 20-04-2020 03:40:00 7.2 C 68 % 1.7 C
2638 20-04-2020 03:45:00 7.1 C 69 % 1.81 C
2639 20-04-2020 03:50:00 7.1 C 69 % 1.81 C
2640 20-04-2020 03:55:00 7 C 69 % 1.71 C
2641 20-04-2020 04:00:00 6.9 C 69 % 1.62 C
2642 20-04-2020 04:05:00 6.8 C 70 % 1.72 C
2643 20-04-2020 04:10:00 6.7 C 70 % 1.63 C
2644 20-04-2020 04:15:00 6.7 C 70 % 1.63 C
2645 20-04-2020 04:20:00 6.6 C 70 % 1.53 C
2646 20-04-2020 04:25:00 6.6 C 70 % 1.53 C
2647 20-04-2020 04:30:00 6.6 C 70 % 1.53 C
2648 20-04-2020 04:35:00 6.6 C 70 % 1.53 C
2649 20-04-2020 04:40:00 6.5 C 70 % 1.43 C
2650 20-04-2020 04:45:00 6.5 C 70 % 1.43 C
Sensor: Nr:Datum:Temp:Feuchte:Taupunkt:
Aussen-T/F 2651 20-04-2020 04:50:00 6.4 C 71 % 1.54 C
2652 20-04-2020 04:55:00 6.4 C 70 % 1.34 C
2653 20-04-2020 05:00:00 6.4 C 69 % 1.14 C
2654 20-04-2020 05:05:00 6.6 C 70 % 1.53 C
2655 20-04-2020 05:10:00 6.6 C 70 % 1.53 C
2656 20-04-2020 05:15:00 6.7 C 70 % 1.63 C
2657 20-04-2020 05:20:00 6.7 C 70 % 1.63 C
2658 20-04-2020 05:25:00 6.7 C 70 % 1.63 C
2659 20-04-2020 05:30:00 6.6 C 70 % 1.53 C
2660 20-04-2020 05:35:00 6.6 C 71 % 1.73 C
2661 20-04-2020 05:40:00 6.5 C 70 % 1.43 C
2662 20-04-2020 05:45:00 6.5 C 70 % 1.43 C
2663 20-04-2020 05:50:00 6.5 C 71 % 1.63 C
2664 20-04-2020 05:55:00 6.5 C 71 % 1.63 C
2665 20-04-2020 06:00:00 6.4 C 71 % 1.54 C
2666 20-04-2020 06:05:00 6.4 C 71 % 1.54 C
2667 20-04-2020 06:10:00 6.4 C 71 % 1.54 C
2668 20-04-2020 06:15:00 6.3 C 71 % 1.44 C
2669 20-04-2020 06:20:00 6.3 C 70 % 1.24 C
2670 20-04-2020 06:25:00 6.3 C 71 % 1.44 C
2671 20-04-2020 06:30:00 6.4 C 70 % 1.34 C
2672 20-04-2020 06:35:00 6.5 C 71 % 1.63 C
2673 20-04-2020 06:40:00 6.4 C 71 % 1.54 C
2674 20-04-2020 06:45:00 6.4 C 72 % 1.73 C
2675 20-04-2020 06:50:00 6.3 C 72 % 1.63 C
Sensor: Nr:Datum:Temp:Feuchte:Taupunkt:
Aussen-T/F 2676 20-04-2020 06:55:00 6.3 C 72 % 1.63 C
2677 20-04-2020 07:00:00 6.4 C 70 % 1.34 C
2678 20-04-2020 07:05:00 6.5 C 70 % 1.43 C
2679 20-04-2020 07:10:00 6.7 C 70 % 1.63 C
2680 20-04-2020 07:15:00 6.7 C 70 % 1.63 C
2681 20-04-2020 07:20:00 6.7 C 70 % 1.63 C
2682 20-04-2020 07:25:00 6.7 C 72 % 2.02 C
2683 20-04-2020 07:30:00 6.8 C 68 % 1.32 C
2684 20-04-2020 07:35:00 6.9 C 70 % 1.82 C
2685 20-04-2020 07:40:00 7.1 C 67 % 1.4 C
2686 20-04-2020 07:45:00 7.3 C 67 % 1.59 C
2687 20-04-2020 07:50:00 7.4 C 65 % 1.26 C
2688 20-04-2020 07:55:00 7.7 C 65 % 1.55 C
2689 20-04-2020 08:00:00 7.8 C 65 % 1.64 C
2690 20-04-2020 08:05:00 7.9 C 65 % 1.74 C
2691 20-04-2020 08:10:00 8.1 C 63 % 1.49 C
2692 20-04-2020 08:15:00 8.2 C 62 % 1.37 C
2693 20-04-2020 08:20:00 8.4 C 64 % 2 C
2694 20-04-2020 08:25:00 8.4 C 64 % 2 C
2695 20-04-2020 08:30:00 8.4 C 63 % 1.78 C
2696 20-04-2020 08:35:00 8.4 C 64 % 2 C
2697 20-04-2020 08:40:00 8.4 C 63 % 1.78 C
2698 20-04-2020 08:45:00 8.5 C 62 % 1.65 C
2699 20-04-2020 08:50:00 8.7 C 63 % 2.06 C
2700 20-04-2020 08:55:00 8.8 C 62 % 1.93 C
Sensor: Nr:Datum:Temp:Feuchte:Taupunkt:
Aussen-T/F 2701 20-04-2020 09:00:00 8.8 C 62 % 1.93 C
2702 20-04-2020 09:05:00 8.9 C 62 % 2.03 C
2703 20-04-2020 09:10:00 8.9 C 64 % 2.47 C
2704 20-04-2020 09:15:00 9 C 61 % 1.89 C
2705 20-04-2020 09:20:00 9 C 64 % 2.57 C
2706 20-04-2020 09:25:00 9.1 C 65 % 2.88 C
2707 20-04-2020 09:30:00 9 C 62 % 2.12 C
2708 20-04-2020 09:35:00 9.3 C 65 % 3.07 C
2709 20-04-2020 09:40:00 9.4 C 61 % 2.27 C
2710 20-04-2020 09:45:00 9.7 C 60 % 2.32 C
2711 20-04-2020 09:50:00 9.7 C 63 % 3.01 C
2712 20-04-2020 09:55:00 9.7 C 60 % 2.32 C
2713 20-04-2020 10:00:00 9.9 C 61 % 2.74 C
2714 20-04-2020 10:05:00 10.1 C 61 % 2.93 C
2715 20-04-2020 10:10:00 10.4 C 58 % 2.5 C
2716 20-04-2020 10:15:00 10.7 C 57 % 2.54 C
2717 20-04-2020 10:20:00 11.2 C 54 % 2.25 C
2718 20-04-2020 10:25:00 11.5 C 54 % 2.53 C
2719 20-04-2020 10:30:00 11.8 C 52 % 2.28 C
2720 20-04-2020 10:35:00 12.1 C 55 % 3.34 C
2721 20-04-2020 10:40:00 12.2 C 52 % 2.65 C
2722 20-04-2020 10:45:00 12.5 C 51 % 2.65 C
2723 20-04-2020 10:50:00 12.7 C 49 % 2.27 C
2724 20-04-2020 10:55:00 13 C 49 % 2.55 C
2725 20-04-2020 11:00:00 13.3 C 46 % 1.94 C
Sensor: Nr:Datum:Temp:Feuchte:Taupunkt:
Aussen-T/F 2726 20-04-2020 11:05:00 13.4 C 46 % 2.03 C
2727 20-04-2020 11:10:00 13.7 C 46 % 2.3 C
2728 20-04-2020 11:15:00 13.8 C 45 % 2.09 C
2729 20-04-2020 11:20:00 13.9 C 47 % 2.79 C
2730 20-04-2020 11:25:00 14.2 C 49 % 3.65 C
2731 20-04-2020 11:30:00 14.3 C 43 % 1.91 C
2732 20-04-2020 11:35:00 14.4 C 44 % 2.32 C
2733 20-04-2020 11:40:00 14.6 C 43 % 2.18 C
2734 20-04-2020 11:45:00 14.7 C 43 % 2.27 C
2735 20-04-2020 11:50:00 14.8 C 42 % 2.03 C
2736 20-04-2020 11:55:00 14.9 C 41 % 1.78 C
2737 20-04-2020 12:00:00 14.9 C 41 % 1.78 C
2738 20-04-2020 12:05:00 15 C 43 % 2.54 C
2739 20-04-2020 12:10:00 15 C 40 % 1.53 C
2740 20-04-2020 12:15:00 14.9 C 40 % 1.44 C
2741 20-04-2020 12:20:00 14.9 C 41 % 1.78 C
2742 20-04-2020 12:25:00 15.1 C 40 % 1.62 C
2743 20-04-2020 12:30:00 15.1 C 39 % 1.26 C
2744 20-04-2020 12:35:00 15.1 C 39 % 1.26 C
2745 20-04-2020 12:40:00 15.1 C 39 % 1.26 C
2746 20-04-2020 12:45:00 15.1 C 40 % 1.62 C
2747 20-04-2020 12:50:00 15.2 C 40 % 1.71 C
2748 20-04-2020 12:55:00 15.3 C 39 % 1.44 C
2749 20-04-2020 13:00:00 15.4 C 39 % 1.53 C
2750 20-04-2020 13:05:00 15.5 C 38 % 1.26 C
Sensor: Nr:Datum:Temp:Feuchte:Taupunkt:
Aussen-T/F 2751 20-04-2020 13:10:00 15.7 C 41 % 2.5 C
2752 20-04-2020 13:15:00 15.9 C 38 % 1.62 C
2753 20-04-2020 13:20:00 15.8 C 38 % 1.53 C
2754 20-04-2020 13:25:00 15.9 C 38 % 1.62 C
2755 20-04-2020 13:30:00 16.1 C 37 % 1.42 C
2756 20-04-2020 13:35:00 16.2 C 38 % 1.88 C
2757 20-04-2020 13:40:00 16.3 C 37 % 1.6 C
2758 20-04-2020 13:45:00 16.4 C 37 % 1.69 C
2759 20-04-2020 13:50:00 16.4 C 38 % 2.06 C
2760 20-04-2020 13:55:00 16.7 C 36 % 1.57 C
2761 20-04-2020 14:00:00 16.8 C 37 % 2.04 C
2762 20-04-2020 14:05:00 16.9 C 36 % 1.75 C
2763 20-04-2020 14:10:00 16.9 C 35 % 1.36 C
2764 20-04-2020 14:15:00 17 C 35 % 1.45 C
2765 20-04-2020 14:20:00 17.1 C 37 % 2.31 C
2766 20-04-2020 14:25:00 17.3 C 33 % 0.89 C
2767 20-04-2020 14:30:00 17.3 C 34 % 1.31 C
2768 20-04-2020 14:35:00 17.3 C 34 % 1.31 C
2769 20-04-2020 14:40:00 17.5 C 34 % 1.48 C
2770 20-04-2020 14:45:00 17.6 C 34 % 1.57 C
2771 20-04-2020 14:50:00 17.7 C 34 % 1.66 C
2772 20-04-2020 14:55:00 17.8 C 34 % 1.75 C
2773 20-04-2020 15:00:00 17.9 C 34 % 1.83 C
2774 20-04-2020 15:05:00 18.1 C 32 % 1.17 C
2775 20-04-2020 15:10:00 18 C 32 % 1.08 C
Sensor: Nr:Datum:Temp:Feuchte:Taupunkt:
Aussen-T/F 2776 20-04-2020 15:15:00 18.1 C 32 % 1.17 C
2777 20-04-2020 15:20:00 18.2 C 32 % 1.25 C
2778 20-04-2020 15:25:00 18.3 C 33 % 1.77 C
2779 20-04-2020 15:30:00 18.5 C 33 % 1.94 C
2780 20-04-2020 15:35:00 18.6 C 32 % 1.6 C
2781 20-04-2020 15:40:00 18.7 C 31 % 1.25 C
2782 20-04-2020 15:45:00 18.8 C 31 % 1.33 C
2783 20-04-2020 15:50:00 18.8 C 31 % 1.33 C
2784 20-04-2020 15:55:00 18.9 C 31 % 1.42 C
2785 20-04-2020 16:00:00 19 C 30 % 1.05 C
2786 20-04-2020 16:05:00 19.1 C 31 % 1.59 C
2787 20-04-2020 16:10:00 19.2 C 30 % 1.23 C
2788 20-04-2020 16:15:00 19.3 C 30 % 1.31 C
2789 20-04-2020 16:20:00 19.5 C 30 % 1.48 C
2790 20-04-2020 16:25:00 19.7 C 31 % 2.12 C
2791 20-04-2020 16:30:00 19.9 C 30 % 1.83 C
2792 20-04-2020 16:35:00 19.6 C 30 % 1.57 C
2793 20-04-2020 16:40:00 19.3 C 31 % 1.77 C
2794 20-04-2020 16:45:00 19.7 C 32 % 2.56 C
2795 20-04-2020 16:50:00 19.8 C 30 % 1.74 C
2796 20-04-2020 16:55:00 19.9 C 32 % 2.73 C
2797 20-04-2020 17:00:00 20.3 C 31 % 2.64 C
2798 20-04-2020 17:05:00 20.6 C 31 % 2.9 C
2799 20-04-2020 17:10:00 20.3 C 30 % 2.18 C
2800 20-04-2020 17:15:00 20.1 C 31 % 2.46 C
Sensor: Nr:Datum:Temp:Feuchte:Taupunkt:
Aussen-T/F 2801 20-04-2020 17:20:00 20.1 C 30 % 2 C
2802 20-04-2020 17:25:00 19.9 C 31 % 2.29 C
2803 20-04-2020 17:30:00 19.5 C 32 % 2.39 C
2804 20-04-2020 17:35:00 19.2 C 34 % 2.98 C
2805 20-04-2020 17:40:00 19.3 C 33 % 2.64 C
2806 20-04-2020 17:45:00 19.6 C 33 % 2.91 C
2807 20-04-2020 17:50:00 19.7 C 33 % 2.99 C
2808 20-04-2020 17:55:00 19.4 C 36 % 3.96 C
2809 20-04-2020 18:00:00 19.2 C 42 % 5.99 C
2810 20-04-2020 18:05:00 18.5 C 36 % 3.17 C
2811 20-04-2020 18:10:00 18.4 C 39 % 4.21 C
2812 20-04-2020 18:15:00 18.6 C 37 % 3.64 C
2813 20-04-2020 18:20:00 18.7 C 36 % 3.34 C
2814 20-04-2020 18:25:00 18.6 C 36 % 3.25 C
2815 20-04-2020 18:30:00 18.6 C 35 % 2.86 C
2816 20-04-2020 18:35:00 18.6 C 35 % 2.86 C
2817 20-04-2020 18:40:00 18.7 C 35 % 2.94 C
2818 20-04-2020 18:45:00 18.6 C 37 % 3.64 C
2819 20-04-2020 18:50:00 18.7 C 35 % 2.94 C
2820 20-04-2020 18:55:00 18.8 C 35 % 3.03 C
2821 20-04-2020 19:00:00 18.6 C 35 % 2.86 C
2822 20-04-2020 19:05:00 18.4 C 35 % 2.68 C
2823 20-04-2020 19:10:00 18.2 C 38 % 3.66 C
2824 20-04-2020 19:15:00 18.2 C 35 % 2.5 C
2825 20-04-2020 19:20:00 17.9 C 36 % 2.63 C
Sensor: Nr:Datum:Temp:Feuchte:Taupunkt:
Aussen-T/F 2826 20-04-2020 19:25:00 17.6 C 37 % 2.75 C
2827 20-04-2020 19:30:00 17.4 C 37 % 2.58 C
2828 20-04-2020 19:35:00 17.4 C 37 % 2.58 C
2829 20-04-2020 19:40:00 17.2 C 36 % 2.02 C
2830 20-04-2020 19:45:00 17 C 37 % 2.22 C
2831 20-04-2020 19:50:00 16.8 C 36 % 1.66 C
2832 20-04-2020 19:55:00 16.7 C 36 % 1.57 C
2833 20-04-2020 20:00:00 16.5 C 38 % 2.15 C
2834 20-04-2020 20:05:00 16.3 C 38 % 1.97 C
2835 20-04-2020 20:10:00 16.1 C 38 % 1.79 C
2836 20-04-2020 20:15:00 15.9 C 39 % 1.98 C
2837 20-04-2020 20:20:00 15.7 C 40 % 2.15 C
2838 20-04-2020 20:25:00 15.4 C 42 % 2.57 C
2839 20-04-2020 20:30:00 15.1 C 42 % 2.3 C
2840 20-04-2020 20:35:00 14.8 C 41 % 1.69 C
2841 20-04-2020 20:40:00 14.7 C 40 % 1.26 C
2842 20-04-2020 20:45:00 14.7 C 41 % 1.6 C
2843 20-04-2020 20:50:00 14.6 C 42 % 1.85 C
2844 20-04-2020 20:55:00 14.4 C 42 % 1.67 C
2845 20-04-2020 21:00:00 14.2 C 42 % 1.49 C
2846 20-04-2020 21:05:00 14.1 C 41 % 1.06 C
2847 20-04-2020 21:10:00 13.9 C 43 % 1.54 C
2848 20-04-2020 21:15:00 13.7 C 44 % 1.68 C
2849 20-04-2020 21:20:00 13.4 C 45 % 1.72 C
2850 20-04-2020 21:25:00 13.2 C 44 % 1.23 C
Sensor: Nr:Datum:Temp:Feuchte:Taupunkt:
Aussen-T/F 2851 20-04-2020 21:30:00 13.1 C 47 % 2.06 C
2852 20-04-2020 21:35:00 12.7 C 45 % 1.09 C
2853 20-04-2020 21:40:00 12.6 C 46 % 1.3 C
2854 20-04-2020 21:45:00 12.4 C 47 % 1.42 C
2855 20-04-2020 21:50:00 12.6 C 45 % 1 C
2856 20-04-2020 21:55:00 12.7 C 44 % 0.78 C
2857 20-04-2020 22:00:00 12.7 C 47 % 1.69 C
2858 20-04-2020 22:05:00 12.6 C 45 % 1 C
2859 20-04-2020 22:10:00 12.6 C 45 % 1 C
2860 20-04-2020 22:15:00 12.5 C 48 % 1.8 C
2861 20-04-2020 22:20:00 12.3 C 47 % 1.33 C
2862 20-04-2020 22:25:00 12.4 C 45 % 0.81 C
2863 20-04-2020 22:30:00 12.4 C 45 % 0.81 C
2864 20-04-2020 22:35:00 12.4 C 46 % 1.12 C
2865 20-04-2020 22:40:00 12.4 C 45 % 0.81 C
2866 20-04-2020 22:45:00 12.4 C 46 % 1.12 C
2867 20-04-2020 22:50:00 12.2 C 47 % 1.24 C
2868 20-04-2020 22:55:00 12 C 47 % 1.05 C
2869 20-04-2020 23:00:00 11.9 C 46 % 0.66 C
2870 20-04-2020 23:05:00 11.8 C 47 % 0.87 C
2871 20-04-2020 23:10:00 11.8 C 46 % 0.57 C
2872 20-04-2020 23:15:00 11.7 C 45 % 0.18 C
2873 20-04-2020 23:20:00 11.8 C 48 % 1.16 C
2874 20-04-2020 23:25:00 11.6 C 47 % 0.69 C
2875 20-04-2020 23:30:00 11.6 C 46 % 0.39 C
Sensor: Nr:Datum:Temp:Feuchte:Taupunkt:
Aussen-T/F 2876 20-04-2020 23:35:00 11.7 C 46 % 0.48 C
2877 20-04-2020 23:40:00 11.7 C 45 % 0.18 C
2878 20-04-2020 23:45:00 11.6 C 45 % 0.09 C
2879 20-04-2020 23:50:00 11.6 C 47 % 0.69 C
2880 20-04-2020 23:55:00 11.5 C 46 % 0.3 C
2881 21-04-2020 00:00:00 11.4 C 47 % 0.5 C
2882 21-04-2020 00:05:00 11.3 C 48 % 0.7 C
2883 21-04-2020 00:10:00 11.1 C 48 % 0.52 C
2884 21-04-2020 00:15:00 11.2 C 46 % 0.02 C
2885 21-04-2020 00:20:00 11.2 C 47 % 0.32 C
2886 21-04-2020 00:25:00 11.1 C 47 % 0.23 C
2887 21-04-2020 00:30:00 10.9 C 50 % 0.9 C
2888 21-04-2020 00:35:00 10.7 C 49 % 0.44 C
2889 21-04-2020 00:40:00 10.6 C 48 % 0.06 C
2890 21-04-2020 00:45:00 10.8 C 49 % 0.53 C
2891 21-04-2020 00:50:00 10.8 C 50 % 0.81 C
2892 21-04-2020 00:55:00 10.6 C 51 % 0.9 C
2893 21-04-2020 01:00:00 10.3 C 51 % 0.62 C
2894 21-04-2020 01:05:00 10 C 53 % 0.87 C
2895 21-04-2020 01:10:00 9.8 C 54 % 0.95 C
2896 21-04-2020 01:15:00 9.5 C 55 % 0.92 C
2897 21-04-2020 01:20:00 9.3 C 55 % 0.74 C
2898 21-04-2020 01:25:00 9.2 C 56 % 0.89 C
2899 21-04-2020 01:30:00 9.3 C 56 % 0.99 C
2900 21-04-2020 01:35:00 9.2 C 56 % 0.89 C
Sensor: Nr:Datum:Temp:Feuchte:Taupunkt:
Aussen-T/F 2901 21-04-2020 01:40:00 9.1 C 57 % 1.04 C
2902 21-04-2020 01:45:00 8.9 C 56 % 0.61 C
2903 21-04-2020 01:50:00 8.9 C 57 % 0.86 C
2904 21-04-2020 01:55:00 8.8 C 58 % 1 C
2905 21-04-2020 02:00:00 8.8 C 55 % 0.27 C
2906 21-04-2020 02:05:00 9.2 C 57 % 1.14 C
2907 21-04-2020 02:10:00 9.2 C 57 % 1.14 C
2908 21-04-2020 02:15:00 9.3 C 54 % 0.48 C
2909 21-04-2020 02:20:00 9.4 C 55 % 0.83 C
2910 21-04-2020 02:25:00 9.5 C 54 % 0.67 C
2911 21-04-2020 02:30:00 9.5 C 54 % 0.67 C
2912 21-04-2020 02:35:00 9.5 C 56 % 1.17 C
2913 21-04-2020 02:40:00 9.5 C 55 % 0.92 C
2914 21-04-2020 02:45:00 9.7 C 54 % 0.86 C
2915 21-04-2020 02:50:00 9.7 C 53 % 0.6 C
2916 21-04-2020 02:55:00 9.7 C 54 % 0.86 C
2917 21-04-2020 03:00:00 9.7 C 52 % 0.33 C
2918 21-04-2020 03:05:00 9.8 C 53 % 0.69 C
2919 21-04-2020 03:10:00 9.8 C 54 % 0.95 C
2920 21-04-2020 03:15:00 9.7 C 55 % 1.11 C
2921 21-04-2020 03:20:00 9.6 C 53 % 0.5 C
2922 21-04-2020 03:25:00 9.7 C 53 % 0.6 C
2923 21-04-2020 03:30:00 9.7 C 55 % 1.11 C
2924 21-04-2020 03:35:00 9.6 C 56 % 1.27 C
2925 21-04-2020 03:40:00 9.4 C 57 % 1.33 C
Sensor: Nr:Datum:Temp:Feuchte:Taupunkt:
Aussen-T/F 2926 21-04-2020 03:45:00 9.2 C 56 % 0.89 C
2927 21-04-2020 03:50:00 9.1 C 55 % 0.55 C
2928 21-04-2020 03:55:00 9.2 C 58 % 1.38 C
2929 21-04-2020 04:00:00 9.1 C 58 % 1.29 C
2930 21-04-2020 04:05:00 8.9 C 58 % 1.1 C
2931 21-04-2020 04:10:00 8.8 C 59 % 1.24 C
2932 21-04-2020 04:15:00 8.5 C 61 % 1.42 C
2933 21-04-2020 04:20:00 8.3 C 61 % 1.23 C
2934 21-04-2020 04:25:00 8.3 C 60 % 1 C
2935 21-04-2020 04:30:00 8.3 C 60 % 1 C
2936 21-04-2020 04:35:00 8.3 C 62 % 1.46 C
2937 21-04-2020 04:40:00 8.2 C 61 % 1.14 C
2938 21-04-2020 04:45:00 8.2 C 62 % 1.37 C
2939 21-04-2020 04:50:00 8.1 C 62 % 1.27 C
2940 21-04-2020 04:55:00 8.1 C 61 % 1.05 C
2941 21-04-2020 05:00:00 8.1 C 63 % 1.49 C
2942 21-04-2020 05:05:00 8.1 C 61 % 1.05 C
2943 21-04-2020 05:10:00 8.2 C 61 % 1.14 C
2944 21-04-2020 05:15:00 8.2 C 62 % 1.37 C
2945 21-04-2020 05:20:00 8.1 C 62 % 1.27 C
2946 21-04-2020 05:25:00 8.1 C 63 % 1.49 C
2947 21-04-2020 05:30:00 7.9 C 63 % 1.3 C
2948 21-04-2020 05:35:00 7.8 C 64 % 1.43 C
2949 21-04-2020 05:40:00 7.6 C 66 % 1.67 C
2950 21-04-2020 05:45:00 7.3 C 65 % 1.17 C
Sensor: Nr:Datum:Temp:Feuchte:Taupunkt:
Aussen-T/F 2951 21-04-2020 05:50:00 7.3 C 66 % 1.38 C
2952 21-04-2020 05:55:00 7.2 C 67 % 1.49 C
2953 21-04-2020 06:00:00 7.1 C 67 % 1.4 C
2954 21-04-2020 06:05:00 7.2 C 67 % 1.49 C
2955 21-04-2020 06:10:00 7.2 C 67 % 1.49 C
2956 21-04-2020 06:15:00 7.2 C 67 % 1.49 C
2957 21-04-2020 06:20:00 7.2 C 66 % 1.29 C
2958 21-04-2020 06:25:00 7.2 C 67 % 1.49 C
2959 21-04-2020 06:30:00 7.1 C 68 % 1.61 C
2960 21-04-2020 06:35:00 6.9 C 68 % 1.41 C
2961 21-04-2020 06:40:00 6.8 C 68 % 1.32 C
2962 21-04-2020 06:45:00 6.8 C 69 % 1.52 C
2963 21-04-2020 06:50:00 6.8 C 69 % 1.52 C
2964 21-04-2020 06:55:00 6.7 C 70 % 1.63 C
2965 21-04-2020 07:00:00 6.7 C 70 % 1.63 C
2966 21-04-2020 07:05:00 6.7 C 70 % 1.63 C
2967 21-04-2020 07:10:00 6.7 C 70 % 1.63 C
2968 21-04-2020 07:15:00 6.7 C 70 % 1.63 C
2969 21-04-2020 07:20:00 6.8 C 70 % 1.72 C
2970 21-04-2020 07:25:00 6.8 C 70 % 1.72 C
2971 21-04-2020 07:30:00 6.9 C 69 % 1.62 C
2972 21-04-2020 07:35:00 6.9 C 69 % 1.62 C
2973 21-04-2020 07:40:00 7.2 C 67 % 1.49 C
2974 21-04-2020 07:45:00 7.4 C 67 % 1.69 C
2975 21-04-2020 07:50:00 7.4 C 68 % 1.89 C
Sensor: Nr:Datum:Temp:Feuchte:Taupunkt:
Aussen-T/F 2976 21-04-2020 07:55:00 7.4 C 69 % 2.1 C
2977 21-04-2020 08:00:00 7.4 C 67 % 1.69 C
2978 21-04-2020 08:05:00 7.7 C 67 % 1.97 C
2979 21-04-2020 08:10:00 7.8 C 67 % 2.07 C
2980 21-04-2020 08:15:00 7.9 C 67 % 2.16 C
2981 21-04-2020 08:20:00 8.1 C 65 % 1.93 C
2982 21-04-2020 08:25:00 8.2 C 67 % 2.45 C
2983 21-04-2020 08:30:00 8.1 C 67 % 2.35 C
2984 21-04-2020 08:35:00 8.1 C 67 % 2.35 C
2985 21-04-2020 08:40:00 8.1 C 68 % 2.56 C
2986 21-04-2020 08:45:00 8.1 C 65 % 1.93 C
2987 21-04-2020 08:50:00 8.3 C 62 % 1.46 C
2988 21-04-2020 08:55:00 8.7 C 63 % 2.06 C
2989 21-04-2020 09:00:00 8.9 C 63 % 2.25 C
2990 21-04-2020 09:05:00 9.1 C 65 % 2.88 C
2991 21-04-2020 09:10:00 9.3 C 62 % 2.4 C
2992 21-04-2020 09:15:00 9.5 C 61 % 2.37 C
2993 21-04-2020 09:20:00 9.7 C 57 % 1.61 C
2994 21-04-2020 09:25:00 10 C 58 % 2.13 C
2995 21-04-2020 09:30:00 10.2 C 55 % 1.58 C
2996 21-04-2020 09:35:00 10.5 C 57 % 2.35 C
2997 21-04-2020 09:40:00 10.7 C 54 % 1.78 C
2998 21-04-2020 09:45:00 10.8 C 53 % 1.62 C
2999 21-04-2020 09:50:00 11.1 C 53 % 1.9 C
3000 21-04-2020 09:55:00 11.2 C 54 % 2.25 C
Sensor: Nr:Datum:Temp:Feuchte:Taupunkt:
Aussen-T/F 3001 21-04-2020 10:00:00 11.3 C 54 % 2.34 C
3002 21-04-2020 10:05:00 11.4 C 52 % 1.91 C
3003 21-04-2020 10:10:00 11.7 C 53 % 2.45 C
3004 21-04-2020 10:15:00 11.7 C 52 % 2.18 C
3005 21-04-2020 10:20:00 11.9 C 49 % 1.54 C
3006 21-04-2020 10:25:00 12.2 C 48 % 1.53 C
3007 21-04-2020 10:30:00 12.5 C 48 % 1.8 C
3008 21-04-2020 10:35:00 12.7 C 48 % 1.99 C
3009 21-04-2020 10:40:00 12.8 C 46 % 1.48 C
3010 21-04-2020 10:45:00 13.1 C 46 % 1.76 C
3011 21-04-2020 10:50:00 13.3 C 47 % 2.24 C
3012 21-04-2020 10:55:00 13.4 C 45 % 1.72 C
3013 21-04-2020 11:00:00 13.6 C 44 % 1.59 C
3014 21-04-2020 11:05:00 13.8 C 44 % 1.77 C
3015 21-04-2020 11:10:00 14 C 45 % 2.27 C
3016 21-04-2020 11:15:00 14.2 C 43 % 1.81 C
3017 21-04-2020 11:20:00 14.4 C 42 % 1.67 C
3018 21-04-2020 11:25:00 14.5 C 43 % 2.09 C
3019 21-04-2020 11:30:00 14.6 C 42 % 1.85 C
3020 21-04-2020 11:35:00 14.7 C 42 % 1.94 C
3021 21-04-2020 11:40:00 14.8 C 42 % 2.03 C
3022 21-04-2020 11:45:00 15 C 41 % 1.87 C
3023 21-04-2020 11:50:00 15.2 C 41 % 2.05 C
3024 21-04-2020 11:55:00 15.4 C 40 % 1.89 C
3025 21-04-2020 12:00:00 15.6 C 41 % 2.41 C
Sensor: Nr:Datum:Temp:Feuchte:Taupunkt:
Aussen-T/F 3026 21-04-2020 12:05:00 15.7 C 40 % 2.15 C
3027 21-04-2020 12:10:00 15.8 C 38 % 1.53 C
3028 21-04-2020 12:15:00 15.9 C 38 % 1.62 C
3029 21-04-2020 12:20:00 16.1 C 37 % 1.42 C
3030 21-04-2020 12:25:00 16.1 C 38 % 1.79 C
3031 21-04-2020 12:30:00 16.2 C 37 % 1.51 C
3032 21-04-2020 12:35:00 16.3 C 37 % 1.6 C
3033 21-04-2020 12:40:00 16.3 C 37 % 1.6 C
3034 21-04-2020 12:45:00 16.4 C 37 % 1.69 C
3035 21-04-2020 12:50:00 16.6 C 37 % 1.87 C
3036 21-04-2020 12:55:00 16.7 C 37 % 1.96 C
3037 21-04-2020 13:00:00 16.8 C 36 % 1.66 C
3038 21-04-2020 13:05:00 16.9 C 36 % 1.75 C
3039 21-04-2020 13:10:00 17.1 C 36 % 1.93 C
3040 21-04-2020 13:15:00 17.2 C 36 % 2.02 C
3041 21-04-2020 13:20:00 17.2 C 35 % 1.62 C
3042 21-04-2020 13:25:00 17.3 C 36 % 2.1 C
3043 21-04-2020 13:30:00 17.4 C 36 % 2.19 C
3044 21-04-2020 13:35:00 17.4 C 35 % 1.8 C
3045 21-04-2020 13:40:00 17.7 C 35 % 2.06 C
3046 21-04-2020 13:45:00 17.8 C 34 % 1.75 C
3047 21-04-2020 13:50:00 17.9 C 33 % 1.42 C
3048 21-04-2020 13:55:00 18.1 C 34 % 2.01 C
3049 21-04-2020 14:00:00 18.3 C 34 % 2.19 C
3050 21-04-2020 14:05:00 18.4 C 33 % 1.86 C
Sensor: Nr:Datum:Temp:Feuchte:Taupunkt:
Aussen-T/F 3051 21-04-2020 14:10:00 18.5 C 33 % 1.94 C
3052 21-04-2020 14:15:00 18.7 C 32 % 1.69 C
3053 21-04-2020 14:20:00 18.8 C 33 % 2.21 C
3054 21-04-2020 14:25:00 18.8 C 32 % 1.78 C
3055 21-04-2020 14:30:00 18.9 C 32 % 1.86 C
3056 21-04-2020 14:35:00 19.1 C 33 % 2.47 C
3057 21-04-2020 14:40:00 19.3 C 32 % 2.21 C
3058 21-04-2020 14:45:00 19.4 C 32 % 2.3 C
3059 21-04-2020 14:50:00 19.6 C 32 % 2.47 C
3060 21-04-2020 14:55:00 19.7 C 31 % 2.12 C
3061 21-04-2020 15:00:00 19.8 C 31 % 2.2 C
3062 21-04-2020 15:05:00 19.9 C 31 % 2.29 C
3063 21-04-2020 15:10:00 20 C 30 % 1.92 C
3064 21-04-2020 15:15:00 19.9 C 31 % 2.29 C
3065 21-04-2020 15:20:00 20 C 31 % 2.38 C
3066 21-04-2020 15:25:00 20.1 C 31 % 2.46 C
3067 21-04-2020 15:30:00 20.2 C 31 % 2.55 C
3068 21-04-2020 15:35:00 20.3 C 30 % 2.18 C
3069 21-04-2020 15:40:00 20.5 C 31 % 2.81 C
3070 21-04-2020 15:45:00 20.7 C 31 % 2.98 C
3071 21-04-2020 15:50:00 20.6 C 30 % 2.44 C
3072 21-04-2020 15:55:00 20.6 C 30 % 2.44 C
3073 21-04-2020 16:00:00 20.5 C 30 % 2.35 C
3074 21-04-2020 16:05:00 20.7 C 31 % 2.98 C
3075 21-04-2020 16:10:00 20.7 C 30 % 2.52 C
Sensor: Nr:Datum:Temp:Feuchte:Taupunkt:
Aussen-T/F 3076 21-04-2020 16:15:00 20.7 C 31 % 2.98 C
3077 21-04-2020 16:20:00 20.7 C 30 % 2.52 C
3078 21-04-2020 16:25:00 20.7 C 31 % 2.98 C
3079 21-04-2020 16:30:00 20.8 C 30 % 2.61 C
3080 21-04-2020 16:35:00 20.9 C 31 % 3.16 C
3081 21-04-2020 16:40:00 21 C 29 % 2.31 C
3082 21-04-2020 16:45:00 21.1 C 30 % 2.87 C
3083 21-04-2020 16:50:00 20.9 C 29 % 2.22 C
3084 21-04-2020 16:55:00 21 C 31 % 3.24 C
3085 21-04-2020 17:00:00 21.1 C 30 % 2.87 C
3086 21-04-2020 17:05:00 21.3 C 30 % 3.04 C
3087 21-04-2020 17:10:00 21.5 C 31 % 3.68 C
3088 21-04-2020 17:15:00 21.8 C 30 % 3.47 C
3089 21-04-2020 17:20:00 21.7 C 29 % 2.91 C
3090 21-04-2020 17:25:00 21.2 C 30 % 2.95 C
3091 21-04-2020 17:30:00 20.9 C 30 % 2.69 C
3092 21-04-2020 17:35:00 20.7 C 31 % 2.98 C
3093 21-04-2020 17:40:00 20.8 C 32 % 3.52 C
3094 21-04-2020 17:45:00 20.8 C 31 % 3.07 C
3095 21-04-2020 17:50:00 20.8 C 32 % 3.52 C
3096 21-04-2020 17:55:00 21.1 C 32 % 3.78 C
3097 21-04-2020 18:00:00 20.8 C 31 % 3.07 C
3098 21-04-2020 18:05:00 20.8 C 31 % 3.07 C
3099 21-04-2020 18:10:00 21.1 C 32 % 3.78 C
3100 21-04-2020 18:15:00 21.2 C 31 % 3.42 C
Sensor: Nr:Datum:Temp:Feuchte:Taupunkt:
Aussen-T/F 3101 21-04-2020 18:20:00 20.9 C 32 % 3.61 C
3102 21-04-2020 18:25:00 20.8 C 32 % 3.52 C
3103 21-04-2020 18:30:00 20.7 C 32 % 3.43 C
3104 21-04-2020 18:35:00 20.7 C 32 % 3.43 C
3105 21-04-2020 18:40:00 20.7 C 33 % 3.87 C
3106 21-04-2020 18:45:00 20.7 C 33 % 3.87 C
3107 21-04-2020 18:50:00 20.8 C 33 % 3.95 C
3108 21-04-2020 18:55:00 20.9 C 33 % 4.04 C
3109 21-04-2020 19:00:00 20.7 C 33 % 3.87 C
3110 21-04-2020 19:05:00 20.4 C 33 % 3.6 C
3111 21-04-2020 19:10:00 20.1 C 33 % 3.34 C
3112 21-04-2020 19:15:00 20 C 34 % 3.68 C
3113 21-04-2020 19:20:00 19.9 C 35 % 4 C
3114 21-04-2020 19:25:00 19.7 C 35 % 3.82 C
3115 21-04-2020 19:30:00 19.5 C 35 % 3.65 C
3116 21-04-2020 19:35:00 19.3 C 35 % 3.47 C
3117 21-04-2020 19:40:00 19.1 C 35 % 3.3 C
3118 21-04-2020 19:45:00 18.8 C 36 % 3.43 C
3119 21-04-2020 19:50:00 18.8 C 36 % 3.43 C
3120 21-04-2020 19:55:00 18.7 C 39 % 4.48 C
3121 21-04-2020 20:00:00 18.5 C 37 % 3.55 C
3122 21-04-2020 20:05:00 18.3 C 37 % 3.38 C
3123 21-04-2020 20:10:00 18.2 C 39 % 4.03 C
3124 21-04-2020 20:15:00 17.9 C 39 % 3.76 C
3125 21-04-2020 20:20:00 17.6 C 39 % 3.5 C
Sensor: Nr:Datum:Temp:Feuchte:Taupunkt:
Aussen-T/F 3126 21-04-2020 20:25:00 17.3 C 40 % 3.59 C
3127 21-04-2020 20:30:00 17.1 C 40 % 3.41 C
3128 21-04-2020 20:35:00 16.8 C 43 % 4.16 C
3129 21-04-2020 20:40:00 16.6 C 42 % 3.65 C
3130 21-04-2020 20:45:00 16.3 C 43 % 3.71 C
3131 21-04-2020 20:50:00 16 C 45 % 4.09 C
3132 21-04-2020 20:55:00 15.6 C 45 % 3.72 C
3133 21-04-2020 21:00:00 15.3 C 47 % 4.07 C
3134 21-04-2020 21:05:00 15.1 C 45 % 3.27 C
3135 21-04-2020 21:10:00 14.9 C 45 % 3.09 C
3136 21-04-2020 21:15:00 14.9 C 48 % 4 C
3137 21-04-2020 21:20:00 14.8 C 47 % 3.61 C
3138 21-04-2020 21:25:00 14.7 C 48 % 3.82 C
3139 21-04-2020 21:30:00 14.4 C 47 % 3.25 C
3140 21-04-2020 21:35:00 14.4 C 47 % 3.25 C
3141 21-04-2020 21:40:00 14.4 C 50 % 4.12 C
3142 21-04-2020 21:45:00 14.2 C 50 % 3.94 C
3143 21-04-2020 21:50:00 13.8 C 51 % 3.85 C
3144 21-04-2020 21:55:00 13.6 C 50 % 3.39 C
3145 21-04-2020 22:00:00 13.6 C 52 % 3.94 C
3146 21-04-2020 22:05:00 13.4 C 52 % 3.76 C
3147 21-04-2020 22:10:00 13.1 C 54 % 4.01 C
3148 21-04-2020 22:15:00 13.2 C 52 % 3.57 C
3149 21-04-2020 22:20:00 13.4 C 51 % 3.48 C
3150 21-04-2020 22:25:00 13.5 C 52 % 3.85 C
Sensor: Nr:Datum:Temp:Feuchte:Taupunkt:
Aussen-T/F 3151 21-04-2020 22:30:00 13.3 C 51 % 3.39 C
3152 21-04-2020 22:35:00 13.2 C 53 % 3.84 C
3153 21-04-2020 22:40:00 12.9 C 53 % 3.56 C
3154 21-04-2020 22:45:00 12.6 C 55 % 3.81 C
3155 21-04-2020 22:50:00 12.4 C 56 % 3.88 C
3156 21-04-2020 22:55:00 12.3 C 56 % 3.79 C
3157 21-04-2020 23:00:00 12.2 C 56 % 3.69 C
3158 21-04-2020 23:05:00 12.2 C 56 % 3.69 C
3159 21-04-2020 23:10:00 12.2 C 55 % 3.44 C
3160 21-04-2020 23:15:00 12.2 C 57 % 3.94 C
3161 21-04-2020 23:20:00 12 C 57 % 3.76 C
3162 21-04-2020 23:25:00 12 C 57 % 3.76 C
3163 21-04-2020 23:30:00 11.9 C 57 % 3.66 C
3164 21-04-2020 23:35:00 11.8 C 57 % 3.57 C
3165 21-04-2020 23:40:00 11.7 C 58 % 3.72 C
3166 21-04-2020 23:45:00 11.6 C 58 % 3.63 C
3167 21-04-2020 23:50:00 11.6 C 58 % 3.63 C
3168 21-04-2020 23:55:00 11.5 C 58 % 3.54 C
3169 22-04-2020 00:00:00 11.4 C 58 % 3.44 C
3170 22-04-2020 00:05:00 11.3 C 58 % 3.35 C
3171 22-04-2020 00:10:00 11.2 C 60 % 3.73 C
3172 22-04-2020 00:15:00 11.1 C 59 % 3.4 C
3173 22-04-2020 00:20:00 11 C 58 % 3.07 C
3174 22-04-2020 00:25:00 11.2 C 58 % 3.25 C
3175 22-04-2020 00:30:00 11.4 C 59 % 3.68 C
Sensor: Nr:Datum:Temp:Feuchte:Taupunkt:
Aussen-T/F 3176 22-04-2020 00:35:00 11.4 C 58 % 3.44 C
3177 22-04-2020 00:40:00 11.4 C 57 % 3.2 C
3178 22-04-2020 00:45:00 11.4 C 59 % 3.68 C
3179 22-04-2020 00:50:00 11.3 C 59 % 3.59 C
3180 22-04-2020 00:55:00 11.3 C 57 % 3.1 C
3181 22-04-2020 01:00:00 11.3 C 58 % 3.35 C
3182 22-04-2020 01:05:00 11.2 C 58 % 3.25 C
3183 22-04-2020 01:10:00 11.1 C 59 % 3.4 C
3184 22-04-2020 01:15:00 10.9 C 60 % 3.45 C
3185 22-04-2020 01:20:00 10.7 C 61 % 3.5 C
3186 22-04-2020 01:25:00 10.4 C 62 % 3.44 C
3187 22-04-2020 01:30:00 10.2 C 62 % 3.25 C
3188 22-04-2020 01:35:00 10.1 C 63 % 3.39 C
3189 22-04-2020 01:40:00 10.1 C 63 % 3.39 C
3190 22-04-2020 01:45:00 10.1 C 63 % 3.39 C
3191 22-04-2020 01:50:00 10.1 C 63 % 3.39 C
3192 22-04-2020 01:55:00 10.2 C 63 % 3.48 C
3193 22-04-2020 02:00:00 10.3 C 62 % 3.35 C
3194 22-04-2020 02:05:00 10.3 C 62 % 3.35 C
3195 22-04-2020 02:10:00 10.2 C 62 % 3.25 C
3196 22-04-2020 02:15:00 10.2 C 63 % 3.48 C
3197 22-04-2020 02:20:00 10.1 C 63 % 3.39 C
3198 22-04-2020 02:25:00 9.9 C 63 % 3.2 C
3199 22-04-2020 02:30:00 9.8 C 64 % 3.32 C
3200 22-04-2020 02:35:00 9.8 C 63 % 3.1 C
Sensor: Nr:Datum:Temp:Feuchte:Taupunkt:
Aussen-T/F 3201 22-04-2020 02:40:00 9.8 C 64 % 3.32 C
3202 22-04-2020 02:45:00 9.9 C 63 % 3.2 C
3203 22-04-2020 02:50:00 9.8 C 64 % 3.32 C
3204 22-04-2020 02:55:00 9.7 C 64 % 3.23 C
3205 22-04-2020 03:00:00 9.6 C 64 % 3.14 C
3206 22-04-2020 03:05:00 9.6 C 64 % 3.14 C
3207 22-04-2020 03:10:00 9.5 C 65 % 3.26 C
3208 22-04-2020 03:15:00 9.5 C 65 % 3.26 C
3209 22-04-2020 03:20:00 9.5 C 65 % 3.26 C
3210 22-04-2020 03:25:00 9.4 C 65 % 3.16 C
3211 22-04-2020 03:30:00 9.3 C 65 % 3.07 C
3212 22-04-2020 03:35:00 9.2 C 66 % 3.19 C
3213 22-04-2020 03:40:00 9.1 C 67 % 3.31 C
3214 22-04-2020 03:45:00 8.9 C 67 % 3.12 C
3215 22-04-2020 03:50:00 8.8 C 67 % 3.02 C
3216 22-04-2020 03:55:00 8.7 C 68 % 3.13 C
3217 22-04-2020 04:00:00 8.7 C 67 % 2.92 C
3218 22-04-2020 04:05:00 8.7 C 68 % 3.13 C
3219 22-04-2020 04:10:00 8.7 C 67 % 2.92 C
3220 22-04-2020 04:15:00 8.6 C 68 % 3.04 C
3221 22-04-2020 04:20:00 8.5 C 68 % 2.94 C
3222 22-04-2020 04:25:00 8.4 C 68 % 2.85 C
3223 22-04-2020 04:30:00 8.4 C 68 % 2.85 C
3224 22-04-2020 04:35:00 8.3 C 68 % 2.75 C
3225 22-04-2020 04:40:00 8.3 C 68 % 2.75 C
Sensor: Nr:Datum:Temp:Feuchte:Taupunkt:
Aussen-T/F 3226 22-04-2020 04:45:00 8.2 C 69 % 2.86 C
3227 22-04-2020 04:50:00 8.1 C 69 % 2.77 C
3228 22-04-2020 04:55:00 8.1 C 69 % 2.77 C
3229 22-04-2020 05:00:00 7.9 C 70 % 2.78 C
3230 22-04-2020 05:05:00 7.8 C 70 % 2.68 C
3231 22-04-2020 05:10:00 7.8 C 71 % 2.88 C
3232 22-04-2020 05:15:00 7.7 C 71 % 2.78 C
3233 22-04-2020 05:20:00 7.6 C 71 % 2.69 C
3234 22-04-2020 05:25:00 7.5 C 71 % 2.59 C
3235 22-04-2020 05:30:00 7.4 C 72 % 2.69 C
3236 22-04-2020 05:35:00 7.3 C 72 % 2.6 C
3237 22-04-2020 05:40:00 7.3 C 72 % 2.6 C
3238 22-04-2020 05:45:00 7.2 C 72 % 2.5 C
3239 22-04-2020 05:50:00 7.2 C 73 % 2.69 C
3240 22-04-2020 05:55:00 7.2 C 72 % 2.5 C
3241 22-04-2020 06:00:00 7.1 C 73 % 2.6 C
3242 22-04-2020 06:05:00 7 C 73 % 2.5 C
3243 22-04-2020 06:10:00 6.9 C 73 % 2.4 C
3244 22-04-2020 06:15:00 6.8 C 73 % 2.31 C
3245 22-04-2020 06:20:00 6.7 C 74 % 2.4 C
3246 22-04-2020 06:25:00 6.6 C 75 % 2.49 C
3247 22-04-2020 06:30:00 6.5 C 75 % 2.4 C
3248 22-04-2020 06:35:00 6.4 C 75 % 2.3 C
3249 22-04-2020 06:40:00 6.3 C 76 % 2.39 C
3250 22-04-2020 06:45:00 6.2 C 77 % 2.48 C
Sensor: Nr:Datum:Temp:Feuchte:Taupunkt:
Aussen-T/F 3251 22-04-2020 06:50:00 6.2 C 78 % 2.66 C
3252 22-04-2020 06:55:00 6.2 C 78 % 2.66 C
3253 22-04-2020 07:00:00 6.2 C 78 % 2.66 C
3254 22-04-2020 07:05:00 6.2 C 78 % 2.66 C
3255 22-04-2020 07:10:00 6.1 C 79 % 2.74 C
3256 22-04-2020 07:15:00 6.2 C 79 % 2.84 C
3257 22-04-2020 07:20:00 6.1 C 79 % 2.74 C
3258 22-04-2020 07:25:00 6.2 C 79 % 2.84 C
3259 22-04-2020 07:30:00 6.2 C 80 % 3.01 C
3260 22-04-2020 07:35:00 6.2 C 80 % 3.01 C
3261 22-04-2020 07:40:00 6.2 C 80 % 3.01 C
3262 22-04-2020 07:45:00 6.2 C 80 % 3.01 C
3263 22-04-2020 07:50:00 6.2 C 80 % 3.01 C
3264 22-04-2020 07:55:00 6.3 C 80 % 3.11 C
3265 22-04-2020 08:00:00 6.4 C 79 % 3.03 C
3266 22-04-2020 08:05:00 6.6 C 79 % 3.23 C
3267 22-04-2020 08:10:00 6.7 C 79 % 3.32 C
3268 22-04-2020 08:15:00 6.8 C 79 % 3.42 C
3269 22-04-2020 08:20:00 6.9 C 79 % 3.52 C
3270 22-04-2020 08:25:00 7.1 C 78 % 3.53 C
3271 22-04-2020 08:30:00 7.2 C 78 % 3.63 C
3272 22-04-2020 08:35:00 7.6 C 74 % 3.27 C
3273 22-04-2020 08:40:00 8 C 74 % 3.66 C
3274 22-04-2020 08:45:00 8.2 C 74 % 3.85 C
3275 22-04-2020 08:50:00 8.3 C 73 % 3.75 C
Sensor: Nr:Datum:Temp:Feuchte:Taupunkt:
Aussen-T/F 3276 22-04-2020 08:55:00 8.5 C 69 % 3.15 C
3277 22-04-2020 09:00:00 9.1 C 69 % 3.72 C
3278 22-04-2020 09:05:00 9.4 C 66 % 3.38 C
3279 22-04-2020 09:10:00 9.6 C 67 % 3.78 C
3280 22-04-2020 09:15:00 9.7 C 66 % 3.67 C
3281 22-04-2020 09:20:00 9.9 C 62 % 2.97 C
3282 22-04-2020 09:25:00 10.4 C 63 % 3.67 C
3283 22-04-2020 09:30:00 10.7 C 62 % 3.73 C
3284 22-04-2020 09:35:00 10.8 C 61 % 3.59 C
3285 22-04-2020 09:40:00 10.9 C 61 % 3.69 C
3286 22-04-2020 09:45:00 11.1 C 58 % 3.16 C
3287 22-04-2020 09:50:00 11.3 C 57 % 3.1 C
3288 22-04-2020 09:55:00 11.5 C 59 % 3.78 C
3289 22-04-2020 10:00:00 11.6 C 56 % 3.13 C
3290 22-04-2020 10:05:00 11.8 C 58 % 3.82 C
3291 22-04-2020 10:10:00 12.1 C 55 % 3.34 C
3292 22-04-2020 10:15:00 12.4 C 56 % 3.88 C
3293 22-04-2020 10:20:00 12.8 C 50 % 2.65 C
3294 22-04-2020 10:25:00 13.1 C 53 % 3.75 C
3295 22-04-2020 10:30:00 13.2 C 52 % 3.57 C
3296 22-04-2020 10:35:00 13.5 C 50 % 3.29 C
3297 22-04-2020 10:40:00 13.7 C 49 % 3.19 C
3298 22-04-2020 10:45:00 14 C 48 % 3.18 C
3299 22-04-2020 10:50:00 14.3 C 46 % 2.85 C
3300 22-04-2020 10:55:00 14.6 C 46 % 3.12 C
Sensor: Nr:Datum:Temp:Feuchte:Taupunkt:
Aussen-T/F 3301 22-04-2020 11:00:00 14.8 C 44 % 2.68 C
3302 22-04-2020 11:05:00 15.1 C 44 % 2.95 C
3303 22-04-2020 11:10:00 15.3 C 44 % 3.13 C
3304 22-04-2020 11:15:00 15.4 C 44 % 3.22 C
3305 22-04-2020 11:20:00 15.7 C 43 % 3.17 C
3306 22-04-2020 11:25:00 15.8 C 43 % 3.26 C
3307 22-04-2020 11:30:00 15.9 C 43 % 3.35 C
3308 22-04-2020 11:35:00 16.1 C 40 % 2.51 C
3309 22-04-2020 11:40:00 16.3 C 40 % 2.69 C
3310 22-04-2020 11:45:00 16.6 C 41 % 3.31 C
3311 22-04-2020 11:50:00 16.7 C 39 % 2.69 C
3312 22-04-2020 11:55:00 16.8 C 39 % 2.78 C
3313 22-04-2020 12:00:00 17 C 38 % 2.6 C
3314 22-04-2020 12:05:00 17.2 C 37 % 2.4 C
3315 22-04-2020 12:10:00 17.3 C 37 % 2.49 C
3316 22-04-2020 12:15:00 17.5 C 37 % 2.67 C
3317 22-04-2020 12:20:00 17.7 C 36 % 2.46 C
3318 22-04-2020 12:25:00 17.8 C 36 % 2.55 C
3319 22-04-2020 12:30:00 17.9 C 34 % 1.83 C
3320 22-04-2020 12:35:00 17.8 C 35 % 2.15 C
3321 22-04-2020 12:40:00 17.8 C 34 % 1.75 C
3322 22-04-2020 12:45:00 17.8 C 34 % 1.75 C
3323 22-04-2020 12:50:00 17.9 C 35 % 2.24 C
3324 22-04-2020 12:55:00 18.1 C 34 % 2.01 C
3325 22-04-2020 13:00:00 18.2 C 35 % 2.5 C
Sensor: Nr:Datum:Temp:Feuchte:Taupunkt:
Aussen-T/F 3326 22-04-2020 13:05:00 18.4 C 35 % 2.68 C
3327 22-04-2020 13:10:00 18.6 C 34 % 2.45 C
3328 22-04-2020 13:15:00 18.8 C 35 % 3.03 C
3329 22-04-2020 13:20:00 18.8 C 34 % 2.62 C
3330 22-04-2020 13:25:00 18.9 C 36 % 3.52 C
3331 22-04-2020 13:30:00 19 C 35 % 3.21 C
3332 22-04-2020 13:35:00 19.1 C 34 % 2.89 C
3333 22-04-2020 13:40:00 19.2 C 33 % 2.56 C
3334 22-04-2020 13:45:00 19.3 C 33 % 2.64 C
3335 22-04-2020 13:50:00 19.4 C 33 % 2.73 C
3336 22-04-2020 13:55:00 19.5 C 33 % 2.82 C
3337 22-04-2020 14:00:00 19.6 C 33 % 2.91 C
3338 22-04-2020 14:05:00 19.7 C 34 % 3.41 C
3339 22-04-2020 14:10:00 19.8 C 35 % 3.91 C
3340 22-04-2020 14:15:00 20 C 33 % 3.26 C
3341 22-04-2020 14:20:00 20 C 33 % 3.26 C
3342 22-04-2020 14:25:00 20.1 C 33 % 3.34 C
3343 22-04-2020 14:30:00 20.3 C 33 % 3.52 C
3344 22-04-2020 14:35:00 20.4 C 32 % 3.17 C
3345 22-04-2020 14:40:00 20.4 C 32 % 3.17 C
3346 22-04-2020 14:45:00 20.6 C 32 % 3.34 C
3347 22-04-2020 14:50:00 20.6 C 31 % 2.9 C
3348 22-04-2020 14:55:00 20.7 C 33 % 3.87 C
3349 22-04-2020 15:00:00 20.8 C 31 % 3.07 C
3350 22-04-2020 15:05:00 20.9 C 32 % 3.61 C
Sensor: Nr:Datum:Temp:Feuchte:Taupunkt:
Aussen-T/F 3351 22-04-2020 15:10:00 21.1 C 31 % 3.33 C
3352 22-04-2020 15:15:00 21.1 C 31 % 3.33 C
3353 22-04-2020 15:20:00 21.2 C 31 % 3.42 C
3354 22-04-2020 15:25:00 21.3 C 31 % 3.5 C
3355 22-04-2020 15:30:00 21.4 C 31 % 3.59 C
3356 22-04-2020 15:35:00 21.7 C 30 % 3.39 C
3357 22-04-2020 15:40:00 21.7 C 31 % 3.85 C
3358 22-04-2020 15:45:00 21.7 C 30 % 3.39 C
3359 22-04-2020 15:50:00 21.9 C 30 % 3.56 C
3360 22-04-2020 15:55:00 22.1 C 29 % 3.25 C
3361 22-04-2020 16:00:00 22.2 C 30 % 3.82 C
3362 22-04-2020 16:05:00 22.2 C 29 % 3.34 C
3363 22-04-2020 16:10:00 22.2 C 29 % 3.34 C
3364 22-04-2020 16:15:00 22.3 C 29 % 3.42 C
3365 22-04-2020 16:20:00 22.6 C 30 % 4.16 C
3366 22-04-2020 16:25:00 22.7 C 29 % 3.77 C
3367 22-04-2020 16:30:00 22.9 C 29 % 3.94 C
3368 22-04-2020 16:35:00 23.1 C 27 % 3.1 C
3369 22-04-2020 16:40:00 22.8 C 28 % 3.36 C
3370 22-04-2020 16:45:00 22.5 C 28 % 3.1 C
3371 22-04-2020 16:50:00 22.6 C 28 % 3.19 C
3372 22-04-2020 16:55:00 22.8 C 29 % 3.85 C
3373 22-04-2020 17:00:00 22.9 C 28 % 3.44 C
3374 22-04-2020 17:05:00 22.7 C 28 % 3.27 C
3375 22-04-2020 17:10:00 22.5 C 29 % 3.6 C
Sensor: Nr:Datum:Temp:Feuchte:Taupunkt:
Aussen-T/F 3376 22-04-2020 17:15:00 22.4 C 28 % 3.01 C
3377 22-04-2020 17:20:00 22.3 C 28 % 2.93 C
3378 22-04-2020 17:25:00 22.3 C 29 % 3.42 C
3379 22-04-2020 17:30:00 22.6 C 29 % 3.68 C
3380 22-04-2020 17:35:00 22.8 C 28 % 3.36 C
3381 22-04-2020 17:40:00 22.9 C 28 % 3.44 C
3382 22-04-2020 17:45:00 23 C 28 % 3.53 C
3383 22-04-2020 17:50:00 22.8 C 28 % 3.36 C
3384 22-04-2020 17:55:00 22.7 C 28 % 3.27 C
3385 22-04-2020 18:00:00 22.7 C 28 % 3.27 C
3386 22-04-2020 18:05:00 22.7 C 28 % 3.27 C
3387 22-04-2020 18:10:00 22.6 C 28 % 3.19 C
3388 22-04-2020 18:15:00 22.4 C 28 % 3.01 C
3389 22-04-2020 18:20:00 22.2 C 28 % 2.84 C
3390 22-04-2020 18:25:00 22.2 C 28 % 2.84 C
3391 22-04-2020 18:30:00 22.3 C 29 % 3.42 C
3392 22-04-2020 18:35:00 22.3 C 28 % 2.93 C
3393 22-04-2020 18:40:00 22.3 C 29 % 3.42 C
3394 22-04-2020 18:45:00 22.4 C 28 % 3.01 C
3395 22-04-2020 18:50:00 22.3 C 28 % 2.93 C
3396 22-04-2020 18:55:00 22.2 C 28 % 2.84 C
3397 22-04-2020 19:00:00 22.2 C 28 % 2.84 C
3398 22-04-2020 19:05:00 21.8 C 30 % 3.47 C
3399 22-04-2020 19:10:00 21.8 C 30 % 3.47 C
3400 22-04-2020 19:15:00 21.8 C 29 % 2.99 C
Sensor: Nr:Datum:Temp:Feuchte:Taupunkt:
Aussen-T/F 3401 22-04-2020 19:20:00 21.7 C 29 % 2.91 C
3402 22-04-2020 19:25:00 21.4 C 30 % 3.13 C
3403 22-04-2020 19:30:00 21.2 C 30 % 2.95 C
3404 22-04-2020 19:35:00 20.9 C 30 % 2.69 C
3405 22-04-2020 19:40:00 20.8 C 30 % 2.61 C
3406 22-04-2020 19:45:00 20.7 C 31 % 2.98 C
3407 22-04-2020 19:50:00 20.6 C 32 % 3.34 C
3408 22-04-2020 19:55:00 20.4 C 31 % 2.72 C
3409 22-04-2020 20:00:00 20.3 C 33 % 3.52 C
3410 22-04-2020 20:05:00 20.3 C 33 % 3.52 C
3411 22-04-2020 20:10:00 20.1 C 36 % 4.58 C
3412 22-04-2020 20:15:00 19.7 C 38 % 5 C
3413 22-04-2020 20:20:00 19.2 C 35 % 3.38 C
3414 22-04-2020 20:25:00 18.7 C 38 % 4.11 C
3415 22-04-2020 20:30:00 18.1 C 40 % 4.3 C
3416 22-04-2020 20:35:00 17.4 C 38 % 2.95 C
3417 22-04-2020 20:40:00 17.2 C 42 % 4.19 C
3418 22-04-2020 20:45:00 16.8 C 43 % 4.16 C
3419 22-04-2020 20:50:00 16.5 C 43 % 3.89 C
3420 22-04-2020 20:55:00 16.3 C 42 % 3.38 C
3421 22-04-2020 21:00:00 16.1 C 41 % 2.86 C
3422 22-04-2020 21:05:00 16.1 C 44 % 3.86 C
3423 22-04-2020 21:10:00 15.8 C 44 % 3.59 C
3424 22-04-2020 21:15:00 15.6 C 46 % 4.03 C
3425 22-04-2020 21:20:00 15.2 C 46 % 3.67 C
Sensor: Nr:Datum:Temp:Feuchte:Taupunkt:
Aussen-T/F 3426 22-04-2020 21:25:00 14.9 C 46 % 3.4 C
3427 22-04-2020 21:30:00 14.7 C 48 % 3.82 C
3428 22-04-2020 21:35:00 14.4 C 49 % 3.83 C
3429 22-04-2020 21:40:00 14.3 C 50 % 4.03 C
3430 22-04-2020 21:45:00 14.2 C 50 % 3.94 C
3431 22-04-2020 21:50:00 14.2 C 50 % 3.94 C
3432 22-04-2020 21:55:00 14.1 C 51 % 4.13 C
3433 22-04-2020 22:00:00 14 C 51 % 4.04 C
3434 22-04-2020 22:05:00 13.8 C 51 % 3.85 C
3435 22-04-2020 22:10:00 13.7 C 50 % 3.48 C
3436 22-04-2020 22:15:00 13.7 C 52 % 4.03 C
3437 22-04-2020 22:20:00 13.7 C 51 % 3.76 C
3438 22-04-2020 22:25:00 13.8 C 51 % 3.85 C
3439 22-04-2020 22:30:00 13.9 C 52 % 4.22 C
3440 22-04-2020 22:35:00 13.9 C 52 % 4.22 C
3441 22-04-2020 22:40:00 13.8 C 49 % 3.28 C
3442 22-04-2020 22:45:00 13.8 C 51 % 3.85 C
3443 22-04-2020 22:50:00 13.8 C 51 % 3.85 C
3444 22-04-2020 22:55:00 13.9 C 51 % 3.94 C
3445 22-04-2020 23:00:00 13.8 C 52 % 4.13 C
3446 22-04-2020 23:05:00 13.8 C 51 % 3.85 C
3447 22-04-2020 23:10:00 14 C 52 % 4.31 C
3448 22-04-2020 23:15:00 13.9 C 49 % 3.38 C
3449 22-04-2020 23:20:00 14 C 51 % 4.04 C
3450 22-04-2020 23:25:00 13.9 C 51 % 3.94 C
Sensor: Nr:Datum:Temp:Feuchte:Taupunkt:
Aussen-T/F 3451 22-04-2020 23:30:00 13.8 C 51 % 3.85 C
3452 22-04-2020 23:35:00 13.7 C 51 % 3.76 C
3453 22-04-2020 23:40:00 13.6 C 53 % 4.21 C
3454 22-04-2020 23:45:00 13.6 C 51 % 3.67 C
3455 22-04-2020 23:50:00 13.5 C 52 % 3.85 C
3456 22-04-2020 23:55:00 13.3 C 53 % 3.93 C
3457 23-04-2020 00:00:00 13.1 C 53 % 3.75 C
3458 23-04-2020 00:05:00 13 C 55 % 4.18 C
3459 23-04-2020 00:10:00 12.9 C 55 % 4.09 C
3460 23-04-2020 00:15:00 12.9 C 54 % 3.83 C
3461 23-04-2020 00:20:00 12.8 C 54 % 3.74 C
3462 23-04-2020 00:25:00 12.8 C 54 % 3.74 C
3463 23-04-2020 00:30:00 12.8 C 55 % 4 C
3464 23-04-2020 00:35:00 12.8 C 55 % 4 C
3465 23-04-2020 00:40:00 12.9 C 55 % 4.09 C
3466 23-04-2020 00:45:00 12.8 C 55 % 4 C
3467 23-04-2020 00:50:00 12.7 C 54 % 3.64 C
3468 23-04-2020 00:55:00 12.7 C 55 % 3.9 C
3469 23-04-2020 01:00:00 12.6 C 56 % 4.07 C
3470 23-04-2020 01:05:00 12.6 C 55 % 3.81 C
3471 23-04-2020 01:10:00 12.6 C 56 % 4.07 C
3472 23-04-2020 01:15:00 12.4 C 56 % 3.88 C
3473 23-04-2020 01:20:00 12.2 C 57 % 3.94 C
3474 23-04-2020 01:25:00 12.1 C 56 % 3.6 C
3475 23-04-2020 01:30:00 12.1 C 56 % 3.6 C
Sensor: Nr:Datum:Temp:Feuchte:Taupunkt:
Aussen-T/F 3476 23-04-2020 01:35:00 12.2 C 58 % 4.19 C
3477 23-04-2020 01:40:00 11.9 C 58 % 3.91 C
3478 23-04-2020 01:45:00 11.7 C 59 % 3.97 C
3479 23-04-2020 01:50:00 11.4 C 60 % 3.92 C
3480 23-04-2020 01:55:00 11.2 C 61 % 3.97 C
3481 23-04-2020 02:00:00 11 C 62 % 4.01 C
3482 23-04-2020 02:05:00 10.7 C 62 % 3.73 C
3483 23-04-2020 02:10:00 10.5 C 63 % 3.77 C
3484 23-04-2020 02:15:00 10.3 C 64 % 3.8 C
3485 23-04-2020 02:20:00 10.2 C 65 % 3.92 C
3486 23-04-2020 02:25:00 10.2 C 65 % 3.92 C
3487 23-04-2020 02:30:00 10.3 C 64 % 3.8 C
3488 23-04-2020 02:35:00 10.4 C 64 % 3.89 C
3489 23-04-2020 02:40:00 10.4 C 64 % 3.89 C
3490 23-04-2020 02:45:00 10.3 C 65 % 4.02 C
3491 23-04-2020 02:50:00 10.1 C 65 % 3.83 C
3492 23-04-2020 02:55:00 9.9 C 65 % 3.64 C
3493 23-04-2020 03:00:00 9.9 C 66 % 3.86 C
3494 23-04-2020 03:05:00 9.8 C 66 % 3.76 C
3495 23-04-2020 03:10:00 9.7 C 67 % 3.88 C
3496 23-04-2020 03:15:00 9.7 C 67 % 3.88 C
3497 23-04-2020 03:20:00 9.6 C 67 % 3.78 C
3498 23-04-2020 03:25:00 9.5 C 67 % 3.69 C
3499 23-04-2020 03:30:00 9.4 C 68 % 3.8 C
3500 23-04-2020 03:35:00 9.4 C 68 % 3.8 C
Sensor: Nr:Datum:Temp:Feuchte:Taupunkt:
Aussen-T/F 3501 23-04-2020 03:40:00 9.3 C 68 % 3.71 C
3502 23-04-2020 03:45:00 9.3 C 68 % 3.71 C
3503 23-04-2020 03:50:00 9.3 C 67 % 3.5 C
3504 23-04-2020 03:55:00 9.3 C 68 % 3.71 C
3505 23-04-2020 04:00:00 9.2 C 68 % 3.61 C
3506 23-04-2020 04:05:00 9.1 C 68 % 3.52 C
3507 23-04-2020 04:10:00 8.9 C 69 % 3.53 C
3508 23-04-2020 04:15:00 8.8 C 69 % 3.44 C
3509 23-04-2020 04:20:00 8.6 C 70 % 3.45 C
3510 23-04-2020 04:25:00 8.4 C 71 % 3.46 C
3511 23-04-2020 04:30:00 8.3 C 72 % 3.56 C
3512 23-04-2020 04:35:00 8.1 C 73 % 3.56 C
3513 23-04-2020 04:40:00 7.9 C 73 % 3.37 C
3514 23-04-2020 04:45:00 7.8 C 74 % 3.46 C
3515 23-04-2020 04:50:00 7.8 C 74 % 3.46 C
3516 23-04-2020 04:55:00 7.8 C 75 % 3.65 C
3517 23-04-2020 05:00:00 7.6 C 75 % 3.46 C
3518 23-04-2020 05:05:00 7.4 C 75 % 3.27 C
3519 23-04-2020 05:10:00 7.3 C 76 % 3.36 C
3520 23-04-2020 05:15:00 7.2 C 76 % 3.26 C
3521 23-04-2020 05:20:00 7.1 C 77 % 3.35 C
3522 23-04-2020 05:25:00 6.9 C 77 % 3.16 C
3523 23-04-2020 05:30:00 6.8 C 78 % 3.24 C
3524 23-04-2020 05:35:00 6.7 C 78 % 3.14 C
3525 23-04-2020 05:40:00 6.7 C 78 % 3.14 C
Sensor: Nr:Datum:Temp:Feuchte:Taupunkt:
Aussen-T/F 3526 23-04-2020 05:45:00 6.7 C 78 % 3.14 C
3527 23-04-2020 05:50:00 6.7 C 79 % 3.32 C
3528 23-04-2020 05:55:00 6.6 C 79 % 3.23 C
3529 23-04-2020 06:00:00 6.6 C 79 % 3.23 C
3530 23-04-2020 06:05:00 6.5 C 79 % 3.13 C
3531 23-04-2020 06:10:00 6.5 C 79 % 3.13 C
3532 23-04-2020 06:15:00 6.4 C 79 % 3.03 C
3533 23-04-2020 06:20:00 6.3 C 79 % 2.93 C
3534 23-04-2020 06:25:00 6.3 C 80 % 3.11 C
3535 23-04-2020 06:30:00 6.2 C 80 % 3.01 C
3536 23-04-2020 06:35:00 6.2 C 80 % 3.01 C
3537 23-04-2020 06:40:00 6.2 C 80 % 3.01 C
3538 23-04-2020 06:45:00 6.2 C 80 % 3.01 C
3539 23-04-2020 06:50:00 6.1 C 81 % 3.09 C
3540 23-04-2020 06:55:00 6.1 C 81 % 3.09 C
3541 23-04-2020 07:00:00 6.1 C 81 % 3.09 C
3542 23-04-2020 07:05:00 6.1 C 82 % 3.26 C
3543 23-04-2020 07:10:00 6.1 C 82 % 3.26 C
3544 23-04-2020 07:15:00 6 C 82 % 3.17 C
3545 23-04-2020 07:20:00 5.9 C 83 % 3.24 C
3546 23-04-2020 07:25:00 5.9 C 84 % 3.41 C
3547 23-04-2020 07:30:00 5.9 C 84 % 3.41 C
3548 23-04-2020 07:35:00 5.9 C 85 % 3.58 C
3549 23-04-2020 07:40:00 5.9 C 85 % 3.58 C
3550 23-04-2020 07:45:00 5.9 C 85 % 3.58 C
Sensor: Nr:Datum:Temp:Feuchte:Taupunkt:
Aussen-T/F 3551 23-04-2020 07:50:00 5.9 C 85 % 3.58 C
3552 23-04-2020 07:55:00 5.9 C 86 % 3.74 C
3553 23-04-2020 08:00:00 5.9 C 86 % 3.74 C
3554 23-04-2020 08:05:00 5.9 C 86 % 3.74 C
3555 23-04-2020 08:10:00 5.9 C 86 % 3.74 C
3556 23-04-2020 08:15:00 6 C 87 % 4 C
3557 23-04-2020 08:20:00 6.1 C 87 % 4.1 C
3558 23-04-2020 08:25:00 6.2 C 87 % 4.2 C
3559 23-04-2020 08:30:00 6.2 C 87 % 4.2 C
3560 23-04-2020 08:35:00 6.3 C 87 % 4.3 C
3561 23-04-2020 08:40:00 6.4 C 87 % 4.4 C
3562 23-04-2020 08:45:00 6.6 C 87 % 4.6 C
3563 23-04-2020 08:50:00 6.8 C 87 % 4.79 C
3564 23-04-2020 08:55:00 6.9 C 87 % 4.89 C
3565 23-04-2020 09:00:00 7.1 C 86 % 4.92 C
3566 23-04-2020 09:05:00 7.3 C 86 % 5.12 C
3567 23-04-2020 09:10:00 7.5 C 86 % 5.31 C
3568 23-04-2020 09:15:00 7.8 C 85 % 5.44 C
3569 23-04-2020 09:20:00 8 C 84 % 5.47 C
3570 23-04-2020 09:25:00 8.2 C 83 % 5.49 C
3571 23-04-2020 09:30:00 8.5 C 83 % 5.78 C
3572 23-04-2020 09:35:00 8.7 C 82 % 5.8 C
3573 23-04-2020 09:40:00 8.9 C 82 % 6 C
3574 23-04-2020 09:45:00 9.2 C 80 % 5.94 C
3575 23-04-2020 09:50:00 9.4 C 80 % 6.13 C
Sensor: Nr:Datum:Temp:Feuchte:Taupunkt:
Aussen-T/F 3576 23-04-2020 09:55:00 9.6 C 79 % 6.14 C
3577 23-04-2020 10:00:00 9.9 C 78 % 6.25 C
3578 23-04-2020 10:05:00 10.2 C 78 % 6.54 C
3579 23-04-2020 10:10:00 10.4 C 77 % 6.55 C
3580 23-04-2020 10:15:00 10.6 C 76 % 6.55 C
3581 23-04-2020 10:20:00 11 C 72 % 6.15 C
3582 23-04-2020 10:25:00 11.4 C 71 % 6.34 C
3583 23-04-2020 10:30:00 11.8 C 70 % 6.51 C
3584 23-04-2020 10:35:00 12.1 C 70 % 6.8 C
3585 23-04-2020 10:40:00 12.4 C 70 % 7.09 C
3586 23-04-2020 10:45:00 12.7 C 64 % 6.07 C
3587 23-04-2020 10:50:00 13.1 C 64 % 6.45 C
3588 23-04-2020 10:55:00 13.8 C 58 % 5.69 C
3589 23-04-2020 11:00:00 14.9 C 54 % 5.69 C
3590 23-04-2020 11:05:00 15.3 C 59 % 7.34 C
3591 23-04-2020 11:10:00 15.6 C 53 % 6.06 C
3592 23-04-2020 11:15:00 15.8 C 51 % 5.69 C
3593 23-04-2020 11:20:00 16.2 C 49 % 5.49 C
3594 23-04-2020 11:25:00 16.4 C 47 % 5.07 C
3595 23-04-2020 11:30:00 16.8 C 46 % 5.13 C
3596 23-04-2020 11:35:00 16.9 C 52 % 6.99 C
3597 23-04-2020 11:40:00 16.9 C 48 % 5.83 C
3598 23-04-2020 11:45:00 17.1 C 47 % 5.71 C
3599 23-04-2020 11:50:00 17.2 C 47 % 5.8 C
3600 23-04-2020 11:55:00 17.3 C 45 % 5.27 C
Sensor: Nr:Datum:Temp:Feuchte:Taupunkt:
Aussen-T/F 3601 23-04-2020 12:00:00 17.5 C 46 % 5.76 C
3602 23-04-2020 12:05:00 17.7 C 44 % 5.31 C
3603 23-04-2020 12:10:00 17.7 C 44 % 5.31 C
3604 23-04-2020 12:15:00 17.9 C 45 % 5.81 C
3605 23-04-2020 12:20:00 18 C 44 % 5.58 C
3606 23-04-2020 12:25:00 18.1 C 44 % 5.67 C
3607 23-04-2020 12:30:00 18.2 C 43 % 5.43 C
3608 23-04-2020 12:35:00 18.3 C 43 % 5.52 C
3609 23-04-2020 12:40:00 18.3 C 43 % 5.52 C
3610 23-04-2020 12:45:00 18.4 C 43 % 5.61 C
3611 23-04-2020 12:50:00 18.4 C 42 % 5.27 C
3612 23-04-2020 12:55:00 18.5 C 41 % 5.01 C
3613 23-04-2020 13:00:00 18.7 C 38 % 4.11 C
3614 23-04-2020 13:05:00 18.9 C 35 % 3.12 C
3615 23-04-2020 13:10:00 19 C 36 % 3.61 C
3616 23-04-2020 13:15:00 19.2 C 35 % 3.38 C
3617 23-04-2020 13:20:00 19.3 C 35 % 3.47 C
3618 23-04-2020 13:25:00 19.3 C 35 % 3.47 C
3619 23-04-2020 13:30:00 19.4 C 36 % 3.96 C
3620 23-04-2020 13:35:00 19.6 C 35 % 3.74 C
3621 23-04-2020 13:40:00 19.7 C 34 % 3.41 C
3622 23-04-2020 13:45:00 19.8 C 35 % 3.91 C
3623 23-04-2020 13:50:00 20.1 C 33 % 3.34 C
3624 23-04-2020 13:55:00 20.1 C 35 % 4.18 C
3625 23-04-2020 14:00:00 20.1 C 33 % 3.34 C
Sensor: Nr:Datum:Temp:Feuchte:Taupunkt:
Aussen-T/F 3626 23-04-2020 14:05:00 20.2 C 33 % 3.43 C
3627 23-04-2020 14:10:00 20.3 C 33 % 3.52 C
3628 23-04-2020 14:15:00 20.3 C 35 % 4.35 C
3629 23-04-2020 14:20:00 20.4 C 33 % 3.6 C
3630 23-04-2020 14:25:00 20.6 C 33 % 3.78 C
3631 23-04-2020 14:30:00 20.8 C 33 % 3.95 C
3632 23-04-2020 14:35:00 20.9 C 33 % 4.04 C
3633 23-04-2020 14:40:00 21 C 32 % 3.69 C
3634 23-04-2020 14:45:00 21 C 33 % 4.13 C
3635 23-04-2020 14:50:00 21.1 C 33 % 4.22 C
3636 23-04-2020 14:55:00 21.3 C 32 % 3.95 C
3637 23-04-2020 15:00:00 21.4 C 33 % 4.48 C
3638 23-04-2020 15:05:00 21.6 C 32 % 4.21 C
3639 23-04-2020 15:10:00 21.7 C 31 % 3.85 C
3640 23-04-2020 15:15:00 21.6 C 30 % 3.3 C
3641 23-04-2020 15:20:00 21.7 C 32 % 4.3 C
3642 23-04-2020 15:25:00 21.8 C 31 % 3.94 C
3643 23-04-2020 15:30:00 22.1 C 31 % 4.2 C
3644 23-04-2020 15:35:00 22.2 C 30 % 3.82 C
3645 23-04-2020 15:40:00 22.3 C 29 % 3.42 C
3646 23-04-2020 15:45:00 22.4 C 31 % 4.46 C
3647 23-04-2020 15:50:00 22.6 C 30 % 4.16 C
3648 23-04-2020 15:55:00 22.6 C 29 % 3.68 C
3649 23-04-2020 16:00:00 22.6 C 30 % 4.16 C
3650 23-04-2020 16:05:00 22.7 C 30 % 4.25 C
Sensor: Nr:Datum:Temp:Feuchte:Taupunkt:
Aussen-T/F 3651 23-04-2020 16:10:00 22.7 C 30 % 4.25 C
3652 23-04-2020 16:15:00 22.7 C 30 % 4.25 C
3653 23-04-2020 16:20:00 22.8 C 30 % 4.34 C
3654 23-04-2020 16:25:00 23.2 C 29 % 4.2 C
3655 23-04-2020 16:30:00 23.5 C 28 % 3.96 C
3656 23-04-2020 16:35:00 23.4 C 28 % 3.87 C
3657 23-04-2020 16:40:00 23.3 C 28 % 3.78 C
3658 23-04-2020 16:45:00 23.4 C 30 % 4.85 C
3659 23-04-2020 16:50:00 23.9 C 29 % 4.8 C
3660 23-04-2020 16:55:00 24.3 C 28 % 4.64 C
3661 23-04-2020 17:00:00 24.2 C 28 % 4.55 C
3662 23-04-2020 17:05:00 24.4 C 28 % 4.73 C
3663 23-04-2020 17:10:00 24.2 C 28 % 4.55 C
3664 23-04-2020 17:15:00 24.1 C 28 % 4.47 C
3665 23-04-2020 17:20:00 24.2 C 28 % 4.55 C
3666 23-04-2020 17:25:00 24.5 C 26 % 3.76 C
3667 23-04-2020 17:30:00 24.7 C 27 % 4.46 C
3668 23-04-2020 17:35:00 24.7 C 26 % 3.93 C
3669 23-04-2020 17:40:00 24.3 C 27 % 4.12 C
3670 23-04-2020 17:45:00 24.2 C 28 % 4.55 C
3671 23-04-2020 17:50:00 24.2 C 28 % 4.55 C
3672 23-04-2020 17:55:00 24.6 C 29 % 5.4 C
3673 23-04-2020 18:00:00 24.8 C 25 % 3.45 C
3674 23-04-2020 18:05:00 25.1 C 27 % 4.8 C
3675 23-04-2020 18:10:00 25.3 C 25 % 3.88 C
Sensor: Nr:Datum:Temp:Feuchte:Taupunkt:
Aussen-T/F 3676 23-04-2020 18:15:00 25.2 C 29 % 5.91 C
3677 23-04-2020 18:20:00 25.5 C 27 % 5.14 C
3678 23-04-2020 18:25:00 25.7 C 25 % 4.21 C
3679 23-04-2020 18:30:00 25.8 C 25 % 4.3 C
3680 23-04-2020 18:35:00 25.7 C 25 % 4.21 C
3681 23-04-2020 18:40:00 25.6 C 27 % 5.23 C
3682 23-04-2020 18:45:00 25.4 C 27 % 5.06 C
3683 23-04-2020 18:50:00 25.3 C 27 % 4.97 C
3684 23-04-2020 18:55:00 24.9 C 27 % 4.63 C
3685 23-04-2020 19:00:00 24.7 C 30 % 5.97 C
3686 23-04-2020 19:05:00 24.7 C 29 % 5.49 C
3687 23-04-2020 19:10:00 24.8 C 26 % 4.01 C
3688 23-04-2020 19:15:00 24.8 C 28 % 5.07 C
3689 23-04-2020 19:20:00 24.7 C 31 % 6.45 C
3690 23-04-2020 19:25:00 24.4 C 33 % 7.1 C
3691 23-04-2020 19:30:00 24.2 C 36 % 8.2 C
3692 23-04-2020 19:35:00 22.9 C 58 % 14.2 C
3693 23-04-2020 19:40:00 20.8 C 61 % 13.01 C
3694 23-04-2020 19:45:00 19 C 67 % 12.74 C
3695 23-04-2020 19:50:00 17.6 C 67 % 11.4 C
3696 23-04-2020 19:55:00 16.4 C 66 % 10.04 C
3697 23-04-2020 20:00:00 15.7 C 66 % 9.37 C
3698 23-04-2020 20:05:00 15.3 C 66 % 8.99 C
3699 23-04-2020 20:10:00 15.2 C 66 % 8.9 C
3700 23-04-2020 20:15:00 14.9 C 65 % 8.39 C
Sensor: Nr:Datum:Temp:Feuchte:Taupunkt:
Aussen-T/F 3701 23-04-2020 20:20:00 14.8 C 66 % 8.52 C
3702 23-04-2020 20:25:00 14.7 C 67 % 8.64 C
3703 23-04-2020 20:30:00 14.6 C 68 % 8.77 C
3704 23-04-2020 20:35:00 14.4 C 69 % 8.79 C
3705 23-04-2020 20:40:00 14.3 C 70 % 8.91 C
3706 23-04-2020 20:45:00 14.1 C 69 % 8.5 C
3707 23-04-2020 20:50:00 13.9 C 66 % 7.66 C
3708 23-04-2020 20:55:00 13.8 C 66 % 7.57 C
3709 23-04-2020 21:00:00 13.6 C 65 % 7.15 C
3710 23-04-2020 21:05:00 13.4 C 64 % 6.74 C
3711 23-04-2020 21:10:00 13.4 C 65 % 6.96 C
3712 23-04-2020 21:15:00 13.3 C 66 % 7.09 C
3713 23-04-2020 21:20:00 13.2 C 65 % 6.77 C
3714 23-04-2020 21:25:00 13.1 C 65 % 6.68 C
3715 23-04-2020 21:30:00 12.9 C 65 % 6.49 C
3716 23-04-2020 21:35:00 12.8 C 64 % 6.17 C
3717 23-04-2020 21:40:00 12.7 C 65 % 6.3 C
3718 23-04-2020 21:45:00 12.6 C 66 % 6.42 C
3719 23-04-2020 21:50:00 12.4 C 66 % 6.23 C
3720 23-04-2020 21:55:00 12.3 C 65 % 5.92 C
3721 23-04-2020 22:00:00 12.2 C 67 % 6.26 C
3722 23-04-2020 22:05:00 12.1 C 67 % 6.17 C
3723 23-04-2020 22:10:00 11.9 C 68 % 6.19 C
3724 23-04-2020 22:15:00 11.7 C 67 % 5.78 C
3725 23-04-2020 22:20:00 11.7 C 68 % 6 C
Sensor: Nr:Datum:Temp:Feuchte:Taupunkt:
Aussen-T/F 3726 23-04-2020 22:25:00 11.6 C 67 % 5.69 C
3727 23-04-2020 22:30:00 11.4 C 68 % 5.71 C
3728 23-04-2020 22:35:00 11.3 C 68 % 5.62 C
3729 23-04-2020 22:40:00 11.2 C 68 % 5.52 C
3730 23-04-2020 22:45:00 11.2 C 69 % 5.73 C
3731 23-04-2020 22:50:00 11.1 C 68 % 5.43 C
3732 23-04-2020 22:55:00 10.9 C 69 % 5.44 C
3733 23-04-2020 23:00:00 10.8 C 70 % 5.56 C
3734 23-04-2020 23:05:00 10.7 C 70 % 5.46 C
3735 23-04-2020 23:10:00 10.6 C 70 % 5.36 C
3736 23-04-2020 23:15:00 10.4 C 71 % 5.38 C
3737 23-04-2020 23:20:00 10.3 C 71 % 5.28 C
3738 23-04-2020 23:25:00 10.1 C 71 % 5.09 C
3739 23-04-2020 23:30:00 10.1 C 72 % 5.29 C
3740 23-04-2020 23:35:00 10 C 72 % 5.19 C
3741 23-04-2020 23:40:00 9.8 C 72 % 5 C
3742 23-04-2020 23:45:00 9.7 C 72 % 4.9 C
3743 23-04-2020 23:50:00 9.7 C 72 % 4.9 C
3744 23-04-2020 23:55:00 9.7 C 72 % 4.9 C
3745 24-04-2020 00:00:00 9.6 C 72 % 4.81 C
3746 24-04-2020 00:05:00 9.6 C 72 % 4.81 C
3747 24-04-2020 00:10:00 9.6 C 73 % 5.01 C
3748 24-04-2020 00:15:00 9.6 C 74 % 5.2 C
3749 24-04-2020 00:20:00 9.6 C 73 % 5.01 C
3750 24-04-2020 00:25:00 9.5 C 73 % 4.91 C
Sensor: Nr:Datum:Temp:Feuchte:Taupunkt:
Aussen-T/F 3751 24-04-2020 00:30:00 9.4 C 74 % 5.01 C
3752 24-04-2020 00:35:00 9.3 C 74 % 4.91 C
3753 24-04-2020 00:40:00 9.1 C 74 % 4.72 C
3754 24-04-2020 00:45:00 9 C 74 % 4.62 C
3755 24-04-2020 00:50:00 8.9 C 75 % 4.72 C
3756 24-04-2020 00:55:00 8.8 C 75 % 4.62 C
3757 24-04-2020 01:00:00 8.8 C 76 % 4.81 C
3758 24-04-2020 01:05:00 8.7 C 76 % 4.71 C
3759 24-04-2020 01:10:00 8.7 C 77 % 4.9 C
3760 24-04-2020 01:15:00 8.6 C 77 % 4.8 C
3761 24-04-2020 01:20:00 8.6 C 77 % 4.8 C
3762 24-04-2020 01:25:00 8.5 C 76 % 4.52 C
3763 24-04-2020 01:30:00 8.4 C 76 % 4.42 C
3764 24-04-2020 01:35:00 8.4 C 77 % 4.61 C
3765 24-04-2020 01:40:00 8.4 C 78 % 4.79 C
3766 24-04-2020 01:45:00 8.4 C 78 % 4.79 C
3767 24-04-2020 01:50:00 8.3 C 78 % 4.7 C
3768 24-04-2020 01:55:00 8.2 C 78 % 4.6 C
3769 24-04-2020 02:00:00 8.2 C 78 % 4.6 C
3770 24-04-2020 02:05:00 8.1 C 79 % 4.68 C
3771 24-04-2020 02:10:00 7.9 C 78 % 4.31 C
3772 24-04-2020 02:15:00 7.8 C 78 % 4.21 C
3773 24-04-2020 02:20:00 7.7 C 79 % 4.3 C
3774 24-04-2020 02:25:00 7.7 C 80 % 4.47 C
3775 24-04-2020 02:30:00 7.7 C 80 % 4.47 C
Sensor: Nr:Datum:Temp:Feuchte:Taupunkt:
Aussen-T/F 3776 24-04-2020 02:35:00 7.7 C 81 % 4.65 C
3777 24-04-2020 02:40:00 7.6 C 80 % 4.38 C
3778 24-04-2020 02:45:00 7.4 C 80 % 4.18 C
3779 24-04-2020 02:50:00 7.4 C 81 % 4.36 C
3780 24-04-2020 02:55:00 7.3 C 82 % 4.44 C
3781 24-04-2020 03:00:00 7.3 C 82 % 4.44 C
3782 24-04-2020 03:05:00 7.3 C 82 % 4.44 C
3783 24-04-2020 03:10:00 7.3 C 82 % 4.44 C
3784 24-04-2020 03:15:00 7.2 C 82 % 4.34 C
3785 24-04-2020 03:20:00 7.1 C 82 % 4.24 C
3786 24-04-2020 03:25:00 6.9 C 83 % 4.22 C
3787 24-04-2020 03:30:00 6.9 C 83 % 4.22 C
3788 24-04-2020 03:35:00 6.8 C 83 % 4.12 C
3789 24-04-2020 03:40:00 6.8 C 84 % 4.29 C
3790 24-04-2020 03:45:00 6.7 C 84 % 4.19 C
3791 24-04-2020 03:50:00 6.7 C 84 % 4.19 C
3792 24-04-2020 03:55:00 6.7 C 84 % 4.19 C
3793 24-04-2020 04:00:00 6.7 C 84 % 4.19 C
3794 24-04-2020 04:05:00 6.6 C 84 % 4.1 C
3795 24-04-2020 04:10:00 6.5 C 85 % 4.17 C
3796 24-04-2020 04:15:00 6.5 C 85 % 4.17 C
3797 24-04-2020 04:20:00 6.4 C 85 % 4.07 C
3798 24-04-2020 04:25:00 6.3 C 85 % 3.97 C
3799 24-04-2020 04:30:00 6.3 C 85 % 3.97 C
3800 24-04-2020 04:35:00 6.3 C 86 % 4.14 C
Sensor: Nr:Datum:Temp:Feuchte:Taupunkt:
Aussen-T/F 3801 24-04-2020 04:40:00 6.5 C 86 % 4.33 C
3802 24-04-2020 04:45:00 6.6 C 86 % 4.43 C
3803 24-04-2020 04:50:00 6.7 C 86 % 4.53 C
3804 24-04-2020 04:55:00 6.7 C 85 % 4.36 C
3805 24-04-2020 05:00:00 6.7 C 85 % 4.36 C
3806 24-04-2020 05:05:00 6.6 C 85 % 4.26 C
3807 24-04-2020 05:10:00 6.5 C 85 % 4.17 C
3808 24-04-2020 05:15:00 6.4 C 85 % 4.07 C
3809 24-04-2020 05:20:00 6.3 C 86 % 4.14 C
3810 24-04-2020 05:25:00 6.3 C 86 % 4.14 C
3811 24-04-2020 05:30:00 6.3 C 87 % 4.3 C
3812 24-04-2020 05:35:00 6.3 C 87 % 4.3 C
3813 24-04-2020 05:40:00 6.4 C 87 % 4.4 C
3814 24-04-2020 05:45:00 6.4 C 87 % 4.4 C
3815 24-04-2020 05:50:00 6.4 C 87 % 4.4 C
3816 24-04-2020 05:55:00 6.4 C 87 % 4.4 C
3817 24-04-2020 06:00:00 6.4 C 87 % 4.4 C
3818 24-04-2020 06:05:00 6.4 C 87 % 4.4 C
3819 24-04-2020 06:10:00 6.3 C 87 % 4.3 C
3820 24-04-2020 06:15:00 6.3 C 87 % 4.3 C
3821 24-04-2020 06:20:00 6.3 C 87 % 4.3 C
3822 24-04-2020 06:25:00 6.4 C 87 % 4.4 C
3823 24-04-2020 06:30:00 6.4 C 87 % 4.4 C
3824 24-04-2020 06:35:00 6.4 C 87 % 4.4 C
3825 24-04-2020 06:40:00 6.3 C 87 % 4.3 C
Sensor: Nr:Datum:Temp:Feuchte:Taupunkt:
Aussen-T/F 3826 24-04-2020 06:45:00 6.4 C 87 % 4.4 C
3827 24-04-2020 06:50:00 6.4 C 87 % 4.4 C
3828 24-04-2020 06:55:00 6.4 C 87 % 4.4 C
3829 24-04-2020 07:00:00 6.4 C 87 % 4.4 C
3830 24-04-2020 07:05:00 6.4 C 87 % 4.4 C
3831 24-04-2020 07:10:00 6.5 C 88 % 4.66 C
3832 24-04-2020 07:15:00 6.5 C 88 % 4.66 C
3833 24-04-2020 07:20:00 6.6 C 88 % 4.76 C
3834 24-04-2020 07:25:00 6.6 C 88 % 4.76 C
3835 24-04-2020 07:30:00 6.6 C 88 % 4.76 C
3836 24-04-2020 07:35:00 6.6 C 88 % 4.76 C
3837 24-04-2020 07:40:00 6.6 C 88 % 4.76 C
3838 24-04-2020 07:45:00 6.7 C 88 % 4.86 C
3839 24-04-2020 07:50:00 6.8 C 88 % 4.96 C
3840 24-04-2020 07:55:00 6.8 C 88 % 4.96 C
3841 24-04-2020 08:00:00 6.9 C 88 % 5.05 C
3842 24-04-2020 08:05:00 6.9 C 88 % 5.05 C
3843 24-04-2020 08:10:00 7.1 C 88 % 5.25 C
3844 24-04-2020 08:15:00 7.2 C 88 % 5.35 C
3845 24-04-2020 08:20:00 7.3 C 87 % 5.28 C
3846 24-04-2020 08:25:00 7.6 C 87 % 5.58 C
3847 24-04-2020 08:30:00 7.8 C 86 % 5.61 C
3848 24-04-2020 08:35:00 8.1 C 85 % 5.73 C
3849 24-04-2020 08:40:00 8.3 C 85 % 5.93 C
3850 24-04-2020 08:45:00 8.7 C 85 % 6.32 C
Sensor: Nr:Datum:Temp:Feuchte:Taupunkt:
Aussen-T/F 3851 24-04-2020 08:50:00 8.9 C 83 % 6.17 C
3852 24-04-2020 08:55:00 9.2 C 83 % 6.47 C
3853 24-04-2020 09:00:00 9.4 C 82 % 6.49 C
3854 24-04-2020 09:05:00 9.6 C 80 % 6.32 C
3855 24-04-2020 09:10:00 9.9 C 79 % 6.43 C
3856 24-04-2020 09:15:00 10.1 C 78 % 6.44 C
3857 24-04-2020 09:20:00 10.3 C 79 % 6.82 C
3858 24-04-2020 09:25:00 10.6 C 78 % 6.93 C
3859 24-04-2020 09:30:00 10.8 C 77 % 6.94 C
3860 24-04-2020 09:35:00 11.1 C 77 % 7.23 C
3861 24-04-2020 09:40:00 11.3 C 76 % 7.23 C
3862 24-04-2020 09:45:00 11.4 C 75 % 7.13 C
3863 24-04-2020 09:50:00 11.7 C 75 % 7.42 C
3864 24-04-2020 09:55:00 11.8 C 75 % 7.52 C
3865 24-04-2020 10:00:00 12.1 C 74 % 7.61 C
3866 24-04-2020 10:05:00 12.2 C 73 % 7.51 C
3867 24-04-2020 10:10:00 12.3 C 73 % 7.61 C
3868 24-04-2020 10:15:00 12.3 C 72 % 7.4 C
3869 24-04-2020 10:20:00 12.5 C 72 % 7.6 C
3870 24-04-2020 10:25:00 12.7 C 72 % 7.79 C
3871 24-04-2020 10:30:00 12.9 C 72 % 7.98 C
3872 24-04-2020 10:35:00 13.2 C 71 % 8.06 C
3873 24-04-2020 10:40:00 13.6 C 71 % 8.45 C
3874 24-04-2020 10:45:00 13.8 C 69 % 8.22 C
3875 24-04-2020 10:50:00 13.9 C 70 % 8.53 C
Sensor: Nr:Datum:Temp:Feuchte:Taupunkt:
Aussen-T/F 3876 24-04-2020 10:55:00 14.2 C 68 % 8.39 C
3877 24-04-2020 11:00:00 14.3 C 67 % 8.26 C
3878 24-04-2020 11:05:00 14.6 C 67 % 8.55 C
3879 24-04-2020 11:10:00 14.7 C 66 % 8.42 C
3880 24-04-2020 11:15:00 14.8 C 67 % 8.74 C
3881 24-04-2020 11:20:00 15 C 65 % 8.48 C
3882 24-04-2020 11:25:00 15.2 C 65 % 8.67 C
3883 24-04-2020 11:30:00 15.3 C 64 % 8.54 C
3884 24-04-2020 11:35:00 15.4 C 63 % 8.4 C
3885 24-04-2020 11:40:00 15.6 C 64 % 8.82 C
3886 24-04-2020 11:45:00 15.7 C 63 % 8.68 C
3887 24-04-2020 11:50:00 15.9 C 62 % 8.64 C
3888 24-04-2020 11:55:00 16.1 C 62 % 8.82 C
3889 24-04-2020 12:00:00 16.2 C 62 % 8.92 C
3890 24-04-2020 12:05:00 16.4 C 63 % 9.35 C
3891 24-04-2020 12:10:00 16.6 C 62 % 9.3 C
3892 24-04-2020 12:15:00 16.9 C 60 % 9.09 C
3893 24-04-2020 12:20:00 17.3 C 63 % 10.2 C
3894